GEFSNGP_prec_meanprecacc_060.txt.gz
Total_Precipitation_Accumulation
0.00 0.00 0.00 0.00 0.00 0.00 0.00 0.00 0.00 0.00 0.00 0.00 0.00 0.00 0.00 0.00 0.00 0.00 0.00 0.00 0.00 0.00 0.01 0.01 0.00 0.00 0.00 0.00 0.00 0.00 0.00 0.00 0.00 0.00 0.01 0.01 0.02 0.05 0.08 0.16 0.26 0.34 0.38 0.40
0.00 0.00 0.00 0.00 0.00 0.00 0.00 0.00 0.00 0.00 0.00 0.00 0.00 0.00 0.00 0.00 0.00 0.00 0.00 0.00 0.00 0.00 0.01 0.01 0.00 0.00 0.00 0.00 0.00 0.00 0.00 0.00 0.00 0.00 0.01 0.01 0.02 0.06 0.08 0.11 0.19 0.29 0.35 0.32
0.00 0.00 0.00 0.00 0.00 0.00 0.00 0.00 0.00 0.00 0.00 0.00 0.00 0.00 0.00 0.00 0.01 0.01 0.01 0.01 0.01 0.01 0.01 0.01 0.00 0.00 0.00 0.00 0.00 0.00 0.00 0.00 0.00 0.00 0.01 0.01 0.02 0.03 0.07 0.10 0.12 0.16 0.19 0.16
0.00 0.00 0.00 0.00 0.00 0.00 0.00 0.00 0.00 0.00 0.00 0.00 0.00 0.00 0.00 0.01 0.02 0.02 0.02 0.01 0.01 0.01 0.01 0.00 0.00 0.00 0.00 0.00 0.00 0.00 0.00 0.00 0.00 0.00 0.01 0.01 0.01 0.02 0.04 0.07 0.10 0.12 0.10 0.06
0.00 0.00 0.00 0.00 0.00 0.00 0.00 0.00 0.00 0.00 0.00 0.00 0.00 0.00 0.01 0.03 0.02 0.01 0.01 0.01 0.01 0.01 0.00 0.00 0.00 0.00 0.00 0.00 0.00 0.00 0.00 0.00 0.00 0.00 0.00 0.01 0.01 0.02 0.02 0.04 0.08 0.10 0.08 0.04
0.00 0.00 0.00 0.00 0.00 0.00 0.00 0.00 0.00 0.00 0.00 0.00 0.00 0.03 0.03 0.03 0.01 0.00 0.00 0.00 0.00 0.00 0.00 0.00 0.00 0.00 0.00 0.00 0.00 0.00 0.00 0.00 0.00 0.00 0.00 0.01 0.01 0.01 0.01 0.02 0.03 0.05 0.05 0.03
0.00 0.00 0.00 0.00 0.00 0.00 0.00 0.00 0.00 0.00 0.00 0.00 0.01 0.05 0.04 0.01 0.00 0.00 0.00 0.00 0.00 0.00 0.00 0.00 0.00 0.00 0.00 0.00 0.00 0.00 0.00 0.00 0.00 0.00 0.01 0.01 0.01 0.01 0.02 0.02 0.02 0.02 0.01 0.01
0.00 0.00 0.00 0.00 0.00 0.00 0.00 0.00 0.00 0.00 0.00 0.00 0.01 0.01 0.01 0.00 0.00 0.00 0.00 0.00 0.00 0.00 0.00 0.00 0.00 0.00 0.00 0.00 0.00 0.00 0.00 0.00 0.00 0.00 0.01 0.01 0.01 0.02 0.02 0.02 0.02 0.02 0.02 0.01
0.00 0.00 0.00 0.00 0.00 0.00 0.00 0.00 0.00 0.00 0.00 0.01 0.01 0.00 0.00 0.00 0.00 0.00 0.00 0.00 0.00 0.00 0.00 0.00 0.00 0.00 0.00 0.00 0.00 0.00 0.00 0.00 0.00 0.01 0.01 0.01 0.02 0.02 0.02 0.03 0.05 0.06 0.05 0.03
0.00 0.00 0.00 0.00 0.00 0.00 0.00 0.00 0.00 0.00 0.00 0.01 0.01 0.00 0.00 0.00 0.00 0.00 0.00 0.00 0.00 0.00 0.00 0.00 0.00 0.00 0.00 0.00 0.00 0.00 0.00 0.00 0.01 0.01 0.01 0.02 0.02 0.02 0.04 0.06 0.16 0.18 0.10 0.07
0.00 0.00 0.00 0.00 0.00 0.00 0.00 0.00 0.00 0.00 0.00 0.01 0.00 0.00 0.00 0.00 0.00 0.00 0.00 0.00 0.00 0.00 0.00 0.00 0.00 0.00 0.00 0.00 0.00 0.00 0.00 0.00 0.01 0.01 0.02 0.02 0.02 0.03 0.05 0.08 0.22 0.28 0.17 0.19
0.00 0.00 0.00 0.00 0.00 0.00 0.00 0.00 0.00 0.00 0.01 0.00 0.00 0.00 0.00 0.00 0.00 0.00 0.00 0.00 0.00 0.00 0.00 0.00 0.00 0.00 0.00 0.00 0.00 0.00 0.01 0.01 0.01 0.02 0.02 0.03 0.03 0.03 0.03 0.05 0.10 0.10 0.10 0.18
0.00 0.00 0.00 0.00 0.00 0.00 0.00 0.00 0.00 0.00 0.00 0.00 0.00 0.00 0.00 0.00 0.00 0.00 0.00 0.00 0.00 0.00 0.00 0.00 0.00 0.00 0.00 0.00 0.00 0.00 0.01 0.02 0.02 0.03 0.03 0.03 0.03 0.04 0.04 0.03 0.03 0.03 0.03 0.07
0.00 0.00 0.00 0.00 0.00 0.00 0.00 0.00 0.00 0.00 0.00 0.00 0.00 0.00 0.00 0.00 0.00 0.00 0.00 0.00 0.00 0.00 0.00 0.00 0.00 0.00 0.00 0.00 0.00 0.00 0.01 0.02 0.03 0.03 0.04 0.05 0.05 0.05 0.06 0.05 0.04 0.02 0.01 0.02
0.00 0.00 0.00 0.00 0.00 0.00 0.00 0.00 0.00 0.00 0.00 0.00 0.00 0.00 0.00 0.00 0.00 0.00 0.00 0.00 0.00 0.00 0.00 0.00 0.00 0.00 0.00 0.00 0.00 0.01 0.01 0.02 0.04 0.05 0.05 0.06 0.06 0.06 0.06 0.05 0.04 0.03 0.02 0.01
0.00 0.00 0.00 0.00 0.00 0.00 0.00 0.00 0.00 0.00 0.00 0.00 0.00 0.00 0.00 0.00 0.00 0.00 0.00 0.00 0.00 0.00 0.00 0.00 0.00 0.00 0.00 0.00 0.01 0.01 0.01 0.02 0.04 0.05 0.05 0.06 0.06 0.06 0.06 0.05 0.04 0.04 0.03 0.03
0.00 0.00 0.00 0.00 0.00 0.00 0.00 0.00 0.00 0.00 0.00 0.00 0.00 0.00 0.00 0.00 0.00 0.00 0.00 0.00 0.00 0.00 0.00 0.00 0.00 0.00 0.00 0.00 0.01 0.02 0.02 0.03 0.03 0.05 0.05 0.06 0.06 0.07 0.07 0.06 0.06 0.04 0.03 0.04
0.00 0.00 0.00 0.00 0.00 0.00 0.00 0.00 0.00 0.00 0.00 0.00 0.00 0.00 0.00 0.00 0.00 0.00 0.00 0.00 0.00 0.00 0.00 0.00 0.00 0.00 0.00 0.01 0.03 0.03 0.04 0.04 0.05 0.07 0.07 0.07 0.08 0.08 0.08 0.08 0.06 0.05 0.03 0.02
0.00 0.00 0.00 0.00 0.00 0.00 0.00 0.00 0.00 0.00 0.00 0.00 0.00 0.00 0.00 0.00 0.00 0.00 0.00 0.00 0.00 0.00 0.00 0.00 0.00 0.00 0.00 0.02 0.05 0.06 0.07 0.06 0.06 0.05 0.05 0.06 0.06 0.06 0.07 0.08 0.07 0.05 0.04 0.03
0.00 0.00 0.00 0.00 0.00 0.00 0.00 0.00 0.00 0.00 0.00 0.00 0.00 0.00 0.00 0.00 0.00 0.00 0.00 0.00 0.00 0.00 0.00 0.00 0.00 0.01 0.03 0.05 0.08 0.08 0.05 0.04 0.05 0.05 0.05 0.06 0.07 0.07 0.08 0.08 0.08 0.07 0.06 0.05
0.00 0.00 0.00 0.00 0.00 0.00 0.00 0.00 0.00 0.00 0.00 0.00 0.00 0.00 0.00 0.00 0.00 0.00 0.00 0.00 0.00 0.00 0.00 0.00 0.00 0.03 0.08 0.08 0.05 0.03 0.02 0.03 0.05 0.06 0.07 0.08 0.09 0.09 0.09 0.09 0.09 0.08 0.07 0.06
0.00 0.00 0.00 0.00 0.00 0.00 0.00 0.00 0.00 0.00 0.00 0.00 0.00 0.00 0.00 0.00 0.00 0.00 0.00 0.00 0.00 0.00 0.01 0.00 0.01 0.05 0.07 0.04 0.02 0.02 0.03 0.05 0.06 0.08 0.09 0.10 0.12 0.12 0.11 0.11 0.11 0.09 0.08 0.08
0.00 0.00 0.00 0.00 0.00 0.00 0.00 0.00 0.00 0.00 0.00 0.00 0.00 0.00 0.01 0.01 0.01 0.01 0.01 0.00 0.00 0.01 0.01 0.01 0.01 0.03 0.03 0.03 0.02 0.03 0.05 0.07 0.09 0.11 0.11 0.12 0.13 0.14 0.15 0.13 0.12 0.12 0.10 0.10
0.00 0.00 0.00 0.00 0.00 0.00 0.00 0.00 0.00 0.00 0.00 0.01 0.01 0.01 0.01 0.01 0.00 0.00 0.00 0.00 0.01 0.01 0.01 0.01 0.02 0.03 0.04 0.04 0.05 0.07 0.09 0.11 0.15 0.15 0.14 0.14 0.13 0.13 0.15 0.15 0.14 0.11 0.10 0.10
0.00 0.00 0.00 0.01 0.01 0.01 0.01 0.01 0.01 0.00 0.01 0.01 0.01 0.00 0.00 0.00 0.00 0.00 0.01 0.01 0.01 0.02 0.02 0.03 0.04 0.04 0.05 0.06 0.08 0.11 0.12 0.13 0.18 0.18 0.17 0.15 0.13 0.13 0.13 0.14 0.13 0.11 0.10 0.10
0.01 0.01 0.01 0.01 0.01 0.01 0.01 0.01 0.01 0.01 0.01 0.01 0.00 0.00 0.00 0.01 0.01 0.01 0.02 0.02 0.03 0.04 0.05 0.05 0.05 0.06 0.07 0.08 0.11 0.13 0.13 0.15 0.20 0.21 0.18 0.15 0.13 0.12 0.12 0.13 0.11 0.10 0.10 0.10
0.02 0.01 0.01 0.01 0.01 0.01 0.02 0.02 0.02 0.02 0.02 0.02 0.02 0.02 0.02 0.02 0.02 0.03 0.03 0.04 0.05 0.06 0.06 0.06 0.07 0.08 0.09 0.10 0.12 0.14 0.15 0.16 0.22 0.25 0.20 0.16 0.14 0.13 0.12 0.12 0.11 0.10 0.10 0.10

GEFSNGP_prec_meanprecacc_066.txt.gz
Total_Precipitation_Accumulation
0.00 0.00 0.00 0.00 0.00 0.00 0.00 0.00 0.00 0.00 0.00 0.00 0.00 0.00 0.00 0.00 0.00 0.00 0.00 0.00 0.00 0.00 0.01 0.01 0.00 0.00 0.00 0.00 0.00 0.00 0.00 0.00 0.00 0.00 0.01 0.01 0.02 0.05 0.08 0.16 0.26 0.34 0.39 0.40
0.00 0.00 0.00 0.00 0.00 0.00 0.00 0.00 0.00 0.00 0.00 0.00 0.00 0.00 0.00 0.00 0.00 0.00 0.00 0.00 0.00 0.00 0.01 0.01 0.00 0.00 0.00 0.00 0.00 0.00 0.00 0.00 0.00 0.00 0.01 0.01 0.02 0.06 0.08 0.11 0.19 0.29 0.35 0.33
0.00 0.00 0.00 0.00 0.00 0.00 0.00 0.00 0.00 0.00 0.00 0.00 0.00 0.00 0.00 0.00 0.01 0.01 0.01 0.01 0.01 0.01 0.01 0.01 0.00 0.00 0.00 0.00 0.00 0.00 0.00 0.00 0.00 0.00 0.01 0.01 0.02 0.03 0.07 0.10 0.12 0.17 0.19 0.17
0.00 0.00 0.00 0.00 0.00 0.00 0.00 0.00 0.00 0.00 0.00 0.00 0.00 0.00 0.00 0.01 0.02 0.02 0.02 0.01 0.01 0.01 0.01 0.00 0.00 0.00 0.00 0.00 0.00 0.00 0.00 0.00 0.00 0.00 0.01 0.01 0.01 0.02 0.04 0.07 0.10 0.12 0.11 0.07
0.00 0.00 0.00 0.00 0.00 0.00 0.00 0.00 0.00 0.00 0.00 0.00 0.00 0.00 0.01 0.03 0.02 0.01 0.01 0.01 0.01 0.01 0.00 0.00 0.00 0.00 0.00 0.00 0.00 0.00 0.00 0.00 0.00 0.00 0.00 0.01 0.01 0.02 0.02 0.04 0.08 0.10 0.09 0.05
0.00 0.00 0.00 0.00 0.00 0.00 0.00 0.00 0.00 0.00 0.00 0.00 0.00 0.03 0.03 0.03 0.01 0.00 0.00 0.00 0.00 0.00 0.00 0.00 0.00 0.00 0.00 0.00 0.00 0.00 0.00 0.00 0.00 0.00 0.00 0.01 0.01 0.01 0.01 0.02 0.04 0.05 0.06 0.04
0.00 0.00 0.00 0.00 0.00 0.00 0.00 0.00 0.00 0.00 0.00 0.00 0.01 0.05 0.04 0.01 0.00 0.00 0.00 0.00 0.00 0.00 0.00 0.00 0.00 0.00 0.00 0.00 0.00 0.00 0.00 0.00 0.00 0.00 0.01 0.01 0.01 0.01 0.02 0.02 0.02 0.02 0.02 0.02
0.00 0.00 0.00 0.00 0.00 0.00 0.00 0.00 0.00 0.00 0.00 0.00 0.01 0.01 0.01 0.00 0.00 0.00 0.00 0.00 0.00 0.00 0.00 0.00 0.00 0.00 0.00 0.00 0.00 0.00 0.00 0.00 0.00 0.00 0.01 0.01 0.01 0.02 0.02 0.02 0.02 0.03 0.03 0.03
0.00 0.00 0.00 0.00 0.00 0.00 0.00 0.00 0.00 0.00 0.00 0.01 0.01 0.00 0.00 0.00 0.00 0.00 0.00 0.00 0.00 0.00 0.00 0.00 0.00 0.00 0.00 0.00 0.00 0.00 0.00 0.00 0.00 0.01 0.01 0.01 0.02 0.02 0.02 0.03 0.05 0.07 0.06 0.04
0.00 0.00 0.00 0.00 0.00 0.00 0.00 0.00 0.00 0.00 0.00 0.01 0.01 0.00 0.00 0.00 0.00 0.00 0.00 0.00 0.00 0.00 0.00 0.00 0.00 0.00 0.00 0.00 0.00 0.00 0.00 0.00 0.01 0.01 0.01 0.02 0.02 0.02 0.04 0.07 0.17 0.18 0.11 0.08
0.00 0.00 0.00 0.00 0.00 0.00 0.00 0.00 0.00 0.00 0.00 0.01 0.00 0.00 0.00 0.00 0.00 0.00 0.00 0.00 0.00 0.00 0.00 0.00 0.00 0.00 0.00 0.00 0.00 0.00 0.00 0.00 0.01 0.01 0.02 0.02 0.02 0.03 0.05 0.08 0.23 0.28 0.17 0.20
0.00 0.00 0.00 0.00 0.00 0.00 0.00 0.00 0.00 0.00 0.01 0.00 0.00 0.00 0.00 0.00 0.00 0.00 0.00 0.00 0.00 0.00 0.00 0.00 0.00 0.00 0.00 0.00 0.00 0.00 0.01 0.01 0.01 0.02 0.02 0.03 0.03 0.03 0.04 0.06 0.11 0.11 0.11 0.18
0.00 0.00 0.00 0.00 0.00 0.00 0.00 0.00 0.00 0.00 0.00 0.00 0.00 0.00 0.00 0.00 0.00 0.00 0.00 0.00 0.00 0.00 0.00 0.00 0.00 0.00 0.00 0.00 0.00 0.00 0.01 0.02 0.02 0.03 0.03 0.04 0.04 0.05 0.05 0.03 0.03 0.04 0.04 0.08
0.00 0.00 0.00 0.00 0.00 0.00 0.00 0.00 0.00 0.00 0.00 0.00 0.00 0.00 0.00 0.00 0.00 0.00 0.00 0.00 0.00 0.00 0.00 0.00 0.00 0.00 0.00 0.00 0.00 0.00 0.01 0.02 0.03 0.04 0.05 0.06 0.06 0.06 0.06 0.06 0.04 0.02 0.02 0.03
0.00 0.00 0.00 0.00 0.00 0.00 0.00 0.00 0.00 0.00 0.00 0.00 0.00 0.00 0.00 0.00 0.00 0.00 0.00 0.00 0.00 0.00 0.00 0.00 0.00 0.00 0.00 0.00 0.00 0.01 0.01 0.02 0.04 0.06 0.05 0.06 0.06 0.07 0.06 0.06 0.05 0.03 0.03 0.02
0.00 0.00 0.00 0.00 0.00 0.00 0.00 0.00 0.00 0.00 0.00 0.00 0.00 0.00 0.00 0.00 0.00 0.00 0.00 0.00 0.00 0.00 0.00 0.00 0.00 0.00 0.00 0.00 0.01 0.01 0.01 0.03 0.05 0.05 0.06 0.06 0.07 0.07 0.06 0.06 0.06 0.05 0.04 0.05
0.00 0.00 0.00 0.00 0.00 0.00 0.00 0.00 0.00 0.00 0.00 0.00 0.00 0.00 0.00 0.00 0.00 0.00 0.00 0.00 0.00 0.00 0.00 0.00 0.00 0.00 0.00 0.00 0.01 0.02 0.02 0.03 0.04 0.05 0.06 0.07 0.07 0.08 0.08 0.08 0.07 0.06 0.04 0.05
0.00 0.00 0.00 0.00 0.00 0.00 0.00 0.00 0.00 0.00 0.00 0.00 0.00 0.00 0.00 0.00 0.00 0.00 0.00 0.00 0.00 0.00 0.00 0.00 0.00 0.00 0.00 0.01 0.03 0.03 0.04 0.05 0.06 0.08 0.08 0.08 0.09 0.10 0.10 0.10 0.08 0.07 0.05 0.04
0.00 0.00 0.00 0.00 0.00 0.00 0.00 0.00 0.00 0.00 0.00 0.00 0.00 0.00 0.00 0.00 0.00 0.00 0.00 0.00 0.00 0.00 0.00 0.00 0.00 0.00 0.01 0.02 0.05 0.06 0.07 0.07 0.07 0.06 0.07 0.08 0.09 0.09 0.10 0.10 0.09 0.08 0.07 0.06
0.00 0.01 0.01 0.00 0.00 0.00 0.00 0.00 0.00 0.00 0.00 0.00 0.00 0.00 0.00 0.00 0.00 0.00 0.00 0.00 0.00 0.00 0.00 0.00 0.00 0.01 0.03 0.05 0.09 0.08 0.06 0.05 0.06 0.07 0.08 0.09 0.10 0.10 0.11 0.11 0.11 0.10 0.08 0.07
0.01 0.01 0.00 0.00 0.00 0.00 0.00 0.00 0.00 0.00 0.00 0.00 0.00 0.00 0.00 0.00 0.00 0.00 0.00 0.00 0.00 0.00 0.00 0.01 0.01 0.03 0.08 0.09 0.06 0.04 0.03 0.05 0.08 0.09 0.11 0.12 0.13 0.13 0.13 0.13 0.12 0.11 0.10 0.09
0.00 0.00 0.00 0.00 0.00 0.00 0.00 0.00 0.00 0.00 0.00 0.00 0.00 0.00 0.00 0.00 0.00 0.00 0.00 0.00 0.00 0.01 0.01 0.01 0.01 0.05 0.08 0.05 0.03 0.03 0.05 0.07 0.10 0.12 0.14 0.16 0.17 0.17 0.16 0.15 0.15 0.13 0.11 0.10
0.00 0.00 0.00 0.00 0.00 0.00 0.00 0.00 0.00 0.00 0.00 0.00 0.00 0.00 0.01 0.01 0.01 0.01 0.01 0.00 0.00 0.01 0.01 0.01 0.02 0.04 0.05 0.04 0.04 0.05 0.07 0.10 0.14 0.16 0.17 0.18 0.19 0.19 0.19 0.18 0.16 0.15 0.13 0.12
0.00 0.00 0.00 0.00 0.00 0.00 0.00 0.00 0.00 0.00 0.00 0.01 0.01 0.01 0.01 0.01 0.00 0.00 0.00 0.00 0.01 0.01 0.01 0.01 0.03 0.04 0.05 0.05 0.06 0.09 0.12 0.16 0.20 0.20 0.20 0.19 0.18 0.18 0.19 0.19 0.17 0.14 0.13 0.12
0.00 0.00 0.00 0.01 0.01 0.01 0.01 0.01 0.01 0.00 0.01 0.01 0.01 0.00 0.00 0.00 0.00 0.00 0.01 0.01 0.01 0.02 0.02 0.03 0.05 0.06 0.06 0.07 0.11 0.14 0.16 0.18 0.24 0.24 0.22 0.21 0.18 0.17 0.18 0.18 0.16 0.14 0.12 0.12
0.01 0.01 0.01 0.01 0.01 0.01 0.01 0.01 0.01 0.01 0.01 0.01 0.00 0.00 0.00 0.01 0.01 0.01 0.02 0.02 0.03 0.04 0.05 0.06 0.06 0.07 0.09 0.11 0.13 0.16 0.18 0.20 0.25 0.27 0.23 0.20 0.18 0.16 0.16 0.16 0.14 0.13 0.11 0.11
0.02 0.01 0.01 0.01 0.01 0.01 0.02 0.02 0.02 0.02 0.02 0.02 0.02 0.02 0.02 0.02 0.02 0.03 0.03 0.04 0.05 0.06 0.07 0.07 0.08 0.10 0.11 0.13 0.16 0.18 0.19 0.21 0.27 0.29 0.25 0.21 0.18 0.16 0.15 0.15 0.13 0.12 0.11 0.11

GEFSNGP_prec_meanprecacc_072.txt.gz
Total_Precipitation_Accumulation
0.00 0.00 0.00 0.00 0.00 0.00 0.00 0.00 0.00 0.00 0.00 0.00 0.00 0.00 0.00 0.00 0.00 0.00 0.00 0.00 0.00 0.00 0.01 0.01 0.00 0.00 0.00 0.00 0.00 0.00 0.00 0.00 0.00 0.00 0.01 0.01 0.02 0.05 0.08 0.16 0.26 0.34 0.39 0.40
0.00 0.00 0.00 0.00 0.00 0.00 0.00 0.00 0.00 0.00 0.00 0.00 0.00 0.00 0.00 0.00 0.00 0.00 0.00 0.00 0.00 0.00 0.01 0.01 0.00 0.00 0.00 0.00 0.00 0.00 0.00 0.00 0.00 0.00 0.01 0.01 0.02 0.06 0.08 0.11 0.19 0.29 0.35 0.33
0.00 0.00 0.00 0.00 0.00 0.00 0.00 0.00 0.00 0.00 0.00 0.00 0.00 0.00 0.00 0.00 0.01 0.01 0.01 0.01 0.01 0.01 0.01 0.01 0.00 0.00 0.00 0.00 0.00 0.00 0.00 0.00 0.00 0.00 0.01 0.01 0.02 0.03 0.07 0.10 0.12 0.17 0.19 0.17
0.00 0.00 0.00 0.00 0.00 0.00 0.00 0.00 0.00 0.00 0.00 0.00 0.00 0.00 0.00 0.01 0.02 0.02 0.02 0.01 0.01 0.01 0.01 0.00 0.00 0.00 0.00 0.00 0.00 0.00 0.00 0.00 0.00 0.00 0.01 0.01 0.01 0.02 0.04 0.07 0.10 0.12 0.11 0.07
0.00 0.00 0.00 0.00 0.00 0.00 0.00 0.00 0.00 0.00 0.00 0.00 0.00 0.00 0.01 0.03 0.02 0.01 0.01 0.01 0.01 0.01 0.00 0.00 0.00 0.00 0.00 0.00 0.00 0.00 0.00 0.00 0.00 0.00 0.00 0.01 0.01 0.02 0.02 0.04 0.08 0.10 0.09 0.05
0.00 0.00 0.00 0.00 0.00 0.00 0.00 0.00 0.00 0.00 0.00 0.00 0.00 0.03 0.03 0.03 0.01 0.00 0.00 0.00 0.00 0.00 0.00 0.00 0.00 0.00 0.00 0.00 0.00 0.00 0.00 0.00 0.00 0.00 0.00 0.01 0.01 0.01 0.01 0.02 0.04 0.05 0.06 0.04
0.00 0.00 0.00 0.00 0.00 0.00 0.00 0.00 0.00 0.00 0.00 0.00 0.01 0.05 0.04 0.01 0.00 0.00 0.00 0.00 0.00 0.00 0.00 0.00 0.00 0.00 0.00 0.00 0.00 0.00 0.00 0.00 0.00 0.00 0.01 0.01 0.01 0.01 0.02 0.02 0.02 0.02 0.02 0.02
0.00 0.00 0.00 0.00 0.00 0.00 0.00 0.00 0.00 0.00 0.00 0.00 0.01 0.01 0.01 0.00 0.00 0.00 0.00 0.00 0.00 0.00 0.00 0.00 0.00 0.00 0.00 0.00 0.00 0.00 0.00 0.00 0.00 0.00 0.01 0.01 0.01 0.02 0.02 0.02 0.02 0.03 0.03 0.03
0.00 0.00 0.00 0.00 0.00 0.00 0.00 0.00 0.00 0.00 0.00 0.01 0.01 0.00 0.00 0.00 0.00 0.00 0.00 0.00 0.00 0.00 0.00 0.00 0.00 0.00 0.00 0.00 0.00 0.00 0.00 0.00 0.00 0.01 0.01 0.01 0.02 0.02 0.02 0.03 0.05 0.07 0.06 0.04
0.00 0.00 0.00 0.00 0.00 0.00 0.00 0.00 0.00 0.00 0.00 0.01 0.01 0.00 0.00 0.00 0.00 0.00 0.00 0.00 0.00 0.00 0.00 0.00 0.00 0.00 0.00 0.00 0.00 0.00 0.00 0.00 0.01 0.01 0.01 0.02 0.02 0.03 0.04 0.07 0.17 0.19 0.11 0.08
0.00 0.00 0.00 0.00 0.00 0.00 0.00 0.00 0.00 0.00 0.00 0.01 0.00 0.00 0.00 0.00 0.00 0.00 0.00 0.00 0.00 0.00 0.00 0.00 0.00 0.00 0.00 0.00 0.00 0.00 0.00 0.00 0.01 0.01 0.02 0.02 0.02 0.03 0.05 0.08 0.23 0.29 0.17 0.20
0.00 0.00 0.00 0.00 0.00 0.00 0.00 0.00 0.00 0.00 0.01 0.00 0.00 0.00 0.00 0.00 0.00 0.00 0.00 0.00 0.00 0.00 0.00 0.00 0.00 0.00 0.00 0.00 0.00 0.00 0.01 0.01 0.01 0.02 0.03 0.03 0.03 0.03 0.04 0.06 0.11 0.11 0.11 0.19
0.00 0.00 0.00 0.00 0.00 0.00 0.00 0.00 0.00 0.00 0.00 0.00 0.00 0.00 0.00 0.00 0.00 0.00 0.00 0.00 0.00 0.00 0.00 0.00 0.00 0.00 0.00 0.00 0.00 0.00 0.01 0.02 0.03 0.03 0.04 0.04 0.04 0.05 0.05 0.04 0.04 0.04 0.04 0.08
0.00 0.00 0.00 0.00 0.00 0.00 0.00 0.00 0.00 0.00 0.00 0.00 0.00 0.00 0.00 0.00 0.00 0.00 0.00 0.00 0.00 0.00 0.00 0.00 0.00 0.00 0.00 0.00 0.00 0.00 0.01 0.02 0.03 0.04 0.05 0.06 0.06 0.07 0.07 0.07 0.05 0.03 0.02 0.03
0.00 0.00 0.00 0.00 0.00 0.00 0.00 0.00 0.00 0.00 0.00 0.00 0.00 0.00 0.00 0.00 0.00 0.00 0.00 0.00 0.00 0.00 0.00 0.00 0.00 0.00 0.00 0.00 0.01 0.01 0.01 0.02 0.05 0.06 0.06 0.07 0.07 0.08 0.07 0.07 0.06 0.04 0.03 0.03
0.00 0.00 0.00 0.00 0.00 0.00 0.00 0.00 0.00 0.00 0.00 0.00 0.00 0.00 0.00 0.00 0.00 0.00 0.00 0.00 0.00 0.00 0.00 0.00 0.00 0.00 0.00 0.00 0.01 0.01 0.01 0.03 0.06 0.06 0.07 0.07 0.08 0.08 0.08 0.08 0.07 0.06 0.06 0.06
0.00 0.00 0.00 0.00 0.00 0.00 0.00 0.00 0.00 0.00 0.00 0.00 0.00 0.00 0.00 0.00 0.00 0.00 0.00 0.00 0.00 0.00 0.00 0.00 0.00 0.00 0.00 0.00 0.01 0.02 0.03 0.03 0.05 0.06 0.07 0.08 0.09 0.10 0.10 0.10 0.10 0.08 0.06 0.07
0.00 0.00 0.00 0.00 0.01 0.01 0.00 0.00 0.00 0.01 0.01 0.01 0.00 0.00 0.00 0.00 0.00 0.00 0.00 0.00 0.00 0.00 0.00 0.00 0.00 0.00 0.00 0.01 0.03 0.04 0.05 0.05 0.07 0.09 0.09 0.10 0.12 0.12 0.13 0.13 0.12 0.10 0.08 0.06
0.00 0.00 0.01 0.01 0.01 0.01 0.00 0.01 0.01 0.00 0.00 0.00 0.00 0.00 0.00 0.00 0.00 0.00 0.00 0.00 0.00 0.00 0.00 0.00 0.00 0.00 0.01 0.02 0.05 0.07 0.08 0.08 0.08 0.08 0.08 0.10 0.12 0.11 0.13 0.14 0.13 0.12 0.10 0.08
0.01 0.01 0.01 0.01 0.00 0.00 0.01 0.00 0.00 0.00 0.00 0.00 0.00 0.00 0.00 0.00 0.00 0.00 0.00 0.00 0.00 0.00 0.00 0.00 0.00 0.01 0.03 0.05 0.09 0.09 0.07 0.07 0.08 0.09 0.10 0.12 0.13 0.14 0.15 0.16 0.15 0.14 0.11 0.10
0.01 0.01 0.00 0.00 0.00 0.00 0.00 0.00 0.00 0.00 0.00 0.00 0.00 0.00 0.00 0.00 0.00 0.00 0.00 0.00 0.00 0.00 0.00 0.01 0.01 0.03 0.09 0.10 0.08 0.05 0.05 0.07 0.10 0.12 0.14 0.16 0.17 0.17 0.17 0.17 0.16 0.15 0.13 0.12
0.00 0.00 0.00 0.00 0.00 0.00 0.00 0.00 0.00 0.00 0.00 0.00 0.00 0.00 0.00 0.00 0.00 0.00 0.00 0.00 0.00 0.01 0.01 0.01 0.01 0.05 0.08 0.07 0.04 0.05 0.06 0.09 0.12 0.15 0.18 0.20 0.22 0.22 0.20 0.19 0.19 0.16 0.15 0.13
0.00 0.00 0.00 0.00 0.00 0.00 0.00 0.00 0.00 0.00 0.00 0.00 0.00 0.00 0.01 0.01 0.01 0.01 0.01 0.00 0.00 0.01 0.01 0.01 0.02 0.04 0.06 0.05 0.05 0.07 0.09 0.13 0.17 0.20 0.21 0.23 0.24 0.24 0.24 0.22 0.20 0.19 0.17 0.15
0.00 0.00 0.00 0.00 0.00 0.00 0.00 0.00 0.00 0.00 0.00 0.01 0.01 0.01 0.01 0.01 0.00 0.00 0.00 0.00 0.01 0.01 0.01 0.02 0.03 0.05 0.06 0.06 0.08 0.12 0.15 0.19 0.24 0.25 0.24 0.24 0.23 0.23 0.24 0.24 0.22 0.18 0.16 0.15
0.00 0.00 0.00 0.01 0.01 0.01 0.01 0.01 0.01 0.00 0.01 0.01 0.01 0.00 0.00 0.00 0.00 0.00 0.01 0.01 0.01 0.02 0.02 0.03 0.05 0.07 0.07 0.09 0.13 0.17 0.19 0.22 0.28 0.29 0.28 0.26 0.23 0.22 0.23 0.23 0.21 0.18 0.15 0.14
0.01 0.01 0.01 0.01 0.01 0.01 0.01 0.01 0.01 0.01 0.01 0.01 0.00 0.00 0.00 0.01 0.01 0.01 0.02 0.02 0.03 0.04 0.05 0.06 0.07 0.08 0.10 0.13 0.16 0.19 0.21 0.23 0.29 0.31 0.28 0.25 0.23 0.22 0.21 0.21 0.18 0.16 0.14 0.13
0.02 0.01 0.01 0.01 0.01 0.01 0.02 0.02 0.02 0.02 0.02 0.02 0.02 0.02 0.02 0.02 0.02 0.03 0.03 0.04 0.05 0.06 0.07 0.08 0.09 0.11 0.13 0.15 0.18 0.21 0.22 0.24 0.31 0.34 0.29 0.25 0.23 0.21 0.19 0.18 0.16 0.14 0.13 0.13

GEFSNGP_prec_meanprecacc_078.txt.gz
Total_Precipitation_Accumulation
0.00 0.00 0.00 0.00 0.00 0.00 0.00 0.00 0.00 0.00 0.00 0.00 0.00 0.00 0.00 0.00 0.00 0.00 0.00 0.00 0.00 0.00 0.01 0.01 0.00 0.00 0.00 0.00 0.00 0.00 0.00 0.00 0.00 0.00 0.01 0.01 0.02 0.05 0.08 0.16 0.26 0.34 0.39 0.40
0.00 0.00 0.00 0.00 0.00 0.00 0.00 0.00 0.00 0.00 0.00 0.00 0.00 0.00 0.00 0.00 0.00 0.00 0.00 0.00 0.00 0.00 0.01 0.01 0.00 0.00 0.00 0.00 0.00 0.00 0.00 0.00 0.00 0.00 0.01 0.01 0.02 0.06 0.08 0.11 0.19 0.29 0.35 0.33
0.00 0.00 0.00 0.00 0.00 0.00 0.00 0.00 0.00 0.00 0.00 0.00 0.00 0.00 0.00 0.00 0.01 0.01 0.01 0.01 0.01 0.01 0.01 0.01 0.00 0.00 0.00 0.00 0.00 0.00 0.00 0.00 0.00 0.00 0.01 0.01 0.02 0.03 0.07 0.10 0.12 0.17 0.19 0.17
0.00 0.00 0.00 0.00 0.00 0.00 0.00 0.00 0.00 0.00 0.00 0.00 0.00 0.00 0.00 0.01 0.02 0.02 0.02 0.01 0.01 0.01 0.01 0.00 0.00 0.00 0.00 0.00 0.00 0.00 0.00 0.00 0.00 0.00 0.01 0.01 0.01 0.02 0.04 0.07 0.10 0.12 0.11 0.07
0.00 0.00 0.00 0.00 0.00 0.00 0.00 0.00 0.00 0.00 0.00 0.00 0.00 0.00 0.01 0.03 0.02 0.01 0.01 0.01 0.01 0.01 0.00 0.00 0.00 0.00 0.00 0.00 0.00 0.00 0.00 0.00 0.00 0.00 0.00 0.01 0.01 0.02 0.02 0.04 0.08 0.10 0.09 0.05
0.00 0.00 0.00 0.00 0.00 0.00 0.00 0.00 0.00 0.00 0.00 0.00 0.00 0.03 0.03 0.03 0.01 0.00 0.00 0.00 0.00 0.00 0.00 0.00 0.00 0.00 0.00 0.00 0.00 0.00 0.00 0.00 0.00 0.00 0.00 0.01 0.01 0.01 0.01 0.02 0.04 0.05 0.06 0.04
0.00 0.00 0.00 0.00 0.00 0.00 0.00 0.00 0.00 0.00 0.00 0.00 0.01 0.05 0.04 0.01 0.00 0.00 0.00 0.00 0.00 0.00 0.00 0.00 0.00 0.00 0.00 0.00 0.00 0.00 0.00 0.00 0.00 0.00 0.01 0.01 0.01 0.01 0.02 0.02 0.02 0.02 0.02 0.02
0.00 0.00 0.00 0.00 0.00 0.00 0.00 0.00 0.00 0.00 0.00 0.00 0.01 0.01 0.01 0.00 0.00 0.00 0.00 0.00 0.00 0.00 0.00 0.00 0.00 0.00 0.00 0.00 0.00 0.00 0.00 0.00 0.00 0.00 0.01 0.01 0.01 0.02 0.02 0.02 0.02 0.03 0.03 0.03
0.00 0.00 0.00 0.00 0.00 0.00 0.00 0.00 0.00 0.00 0.00 0.01 0.01 0.00 0.00 0.00 0.00 0.00 0.00 0.00 0.00 0.00 0.00 0.00 0.00 0.00 0.00 0.00 0.00 0.00 0.00 0.00 0.00 0.01 0.01 0.01 0.02 0.02 0.02 0.03 0.05 0.07 0.06 0.04
0.00 0.00 0.00 0.00 0.00 0.00 0.00 0.00 0.00 0.00 0.00 0.01 0.01 0.00 0.00 0.00 0.00 0.00 0.00 0.00 0.00 0.00 0.00 0.00 0.00 0.00 0.00 0.00 0.00 0.00 0.00 0.00 0.01 0.01 0.01 0.02 0.02 0.03 0.04 0.07 0.17 0.19 0.12 0.08
0.00 0.00 0.00 0.00 0.00 0.00 0.00 0.00 0.00 0.00 0.00 0.01 0.00 0.00 0.00 0.00 0.00 0.00 0.00 0.00 0.00 0.00 0.00 0.00 0.00 0.00 0.00 0.00 0.00 0.00 0.00 0.00 0.01 0.01 0.02 0.02 0.02 0.03 0.05 0.08 0.23 0.30 0.19 0.21
0.00 0.00 0.00 0.00 0.00 0.00 0.00 0.00 0.00 0.00 0.01 0.00 0.00 0.00 0.00 0.00 0.00 0.00 0.00 0.00 0.00 0.00 0.00 0.00 0.00 0.00 0.00 0.00 0.00 0.00 0.01 0.01 0.01 0.02 0.03 0.03 0.03 0.03 0.04 0.06 0.11 0.12 0.12 0.20
0.00 0.00 0.00 0.00 0.00 0.00 0.00 0.00 0.00 0.00 0.00 0.00 0.00 0.00 0.00 0.00 0.00 0.00 0.00 0.00 0.00 0.00 0.00 0.00 0.00 0.00 0.00 0.00 0.00 0.00 0.01 0.02 0.03 0.03 0.04 0.04 0.04 0.06 0.06 0.04 0.04 0.04 0.05 0.09
0.00 0.00 0.00 0.00 0.00 0.00 0.00 0.00 0.00 0.00 0.00 0.00 0.00 0.00 0.00 0.00 0.00 0.00 0.00 0.00 0.00 0.00 0.00 0.00 0.00 0.00 0.00 0.00 0.00 0.00 0.01 0.02 0.03 0.04 0.05 0.07 0.07 0.08 0.09 0.08 0.06 0.03 0.02 0.04
0.00 0.00 0.00 0.00 0.00 0.00 0.00 0.00 0.00 0.00 0.00 0.00 0.00 0.00 0.00 0.00 0.00 0.00 0.00 0.00 0.00 0.00 0.00 0.00 0.00 0.00 0.00 0.00 0.01 0.01 0.01 0.02 0.05 0.06 0.06 0.07 0.08 0.09 0.09 0.09 0.08 0.05 0.04 0.03
0.00 0.00 0.00 0.00 0.00 0.00 0.00 0.00 0.00 0.00 0.00 0.00 0.00 0.00 0.00 0.00 0.00 0.00 0.00 0.00 0.00 0.00 0.00 0.00 0.00 0.00 0.00 0.00 0.01 0.01 0.01 0.03 0.06 0.07 0.07 0.08 0.09 0.10 0.10 0.10 0.09 0.08 0.07 0.07
0.00 0.00 0.00 0.00 0.00 0.00 0.00 0.00 0.00 0.00 0.00 0.00 0.00 0.00 0.00 0.00 0.00 0.00 0.00 0.00 0.00 0.00 0.00 0.00 0.00 0.00 0.00 0.00 0.01 0.02 0.03 0.04 0.05 0.07 0.08 0.09 0.11 0.12 0.13 0.13 0.12 0.10 0.08 0.08
0.00 0.00 0.00 0.00 0.01 0.01 0.00 0.00 0.00 0.01 0.01 0.01 0.00 0.00 0.00 0.00 0.00 0.00 0.00 0.00 0.00 0.00 0.00 0.00 0.00 0.00 0.00 0.01 0.03 0.04 0.05 0.06 0.08 0.10 0.11 0.12 0.14 0.15 0.16 0.16 0.15 0.14 0.10 0.08
0.00 0.00 0.01 0.01 0.01 0.01 0.00 0.01 0.01 0.00 0.00 0.00 0.00 0.00 0.00 0.00 0.00 0.00 0.00 0.00 0.00 0.00 0.00 0.00 0.00 0.00 0.01 0.02 0.05 0.07 0.09 0.09 0.10 0.09 0.10 0.12 0.14 0.13 0.16 0.18 0.17 0.15 0.13 0.11
0.01 0.01 0.01 0.01 0.00 0.00 0.01 0.00 0.00 0.00 0.00 0.00 0.00 0.00 0.00 0.00 0.00 0.00 0.00 0.00 0.00 0.00 0.00 0.00 0.00 0.01 0.03 0.06 0.09 0.10 0.08 0.09 0.10 0.11 0.12 0.14 0.16 0.17 0.18 0.19 0.19 0.17 0.14 0.12
0.01 0.01 0.00 0.00 0.00 0.00 0.00 0.00 0.00 0.00 0.00 0.00 0.00 0.00 0.00 0.00 0.00 0.00 0.00 0.00 0.00 0.00 0.00 0.01 0.01 0.04 0.09 0.10 0.09 0.06 0.06 0.10 0.13 0.15 0.17 0.19 0.20 0.20 0.20 0.19 0.19 0.17 0.16 0.14
0.00 0.00 0.00 0.00 0.00 0.00 0.00 0.00 0.00 0.00 0.00 0.00 0.00 0.00 0.00 0.00 0.00 0.00 0.00 0.00 0.00 0.01 0.01 0.01 0.01 0.05 0.09 0.08 0.05 0.06 0.08 0.12 0.15 0.19 0.22 0.24 0.26 0.26 0.23 0.22 0.22 0.19 0.17 0.16
0.00 0.00 0.00 0.00 0.00 0.00 0.00 0.00 0.00 0.00 0.00 0.00 0.00 0.00 0.01 0.01 0.01 0.01 0.01 0.00 0.00 0.01 0.01 0.01 0.02 0.05 0.07 0.06 0.06 0.08 0.11 0.15 0.20 0.23 0.25 0.26 0.27 0.28 0.28 0.26 0.24 0.22 0.21 0.19
0.00 0.00 0.00 0.00 0.00 0.00 0.00 0.00 0.00 0.00 0.00 0.01 0.01 0.01 0.01 0.01 0.00 0.00 0.00 0.00 0.01 0.01 0.01 0.02 0.03 0.05 0.07 0.07 0.09 0.13 0.18 0.22 0.27 0.28 0.27 0.27 0.27 0.27 0.28 0.28 0.26 0.22 0.20 0.19
0.00 0.00 0.00 0.01 0.01 0.01 0.01 0.01 0.01 0.00 0.01 0.01 0.01 0.00 0.00 0.00 0.00 0.00 0.01 0.01 0.01 0.02 0.02 0.03 0.05 0.07 0.08 0.10 0.14 0.19 0.22 0.24 0.31 0.33 0.32 0.30 0.27 0.26 0.26 0.27 0.25 0.22 0.19 0.17
0.01 0.01 0.01 0.01 0.01 0.01 0.01 0.01 0.01 0.01 0.01 0.01 0.00 0.00 0.00 0.01 0.01 0.01 0.02 0.02 0.03 0.04 0.05 0.06 0.07 0.09 0.11 0.14 0.17 0.21 0.23 0.25 0.31 0.34 0.31 0.29 0.26 0.25 0.24 0.24 0.21 0.19 0.16 0.15
0.02 0.01 0.01 0.01 0.01 0.01 0.02 0.02 0.02 0.02 0.02 0.02 0.02 0.02 0.02 0.02 0.02 0.03 0.03 0.04 0.05 0.06 0.07 0.08 0.09 0.12 0.14 0.17 0.20 0.23 0.24 0.26 0.33 0.37 0.33 0.28 0.26 0.24 0.22 0.21 0.18 0.16 0.15 0.15

GEFSNGP_prec_meanprecacc_084.txt.gz
Total_Precipitation_Accumulation
0.00 0.00 0.00 0.00 0.00 0.00 0.00 0.00 0.00 0.00 0.00 0.00 0.00 0.00 0.00 0.00 0.00 0.00 0.00 0.00 0.00 0.00 0.01 0.01 0.00 0.00 0.00 0.00 0.00 0.00 0.00 0.00 0.00 0.00 0.01 0.01 0.02 0.05 0.08 0.16 0.26 0.34 0.39 0.40
0.00 0.00 0.00 0.00 0.00 0.00 0.00 0.00 0.00 0.00 0.00 0.00 0.00 0.00 0.00 0.00 0.00 0.00 0.00 0.00 0.00 0.00 0.01 0.01 0.00 0.00 0.00 0.00 0.00 0.00 0.00 0.00 0.00 0.00 0.01 0.01 0.02 0.06 0.08 0.11 0.19 0.29 0.35 0.33
0.00 0.00 0.00 0.00 0.00 0.00 0.00 0.00 0.00 0.00 0.00 0.00 0.00 0.00 0.00 0.00 0.01 0.01 0.01 0.01 0.01 0.01 0.01 0.01 0.00 0.00 0.00 0.00 0.00 0.00 0.00 0.00 0.00 0.00 0.01 0.01 0.02 0.03 0.07 0.10 0.12 0.17 0.19 0.17
0.00 0.00 0.00 0.00 0.00 0.00 0.00 0.00 0.00 0.00 0.00 0.00 0.00 0.00 0.00 0.01 0.02 0.02 0.02 0.01 0.01 0.01 0.01 0.00 0.00 0.00 0.00 0.00 0.00 0.00 0.00 0.00 0.00 0.00 0.01 0.01 0.01 0.02 0.04 0.07 0.10 0.12 0.11 0.07
0.00 0.00 0.00 0.00 0.00 0.00 0.00 0.00 0.00 0.00 0.00 0.00 0.00 0.00 0.01 0.03 0.02 0.01 0.01 0.01 0.01 0.01 0.00 0.00 0.00 0.00 0.00 0.00 0.00 0.00 0.00 0.00 0.00 0.00 0.00 0.01 0.01 0.02 0.02 0.04 0.08 0.10 0.09 0.05
0.00 0.00 0.00 0.00 0.00 0.00 0.00 0.00 0.00 0.00 0.00 0.00 0.00 0.03 0.03 0.03 0.01 0.00 0.00 0.00 0.00 0.00 0.00 0.00 0.00 0.00 0.00 0.00 0.00 0.00 0.00 0.00 0.00 0.00 0.00 0.01 0.01 0.01 0.01 0.02 0.04 0.05 0.06 0.04
0.00 0.00 0.00 0.00 0.00 0.00 0.00 0.00 0.00 0.00 0.00 0.00 0.01 0.05 0.04 0.01 0.00 0.00 0.00 0.00 0.00 0.00 0.00 0.00 0.00 0.00 0.00 0.00 0.00 0.00 0.00 0.00 0.00 0.00 0.01 0.01 0.01 0.01 0.02 0.02 0.02 0.02 0.02 0.02
0.00 0.00 0.00 0.00 0.00 0.00 0.00 0.00 0.00 0.00 0.00 0.00 0.01 0.01 0.01 0.00 0.00 0.00 0.00 0.00 0.00 0.00 0.00 0.00 0.00 0.00 0.00 0.00 0.00 0.00 0.00 0.00 0.00 0.00 0.01 0.01 0.01 0.02 0.02 0.02 0.02 0.03 0.03 0.03
0.00 0.00 0.00 0.00 0.00 0.00 0.00 0.00 0.00 0.00 0.00 0.01 0.01 0.00 0.00 0.00 0.00 0.00 0.00 0.00 0.00 0.00 0.00 0.00 0.00 0.00 0.00 0.00 0.00 0.00 0.00 0.00 0.00 0.01 0.01 0.01 0.02 0.02 0.02 0.03 0.05 0.07 0.06 0.05
0.00 0.00 0.00 0.00 0.00 0.00 0.00 0.00 0.00 0.00 0.00 0.01 0.01 0.00 0.00 0.00 0.00 0.00 0.00 0.00 0.00 0.00 0.00 0.00 0.00 0.00 0.00 0.00 0.00 0.00 0.00 0.00 0.01 0.01 0.01 0.02 0.02 0.03 0.04 0.07 0.17 0.20 0.13 0.10
0.00 0.00 0.00 0.00 0.00 0.00 0.00 0.00 0.00 0.00 0.00 0.01 0.00 0.00 0.00 0.00 0.00 0.00 0.00 0.00 0.00 0.00 0.00 0.00 0.00 0.00 0.00 0.00 0.00 0.00 0.00 0.00 0.01 0.01 0.02 0.02 0.02 0.03 0.05 0.08 0.24 0.31 0.21 0.24
0.00 0.00 0.00 0.00 0.00 0.00 0.00 0.00 0.00 0.00 0.01 0.00 0.00 0.00 0.00 0.00 0.00 0.00 0.00 0.00 0.00 0.00 0.00 0.00 0.00 0.00 0.00 0.00 0.00 0.00 0.01 0.01 0.01 0.02 0.03 0.03 0.03 0.03 0.04 0.07 0.12 0.13 0.14 0.22
0.00 0.00 0.00 0.00 0.00 0.00 0.00 0.00 0.00 0.00 0.00 0.00 0.00 0.00 0.00 0.00 0.00 0.00 0.00 0.00 0.00 0.00 0.00 0.00 0.00 0.00 0.00 0.00 0.00 0.00 0.01 0.02 0.03 0.03 0.04 0.04 0.05 0.06 0.07 0.05 0.04 0.04 0.06 0.10
0.00 0.00 0.00 0.00 0.00 0.00 0.00 0.00 0.00 0.00 0.00 0.00 0.00 0.00 0.00 0.00 0.00 0.00 0.00 0.00 0.00 0.00 0.00 0.00 0.00 0.00 0.00 0.00 0.00 0.00 0.01 0.02 0.03 0.04 0.06 0.07 0.07 0.09 0.10 0.10 0.08 0.04 0.03 0.04
0.00 0.00 0.00 0.00 0.00 0.00 0.00 0.00 0.00 0.00 0.00 0.00 0.00 0.00 0.00 0.00 0.00 0.00 0.00 0.00 0.00 0.00 0.00 0.00 0.00 0.00 0.00 0.00 0.01 0.01 0.01 0.02 0.05 0.06 0.06 0.08 0.09 0.10 0.10 0.10 0.09 0.06 0.04 0.04
0.00 0.00 0.00 0.00 0.00 0.00 0.00 0.00 0.00 0.00 0.00 0.00 0.00 0.00 0.00 0.00 0.00 0.00 0.00 0.00 0.00 0.00 0.00 0.00 0.00 0.00 0.00 0.00 0.01 0.01 0.01 0.03 0.06 0.07 0.08 0.09 0.10 0.12 0.12 0.12 0.11 0.09 0.08 0.08
0.00 0.00 0.00 0.00 0.00 0.00 0.00 0.00 0.00 0.00 0.00 0.00 0.00 0.00 0.00 0.00 0.00 0.00 0.00 0.00 0.00 0.00 0.00 0.00 0.00 0.00 0.00 0.00 0.02 0.02 0.03 0.04 0.06 0.07 0.09 0.11 0.13 0.15 0.16 0.16 0.15 0.12 0.09 0.09
0.00 0.00 0.00 0.00 0.01 0.01 0.00 0.00 0.00 0.01 0.01 0.01 0.00 0.00 0.00 0.00 0.00 0.00 0.00 0.00 0.00 0.00 0.00 0.00 0.00 0.00 0.00 0.01 0.03 0.04 0.05 0.07 0.09 0.11 0.13 0.14 0.16 0.17 0.18 0.19 0.17 0.16 0.12 0.09
0.00 0.00 0.01 0.01 0.01 0.01 0.00 0.01 0.01 0.00 0.00 0.00 0.00 0.00 0.00 0.00 0.00 0.00 0.00 0.00 0.00 0.00 0.00 0.00 0.00 0.00 0.01 0.02 0.05 0.07 0.09 0.10 0.11 0.11 0.12 0.13 0.15 0.15 0.17 0.20 0.19 0.17 0.14 0.12
0.01 0.01 0.01 0.01 0.00 0.00 0.01 0.00 0.00 0.00 0.00 0.00 0.00 0.00 0.00 0.00 0.00 0.00 0.00 0.00 0.00 0.00 0.00 0.00 0.00 0.01 0.03 0.06 0.10 0.10 0.09 0.10 0.12 0.13 0.13 0.15 0.17 0.18 0.19 0.20 0.20 0.18 0.16 0.14
0.01 0.01 0.00 0.00 0.00 0.00 0.00 0.00 0.00 0.00 0.00 0.00 0.00 0.00 0.00 0.00 0.00 0.00 0.00 0.00 0.00 0.00 0.00 0.01 0.01 0.04 0.09 0.11 0.09 0.06 0.07 0.11 0.14 0.17 0.19 0.21 0.22 0.22 0.21 0.21 0.20 0.19 0.18 0.16
0.00 0.00 0.00 0.00 0.00 0.00 0.00 0.00 0.00 0.00 0.00 0.00 0.00 0.00 0.00 0.00 0.00 0.00 0.00 0.00 0.00 0.01 0.01 0.01 0.01 0.05 0.09 0.08 0.06 0.06 0.09 0.12 0.16 0.20 0.23 0.25 0.28 0.28 0.25 0.23 0.24 0.21 0.19 0.18
0.00 0.00 0.00 0.00 0.00 0.00 0.00 0.00 0.00 0.00 0.00 0.00 0.00 0.00 0.01 0.01 0.01 0.01 0.01 0.00 0.00 0.01 0.01 0.01 0.02 0.05 0.07 0.07 0.06 0.08 0.12 0.16 0.21 0.24 0.26 0.28 0.29 0.31 0.31 0.28 0.26 0.24 0.23 0.21
0.00 0.00 0.00 0.00 0.00 0.00 0.00 0.00 0.00 0.00 0.00 0.01 0.01 0.01 0.01 0.01 0.01 0.00 0.00 0.01 0.01 0.01 0.01 0.02 0.03 0.05 0.07 0.07 0.09 0.14 0.18 0.22 0.28 0.29 0.29 0.29 0.28 0.29 0.30 0.30 0.28 0.24 0.22 0.20
0.00 0.00 0.00 0.01 0.01 0.01 0.01 0.01 0.01 0.00 0.01 0.01 0.01 0.00 0.00 0.00 0.01 0.01 0.01 0.01 0.02 0.02 0.03 0.03 0.05 0.07 0.08 0.10 0.14 0.20 0.22 0.25 0.33 0.36 0.34 0.32 0.29 0.28 0.28 0.28 0.27 0.24 0.21 0.19
0.01 0.01 0.01 0.01 0.01 0.01 0.01 0.01 0.01 0.01 0.01 0.01 0.01 0.00 0.01 0.01 0.01 0.01 0.02 0.02 0.03 0.04 0.05 0.06 0.07 0.09 0.11 0.14 0.17 0.21 0.24 0.26 0.32 0.35 0.33 0.31 0.28 0.26 0.26 0.26 0.23 0.21 0.18 0.17
0.02 0.01 0.01 0.01 0.01 0.01 0.02 0.02 0.02 0.02 0.02 0.02 0.02 0.02 0.02 0.02 0.02 0.03 0.03 0.04 0.05 0.06 0.07 0.08 0.09 0.12 0.14 0.17 0.20 0.23 0.24 0.27 0.34 0.39 0.34 0.30 0.28 0.26 0.25 0.23 0.20 0.18 0.17 0.16

GEFSNGP_prec_meanprecacc_090.txt.gz
Total_Precipitation_Accumulation
0.00 0.00 0.00 0.00 0.00 0.00 0.00 0.00 0.00 0.00 0.00 0.00 0.00 0.00 0.00 0.00 0.00 0.00 0.00 0.00 0.00 0.00 0.01 0.01 0.00 0.00 0.00 0.00 0.00 0.00 0.00 0.00 0.00 0.00 0.01 0.01 0.02 0.05 0.08 0.16 0.26 0.34 0.39 0.40
0.00 0.00 0.00 0.00 0.00 0.00 0.00 0.00 0.00 0.00 0.00 0.00 0.00 0.00 0.00 0.00 0.00 0.00 0.00 0.00 0.00 0.00 0.01 0.01 0.00 0.00 0.00 0.00 0.00 0.00 0.00 0.00 0.00 0.00 0.01 0.01 0.02 0.06 0.08 0.11 0.19 0.29 0.35 0.33
0.00 0.00 0.00 0.00 0.00 0.00 0.00 0.00 0.00 0.00 0.00 0.00 0.00 0.00 0.00 0.00 0.01 0.01 0.01 0.01 0.01 0.01 0.01 0.01 0.00 0.00 0.00 0.00 0.00 0.00 0.00 0.00 0.00 0.00 0.01 0.01 0.02 0.03 0.07 0.10 0.12 0.17 0.19 0.17
0.00 0.00 0.00 0.00 0.00 0.00 0.00 0.00 0.00 0.00 0.00 0.00 0.00 0.00 0.00 0.01 0.02 0.02 0.02 0.01 0.01 0.01 0.01 0.00 0.00 0.00 0.00 0.00 0.00 0.00 0.00 0.00 0.00 0.00 0.01 0.01 0.01 0.02 0.04 0.07 0.10 0.12 0.11 0.07
0.00 0.00 0.00 0.00 0.00 0.00 0.00 0.00 0.00 0.00 0.00 0.00 0.00 0.00 0.01 0.03 0.02 0.01 0.01 0.01 0.01 0.01 0.00 0.00 0.00 0.00 0.00 0.00 0.00 0.00 0.00 0.00 0.00 0.00 0.00 0.01 0.01 0.02 0.02 0.04 0.08 0.10 0.09 0.05
0.00 0.00 0.00 0.00 0.00 0.00 0.00 0.00 0.00 0.00 0.00 0.00 0.00 0.03 0.03 0.03 0.01 0.00 0.00 0.00 0.00 0.00 0.00 0.00 0.00 0.00 0.00 0.00 0.00 0.00 0.00 0.00 0.00 0.00 0.00 0.01 0.01 0.01 0.01 0.02 0.04 0.05 0.06 0.04
0.00 0.00 0.00 0.00 0.00 0.00 0.00 0.00 0.00 0.00 0.00 0.00 0.01 0.05 0.04 0.01 0.00 0.00 0.00 0.00 0.00 0.00 0.00 0.00 0.00 0.00 0.00 0.00 0.00 0.00 0.00 0.00 0.00 0.00 0.01 0.01 0.01 0.01 0.02 0.02 0.02 0.02 0.02 0.02
0.00 0.01 0.00 0.00 0.00 0.00 0.00 0.00 0.00 0.00 0.00 0.00 0.01 0.01 0.01 0.00 0.00 0.00 0.00 0.00 0.00 0.00 0.00 0.00 0.00 0.00 0.00 0.00 0.00 0.00 0.00 0.00 0.00 0.00 0.01 0.01 0.01 0.02 0.02 0.02 0.02 0.03 0.03 0.03
0.00 0.00 0.00 0.00 0.00 0.00 0.00 0.00 0.00 0.00 0.00 0.01 0.01 0.00 0.00 0.00 0.00 0.00 0.00 0.00 0.00 0.00 0.00 0.00 0.00 0.00 0.00 0.00 0.00 0.00 0.00 0.00 0.00 0.01 0.01 0.01 0.02 0.02 0.02 0.03 0.05 0.07 0.06 0.05
0.00 0.00 0.00 0.00 0.00 0.00 0.00 0.00 0.00 0.00 0.00 0.01 0.01 0.00 0.00 0.00 0.00 0.00 0.00 0.00 0.00 0.00 0.00 0.00 0.00 0.00 0.00 0.00 0.00 0.00 0.00 0.00 0.01 0.01 0.01 0.02 0.02 0.03 0.04 0.07 0.17 0.20 0.14 0.11
0.00 0.00 0.00 0.00 0.00 0.00 0.00 0.00 0.00 0.00 0.00 0.01 0.00 0.00 0.00 0.00 0.00 0.00 0.00 0.00 0.00 0.00 0.00 0.00 0.00 0.00 0.00 0.00 0.00 0.00 0.00 0.00 0.01 0.01 0.02 0.02 0.02 0.03 0.05 0.08 0.24 0.32 0.22 0.26
0.00 0.00 0.00 0.00 0.00 0.00 0.00 0.00 0.00 0.00 0.01 0.00 0.00 0.00 0.00 0.00 0.00 0.00 0.00 0.00 0.00 0.00 0.00 0.00 0.00 0.00 0.00 0.00 0.00 0.00 0.01 0.01 0.01 0.02 0.03 0.03 0.03 0.03 0.04 0.07 0.12 0.13 0.14 0.24
0.00 0.00 0.00 0.00 0.00 0.00 0.00 0.00 0.00 0.00 0.00 0.00 0.00 0.00 0.00 0.00 0.00 0.00 0.00 0.00 0.00 0.00 0.00 0.00 0.00 0.00 0.00 0.00 0.00 0.00 0.01 0.02 0.03 0.03 0.04 0.04 0.05 0.07 0.07 0.05 0.04 0.05 0.06 0.11
0.00 0.00 0.00 0.00 0.00 0.00 0.00 0.00 0.00 0.00 0.00 0.00 0.00 0.00 0.00 0.00 0.00 0.00 0.00 0.00 0.00 0.00 0.00 0.00 0.00 0.00 0.00 0.00 0.00 0.00 0.01 0.02 0.03 0.04 0.06 0.07 0.08 0.09 0.11 0.11 0.09 0.04 0.03 0.04
0.00 0.00 0.00 0.00 0.00 0.00 0.00 0.00 0.00 0.00 0.00 0.00 0.00 0.00 0.00 0.00 0.00 0.00 0.00 0.00 0.00 0.00 0.00 0.00 0.00 0.00 0.00 0.00 0.01 0.01 0.01 0.02 0.05 0.06 0.07 0.08 0.09 0.11 0.11 0.11 0.10 0.07 0.04 0.04
0.00 0.00 0.00 0.00 0.00 0.00 0.00 0.00 0.00 0.00 0.00 0.00 0.00 0.00 0.00 0.00 0.00 0.00 0.00 0.00 0.00 0.00 0.00 0.00 0.00 0.00 0.00 0.00 0.01 0.01 0.01 0.03 0.06 0.07 0.08 0.09 0.10 0.12 0.13 0.13 0.12 0.10 0.09 0.08
0.00 0.00 0.00 0.00 0.00 0.00 0.00 0.00 0.00 0.00 0.00 0.00 0.00 0.00 0.00 0.00 0.00 0.00 0.00 0.00 0.00 0.00 0.00 0.00 0.00 0.00 0.00 0.00 0.02 0.02 0.03 0.04 0.06 0.08 0.09 0.11 0.14 0.16 0.17 0.18 0.16 0.13 0.10 0.10
0.00 0.00 0.00 0.00 0.01 0.01 0.00 0.00 0.00 0.01 0.01 0.01 0.00 0.00 0.00 0.00 0.00 0.00 0.00 0.00 0.00 0.00 0.00 0.00 0.00 0.00 0.00 0.01 0.03 0.04 0.06 0.07 0.09 0.12 0.13 0.14 0.17 0.18 0.20 0.20 0.19 0.17 0.12 0.09
0.00 0.00 0.01 0.01 0.01 0.01 0.00 0.01 0.01 0.00 0.00 0.00 0.00 0.00 0.00 0.00 0.00 0.00 0.00 0.00 0.00 0.00 0.00 0.00 0.00 0.00 0.01 0.02 0.06 0.08 0.09 0.11 0.12 0.11 0.12 0.14 0.16 0.15 0.18 0.21 0.20 0.18 0.15 0.13
0.01 0.01 0.01 0.01 0.00 0.00 0.01 0.00 0.00 0.00 0.00 0.00 0.00 0.00 0.00 0.00 0.00 0.00 0.00 0.00 0.00 0.00 0.00 0.00 0.00 0.01 0.03 0.06 0.10 0.11 0.10 0.11 0.13 0.13 0.14 0.16 0.18 0.18 0.19 0.21 0.21 0.19 0.17 0.15
0.01 0.01 0.00 0.00 0.00 0.00 0.00 0.00 0.00 0.00 0.00 0.00 0.00 0.00 0.00 0.00 0.00 0.00 0.00 0.00 0.00 0.00 0.00 0.01 0.01 0.04 0.09 0.11 0.10 0.07 0.08 0.12 0.15 0.17 0.19 0.21 0.22 0.22 0.21 0.21 0.21 0.20 0.19 0.17
0.00 0.00 0.00 0.00 0.00 0.00 0.00 0.00 0.00 0.00 0.00 0.00 0.00 0.00 0.00 0.00 0.00 0.00 0.00 0.00 0.00 0.01 0.01 0.01 0.01 0.06 0.09 0.09 0.07 0.07 0.09 0.13 0.17 0.20 0.24 0.26 0.29 0.29 0.26 0.24 0.25 0.22 0.20 0.19
0.00 0.00 0.00 0.00 0.00 0.00 0.00 0.00 0.00 0.00 0.00 0.00 0.00 0.00 0.01 0.01 0.01 0.01 0.01 0.01 0.01 0.01 0.01 0.01 0.02 0.05 0.08 0.08 0.07 0.09 0.12 0.16 0.21 0.25 0.27 0.29 0.30 0.32 0.32 0.30 0.27 0.25 0.24 0.22
0.00 0.00 0.00 0.00 0.00 0.00 0.00 0.00 0.00 0.00 0.00 0.01 0.01 0.01 0.01 0.01 0.01 0.00 0.00 0.01 0.01 0.02 0.02 0.02 0.03 0.06 0.08 0.08 0.09 0.14 0.18 0.22 0.28 0.30 0.30 0.30 0.29 0.30 0.32 0.32 0.30 0.25 0.23 0.22
0.00 0.00 0.00 0.01 0.01 0.01 0.01 0.01 0.01 0.00 0.01 0.01 0.01 0.00 0.00 0.00 0.01 0.01 0.01 0.01 0.02 0.03 0.03 0.03 0.05 0.07 0.08 0.10 0.14 0.20 0.23 0.26 0.33 0.36 0.35 0.33 0.30 0.29 0.29 0.30 0.29 0.26 0.23 0.20
0.01 0.01 0.01 0.01 0.01 0.01 0.01 0.01 0.01 0.01 0.01 0.01 0.01 0.00 0.01 0.01 0.01 0.01 0.02 0.02 0.03 0.05 0.05 0.06 0.07 0.09 0.11 0.14 0.17 0.21 0.24 0.26 0.33 0.35 0.33 0.31 0.29 0.28 0.27 0.27 0.25 0.23 0.20 0.18
0.02 0.01 0.01 0.01 0.01 0.01 0.02 0.02 0.03 0.03 0.02 0.02 0.03 0.02 0.02 0.02 0.02 0.03 0.04 0.04 0.05 0.06 0.07 0.08 0.09 0.12 0.14 0.17 0.20 0.23 0.25 0.27 0.35 0.39 0.35 0.31 0.29 0.28 0.26 0.25 0.22 0.20 0.18 0.18

GEFSNGP_prec_meanprecacc_096.txt.gz
Total_Precipitation_Accumulation
0.00 0.00 0.00 0.00 0.00 0.00 0.00 0.00 0.00 0.00 0.00 0.00 0.00 0.00 0.00 0.00 0.00 0.00 0.00 0.00 0.00 0.00 0.01 0.01 0.00 0.00 0.00 0.00 0.00 0.00 0.00 0.00 0.00 0.00 0.01 0.01 0.02 0.05 0.08 0.16 0.26 0.34 0.39 0.40
0.00 0.00 0.00 0.00 0.00 0.00 0.00 0.00 0.00 0.00 0.00 0.00 0.00 0.00 0.00 0.00 0.00 0.00 0.00 0.00 0.00 0.00 0.01 0.01 0.00 0.00 0.00 0.00 0.00 0.00 0.00 0.00 0.00 0.00 0.01 0.01 0.02 0.06 0.08 0.11 0.19 0.29 0.35 0.33
0.00 0.00 0.00 0.00 0.00 0.00 0.00 0.00 0.00 0.00 0.00 0.00 0.00 0.00 0.00 0.00 0.01 0.01 0.01 0.01 0.01 0.01 0.01 0.01 0.00 0.00 0.00 0.00 0.00 0.00 0.00 0.00 0.00 0.00 0.01 0.01 0.02 0.03 0.07 0.10 0.12 0.17 0.19 0.17
0.00 0.00 0.00 0.00 0.00 0.00 0.00 0.00 0.00 0.00 0.00 0.00 0.00 0.00 0.00 0.01 0.02 0.02 0.02 0.01 0.01 0.01 0.01 0.00 0.00 0.00 0.00 0.00 0.00 0.00 0.00 0.00 0.00 0.00 0.01 0.01 0.01 0.02 0.04 0.07 0.10 0.12 0.11 0.07
0.00 0.00 0.00 0.00 0.00 0.00 0.00 0.00 0.00 0.00 0.00 0.00 0.00 0.00 0.01 0.03 0.02 0.01 0.01 0.01 0.01 0.01 0.00 0.00 0.00 0.00 0.00 0.00 0.00 0.00 0.00 0.00 0.00 0.00 0.00 0.01 0.01 0.02 0.02 0.04 0.08 0.10 0.09 0.05
0.00 0.00 0.00 0.00 0.00 0.00 0.00 0.00 0.00 0.00 0.00 0.00 0.00 0.03 0.03 0.03 0.01 0.00 0.00 0.00 0.00 0.00 0.00 0.00 0.00 0.00 0.00 0.00 0.00 0.00 0.00 0.00 0.00 0.00 0.00 0.01 0.01 0.01 0.01 0.02 0.04 0.05 0.06 0.04
0.00 0.00 0.00 0.00 0.00 0.00 0.00 0.00 0.00 0.00 0.00 0.00 0.01 0.05 0.04 0.01 0.00 0.00 0.00 0.00 0.00 0.00 0.00 0.00 0.00 0.00 0.00 0.00 0.00 0.00 0.00 0.00 0.00 0.00 0.01 0.01 0.01 0.01 0.02 0.02 0.02 0.02 0.02 0.02
0.00 0.01 0.00 0.00 0.00 0.00 0.00 0.00 0.00 0.00 0.00 0.00 0.01 0.01 0.01 0.00 0.00 0.00 0.00 0.00 0.00 0.00 0.00 0.00 0.00 0.00 0.00 0.00 0.00 0.00 0.00 0.00 0.00 0.00 0.01 0.01 0.01 0.02 0.02 0.02 0.02 0.03 0.03 0.03
0.00 0.00 0.00 0.00 0.00 0.00 0.00 0.00 0.00 0.00 0.00 0.01 0.01 0.00 0.00 0.00 0.00 0.00 0.00 0.00 0.00 0.00 0.00 0.00 0.00 0.00 0.00 0.00 0.00 0.00 0.00 0.00 0.00 0.01 0.01 0.01 0.02 0.02 0.02 0.03 0.05 0.07 0.06 0.05
0.00 0.00 0.00 0.00 0.00 0.00 0.00 0.00 0.00 0.00 0.00 0.01 0.01 0.00 0.00 0.00 0.00 0.00 0.00 0.00 0.00 0.00 0.00 0.00 0.00 0.00 0.00 0.00 0.00 0.00 0.00 0.00 0.01 0.01 0.01 0.02 0.02 0.03 0.04 0.07 0.17 0.20 0.14 0.11
0.00 0.00 0.00 0.00 0.00 0.00 0.00 0.00 0.00 0.00 0.00 0.01 0.00 0.00 0.00 0.00 0.00 0.00 0.00 0.00 0.00 0.00 0.00 0.00 0.00 0.00 0.00 0.00 0.00 0.00 0.00 0.00 0.01 0.01 0.02 0.02 0.02 0.03 0.05 0.08 0.24 0.32 0.23 0.26
0.00 0.00 0.00 0.00 0.00 0.00 0.00 0.00 0.00 0.00 0.01 0.00 0.00 0.00 0.00 0.00 0.00 0.00 0.00 0.00 0.00 0.00 0.00 0.00 0.00 0.00 0.00 0.00 0.00 0.00 0.01 0.01 0.01 0.02 0.03 0.03 0.03 0.03 0.04 0.07 0.12 0.13 0.15 0.24
0.00 0.00 0.00 0.00 0.00 0.00 0.00 0.00 0.00 0.00 0.00 0.00 0.00 0.00 0.00 0.00 0.00 0.00 0.00 0.00 0.00 0.00 0.00 0.00 0.00 0.00 0.00 0.00 0.00 0.00 0.01 0.02 0.03 0.03 0.04 0.04 0.05 0.07 0.07 0.05 0.04 0.05 0.06 0.11
0.00 0.00 0.00 0.00 0.00 0.00 0.00 0.00 0.00 0.00 0.00 0.00 0.00 0.00 0.00 0.00 0.00 0.00 0.00 0.00 0.00 0.00 0.00 0.00 0.00 0.00 0.00 0.00 0.00 0.00 0.01 0.02 0.03 0.04 0.06 0.07 0.08 0.09 0.11 0.11 0.09 0.04 0.03 0.04
0.00 0.00 0.00 0.00 0.00 0.00 0.00 0.00 0.00 0.00 0.00 0.00 0.00 0.00 0.00 0.00 0.00 0.00 0.00 0.00 0.00 0.00 0.00 0.00 0.00 0.00 0.00 0.00 0.01 0.01 0.01 0.02 0.05 0.06 0.07 0.08 0.09 0.11 0.12 0.12 0.11 0.07 0.04 0.04
0.00 0.00 0.00 0.00 0.00 0.00 0.00 0.00 0.00 0.00 0.00 0.00 0.00 0.00 0.00 0.00 0.00 0.00 0.00 0.00 0.00 0.00 0.00 0.00 0.00 0.00 0.00 0.00 0.01 0.01 0.01 0.03 0.06 0.07 0.08 0.09 0.11 0.13 0.14 0.14 0.13 0.11 0.09 0.08
0.00 0.00 0.00 0.00 0.00 0.00 0.00 0.00 0.00 0.00 0.00 0.00 0.00 0.00 0.00 0.00 0.00 0.00 0.00 0.00 0.00 0.00 0.00 0.00 0.00 0.00 0.00 0.00 0.02 0.02 0.03 0.04 0.06 0.08 0.10 0.12 0.15 0.17 0.18 0.19 0.17 0.14 0.10 0.10
0.00 0.00 0.00 0.00 0.01 0.01 0.00 0.00 0.00 0.01 0.01 0.01 0.00 0.00 0.00 0.00 0.00 0.00 0.00 0.00 0.00 0.00 0.00 0.00 0.00 0.00 0.00 0.01 0.03 0.04 0.06 0.07 0.09 0.12 0.14 0.15 0.18 0.19 0.21 0.21 0.20 0.18 0.13 0.09
0.00 0.00 0.01 0.01 0.01 0.01 0.00 0.01 0.01 0.00 0.00 0.00 0.00 0.00 0.00 0.00 0.00 0.00 0.00 0.00 0.00 0.00 0.00 0.00 0.00 0.00 0.01 0.02 0.06 0.08 0.10 0.11 0.12 0.12 0.13 0.15 0.17 0.16 0.19 0.21 0.21 0.18 0.16 0.14
0.01 0.01 0.01 0.01 0.00 0.00 0.01 0.00 0.00 0.00 0.00 0.00 0.00 0.00 0.00 0.00 0.00 0.00 0.00 0.00 0.00 0.00 0.00 0.00 0.00 0.01 0.03 0.06 0.10 0.11 0.10 0.11 0.14 0.14 0.15 0.17 0.19 0.19 0.20 0.22 0.22 0.20 0.17 0.16
0.01 0.01 0.00 0.00 0.00 0.00 0.00 0.00 0.00 0.00 0.00 0.00 0.00 0.00 0.00 0.00 0.00 0.00 0.00 0.00 0.00 0.00 0.00 0.01 0.01 0.04 0.09 0.11 0.10 0.08 0.09 0.13 0.16 0.18 0.20 0.22 0.23 0.23 0.22 0.22 0.22 0.21 0.20 0.18
0.00 0.00 0.00 0.00 0.00 0.00 0.00 0.00 0.00 0.00 0.00 0.00 0.00 0.00 0.00 0.00 0.00 0.00 0.00 0.00 0.00 0.01 0.01 0.01 0.01 0.06 0.09 0.10 0.08 0.08 0.10 0.14 0.18 0.21 0.25 0.27 0.30 0.30 0.26 0.25 0.25 0.23 0.21 0.20
0.00 0.00 0.00 0.00 0.00 0.00 0.00 0.00 0.00 0.00 0.00 0.00 0.00 0.00 0.01 0.01 0.01 0.01 0.01 0.01 0.01 0.01 0.01 0.01 0.02 0.05 0.08 0.08 0.07 0.09 0.13 0.17 0.22 0.25 0.28 0.29 0.31 0.33 0.33 0.30 0.28 0.26 0.25 0.23
0.00 0.00 0.00 0.00 0.00 0.00 0.00 0.00 0.00 0.00 0.00 0.01 0.01 0.01 0.01 0.01 0.01 0.00 0.00 0.01 0.01 0.02 0.02 0.02 0.04 0.06 0.08 0.08 0.10 0.14 0.19 0.23 0.29 0.30 0.30 0.30 0.30 0.31 0.33 0.33 0.31 0.26 0.24 0.23
0.00 0.00 0.00 0.01 0.01 0.01 0.01 0.01 0.01 0.00 0.01 0.01 0.01 0.00 0.00 0.00 0.01 0.01 0.01 0.01 0.02 0.03 0.03 0.03 0.05 0.07 0.08 0.10 0.15 0.20 0.23 0.26 0.34 0.37 0.36 0.34 0.31 0.30 0.30 0.31 0.30 0.27 0.24 0.21
0.01 0.01 0.01 0.01 0.01 0.01 0.01 0.01 0.01 0.01 0.01 0.01 0.01 0.00 0.01 0.01 0.01 0.01 0.02 0.02 0.03 0.05 0.06 0.06 0.07 0.09 0.11 0.14 0.18 0.22 0.24 0.27 0.33 0.36 0.34 0.32 0.30 0.28 0.28 0.28 0.26 0.24 0.21 0.20
0.02 0.01 0.01 0.01 0.01 0.01 0.02 0.02 0.03 0.03 0.02 0.02 0.03 0.02 0.02 0.02 0.02 0.03 0.04 0.04 0.05 0.06 0.07 0.08 0.10 0.12 0.14 0.17 0.21 0.24 0.25 0.28 0.36 0.40 0.36 0.32 0.30 0.29 0.27 0.26 0.23 0.21 0.20 0.19

GEFSNGP_prec_meanprecacc_102.txt.gz
Total_Precipitation_Accumulation
0.00 0.00 0.00 0.00 0.00 0.00 0.00 0.00 0.00 0.00 0.00 0.00 0.00 0.00 0.00 0.00 0.00 0.00 0.00 0.00 0.00 0.00 0.01 0.01 0.00 0.00 0.00 0.00 0.00 0.00 0.00 0.00 0.00 0.00 0.01 0.01 0.02 0.05 0.08 0.16 0.26 0.34 0.39 0.40
0.00 0.00 0.00 0.00 0.00 0.00 0.00 0.00 0.00 0.00 0.00 0.00 0.00 0.00 0.00 0.00 0.00 0.00 0.00 0.00 0.00 0.00 0.01 0.01 0.00 0.00 0.00 0.00 0.00 0.00 0.00 0.00 0.00 0.00 0.01 0.01 0.02 0.06 0.08 0.11 0.19 0.29 0.35 0.33
0.00 0.00 0.00 0.00 0.00 0.00 0.00 0.00 0.00 0.00 0.00 0.00 0.00 0.00 0.00 0.00 0.01 0.01 0.01 0.01 0.01 0.01 0.01 0.01 0.00 0.00 0.00 0.00 0.00 0.00 0.00 0.00 0.00 0.00 0.01 0.01 0.02 0.03 0.07 0.10 0.12 0.17 0.19 0.17
0.00 0.00 0.00 0.00 0.00 0.00 0.00 0.00 0.00 0.00 0.00 0.00 0.00 0.00 0.00 0.01 0.02 0.02 0.02 0.01 0.01 0.01 0.01 0.00 0.00 0.00 0.00 0.00 0.00 0.00 0.00 0.00 0.00 0.00 0.01 0.01 0.01 0.02 0.04 0.07 0.10 0.12 0.11 0.07
0.00 0.00 0.00 0.00 0.00 0.00 0.00 0.00 0.00 0.00 0.00 0.00 0.00 0.00 0.01 0.03 0.02 0.01 0.01 0.01 0.01 0.01 0.00 0.00 0.00 0.00 0.00 0.00 0.00 0.00 0.00 0.00 0.00 0.00 0.00 0.01 0.01 0.02 0.02 0.04 0.08 0.10 0.09 0.05
0.00 0.00 0.00 0.00 0.00 0.00 0.00 0.00 0.00 0.00 0.00 0.00 0.00 0.03 0.03 0.03 0.01 0.00 0.00 0.00 0.00 0.00 0.00 0.00 0.00 0.00 0.00 0.00 0.00 0.00 0.00 0.00 0.00 0.00 0.00 0.01 0.01 0.01 0.01 0.02 0.04 0.05 0.06 0.04
0.00 0.00 0.00 0.00 0.00 0.00 0.00 0.00 0.00 0.00 0.00 0.00 0.01 0.05 0.04 0.01 0.00 0.00 0.00 0.00 0.00 0.00 0.00 0.00 0.00 0.00 0.00 0.00 0.00 0.00 0.00 0.00 0.00 0.00 0.01 0.01 0.01 0.01 0.02 0.02 0.02 0.02 0.02 0.02
0.00 0.01 0.00 0.00 0.00 0.00 0.00 0.00 0.00 0.00 0.00 0.00 0.01 0.01 0.01 0.00 0.00 0.00 0.00 0.00 0.00 0.00 0.00 0.00 0.00 0.00 0.00 0.00 0.00 0.00 0.00 0.00 0.00 0.00 0.01 0.01 0.01 0.02 0.02 0.02 0.02 0.03 0.03 0.03
0.00 0.00 0.00 0.00 0.00 0.00 0.00 0.00 0.00 0.00 0.00 0.01 0.01 0.00 0.00 0.00 0.00 0.00 0.00 0.00 0.00 0.00 0.00 0.00 0.00 0.00 0.00 0.00 0.00 0.00 0.00 0.00 0.00 0.01 0.01 0.01 0.02 0.02 0.02 0.03 0.05 0.07 0.06 0.05
0.00 0.00 0.00 0.00 0.00 0.00 0.00 0.00 0.00 0.00 0.00 0.01 0.01 0.00 0.00 0.00 0.00 0.00 0.00 0.00 0.00 0.00 0.00 0.00 0.00 0.00 0.00 0.00 0.00 0.00 0.00 0.00 0.01 0.01 0.01 0.02 0.02 0.03 0.04 0.07 0.17 0.20 0.14 0.11
0.00 0.00 0.00 0.00 0.00 0.00 0.00 0.00 0.00 0.00 0.00 0.01 0.00 0.00 0.00 0.00 0.00 0.00 0.00 0.00 0.00 0.00 0.00 0.00 0.00 0.00 0.00 0.00 0.00 0.00 0.00 0.00 0.01 0.01 0.02 0.02 0.02 0.03 0.05 0.08 0.24 0.32 0.23 0.27
0.00 0.00 0.00 0.00 0.00 0.00 0.00 0.00 0.00 0.00 0.01 0.00 0.00 0.00 0.00 0.00 0.00 0.00 0.00 0.00 0.00 0.00 0.00 0.00 0.00 0.00 0.00 0.00 0.00 0.00 0.01 0.01 0.01 0.02 0.03 0.03 0.03 0.03 0.04 0.07 0.12 0.13 0.15 0.24
0.00 0.00 0.00 0.00 0.00 0.00 0.00 0.00 0.00 0.00 0.00 0.00 0.00 0.00 0.00 0.00 0.00 0.00 0.00 0.00 0.00 0.00 0.00 0.00 0.00 0.00 0.00 0.00 0.00 0.00 0.01 0.02 0.03 0.03 0.04 0.04 0.05 0.07 0.07 0.05 0.04 0.05 0.06 0.11
0.00 0.00 0.00 0.00 0.00 0.00 0.00 0.00 0.00 0.00 0.00 0.00 0.00 0.00 0.00 0.00 0.00 0.00 0.00 0.00 0.00 0.00 0.00 0.00 0.00 0.00 0.00 0.00 0.00 0.00 0.01 0.02 0.03 0.04 0.06 0.07 0.08 0.09 0.11 0.12 0.09 0.05 0.03 0.04
0.00 0.00 0.00 0.00 0.00 0.00 0.00 0.00 0.00 0.00 0.00 0.00 0.00 0.00 0.00 0.00 0.00 0.00 0.00 0.00 0.00 0.00 0.00 0.00 0.00 0.00 0.00 0.00 0.01 0.01 0.01 0.02 0.05 0.06 0.07 0.08 0.09 0.11 0.12 0.12 0.11 0.07 0.05 0.04
0.00 0.00 0.00 0.00 0.00 0.00 0.00 0.00 0.00 0.00 0.00 0.00 0.00 0.00 0.00 0.00 0.00 0.00 0.00 0.00 0.00 0.00 0.00 0.00 0.00 0.00 0.00 0.00 0.01 0.01 0.01 0.03 0.06 0.07 0.08 0.09 0.11 0.13 0.14 0.14 0.13 0.11 0.10 0.09
0.00 0.00 0.00 0.00 0.00 0.00 0.00 0.00 0.00 0.00 0.00 0.00 0.00 0.00 0.00 0.00 0.00 0.00 0.00 0.00 0.00 0.00 0.00 0.00 0.00 0.00 0.00 0.00 0.02 0.02 0.03 0.04 0.06 0.08 0.10 0.12 0.15 0.17 0.18 0.19 0.18 0.15 0.11 0.10
0.00 0.00 0.00 0.00 0.01 0.01 0.00 0.00 0.00 0.01 0.01 0.01 0.00 0.00 0.00 0.00 0.00 0.00 0.00 0.00 0.00 0.00 0.00 0.00 0.00 0.00 0.00 0.01 0.03 0.04 0.06 0.07 0.09 0.12 0.14 0.15 0.18 0.20 0.21 0.22 0.21 0.18 0.13 0.10
0.00 0.01 0.01 0.01 0.01 0.01 0.00 0.01 0.01 0.00 0.00 0.00 0.00 0.00 0.00 0.00 0.00 0.00 0.00 0.00 0.00 0.00 0.00 0.00 0.00 0.00 0.01 0.02 0.06 0.08 0.10 0.11 0.12 0.12 0.13 0.15 0.17 0.17 0.20 0.22 0.22 0.19 0.17 0.15
0.01 0.01 0.01 0.01 0.00 0.00 0.01 0.00 0.00 0.00 0.00 0.00 0.00 0.00 0.00 0.00 0.00 0.00 0.00 0.00 0.00 0.00 0.00 0.00 0.00 0.01 0.03 0.06 0.10 0.11 0.10 0.12 0.14 0.15 0.15 0.17 0.20 0.20 0.21 0.23 0.23 0.21 0.18 0.17
0.01 0.01 0.00 0.00 0.00 0.00 0.00 0.00 0.00 0.00 0.00 0.00 0.00 0.00 0.00 0.00 0.00 0.00 0.00 0.00 0.00 0.00 0.00 0.01 0.01 0.04 0.09 0.11 0.10 0.08 0.09 0.13 0.17 0.19 0.21 0.23 0.24 0.24 0.23 0.23 0.23 0.22 0.20 0.19
0.00 0.00 0.00 0.00 0.00 0.00 0.00 0.00 0.00 0.00 0.00 0.00 0.00 0.00 0.00 0.00 0.00 0.00 0.00 0.00 0.00 0.01 0.01 0.01 0.01 0.06 0.10 0.10 0.08 0.08 0.10 0.14 0.18 0.22 0.25 0.28 0.31 0.31 0.28 0.26 0.26 0.24 0.22 0.20
0.00 0.00 0.00 0.00 0.00 0.00 0.00 0.00 0.00 0.00 0.00 0.00 0.00 0.00 0.01 0.01 0.01 0.01 0.01 0.01 0.01 0.01 0.01 0.01 0.02 0.06 0.08 0.08 0.08 0.10 0.13 0.17 0.22 0.26 0.28 0.31 0.32 0.34 0.34 0.31 0.28 0.27 0.26 0.24
0.00 0.00 0.00 0.00 0.00 0.00 0.00 0.00 0.00 0.00 0.00 0.01 0.01 0.01 0.01 0.01 0.01 0.00 0.00 0.01 0.01 0.02 0.02 0.02 0.04 0.06 0.08 0.08 0.10 0.14 0.19 0.23 0.29 0.31 0.31 0.31 0.31 0.32 0.34 0.34 0.32 0.27 0.25 0.24
0.00 0.01 0.01 0.01 0.01 0.01 0.01 0.01 0.01 0.00 0.01 0.01 0.01 0.00 0.00 0.00 0.01 0.01 0.01 0.01 0.02 0.03 0.03 0.03 0.05 0.08 0.08 0.10 0.15 0.20 0.23 0.26 0.34 0.38 0.38 0.36 0.33 0.31 0.31 0.32 0.31 0.28 0.25 0.22
0.01 0.01 0.01 0.01 0.01 0.01 0.01 0.01 0.01 0.01 0.01 0.01 0.01 0.00 0.01 0.01 0.01 0.01 0.02 0.02 0.03 0.05 0.06 0.06 0.07 0.09 0.11 0.14 0.18 0.22 0.24 0.27 0.34 0.37 0.35 0.33 0.31 0.29 0.29 0.29 0.27 0.25 0.22 0.20
0.02 0.02 0.01 0.01 0.01 0.01 0.02 0.02 0.03 0.03 0.02 0.02 0.03 0.02 0.02 0.02 0.02 0.03 0.04 0.04 0.05 0.06 0.07 0.08 0.10 0.12 0.14 0.17 0.21 0.24 0.25 0.28 0.36 0.40 0.36 0.33 0.31 0.29 0.28 0.27 0.24 0.22 0.20 0.20

GEFSNGP_prec_meanprecacc_108.txt.gz
Total_Precipitation_Accumulation
0.00 0.00 0.00 0.00 0.00 0.00 0.00 0.00 0.00 0.00 0.00 0.00 0.00 0.00 0.00 0.00 0.00 0.00 0.00 0.00 0.00 0.00 0.01 0.01 0.00 0.00 0.00 0.00 0.00 0.00 0.00 0.00 0.00 0.00 0.01 0.01 0.02 0.05 0.08 0.16 0.26 0.34 0.39 0.40
0.00 0.00 0.00 0.00 0.00 0.00 0.00 0.00 0.00 0.00 0.00 0.00 0.00 0.00 0.00 0.00 0.00 0.00 0.00 0.00 0.00 0.00 0.01 0.01 0.00 0.00 0.00 0.00 0.00 0.00 0.00 0.00 0.00 0.00 0.01 0.01 0.02 0.06 0.08 0.11 0.19 0.29 0.35 0.33
0.00 0.00 0.00 0.00 0.00 0.00 0.00 0.00 0.00 0.00 0.00 0.00 0.00 0.00 0.00 0.00 0.01 0.01 0.01 0.01 0.01 0.01 0.01 0.01 0.00 0.00 0.00 0.00 0.00 0.00 0.00 0.00 0.00 0.00 0.01 0.01 0.02 0.03 0.07 0.10 0.12 0.17 0.19 0.17
0.00 0.00 0.01 0.00 0.00 0.00 0.00 0.00 0.00 0.00 0.00 0.00 0.00 0.00 0.00 0.01 0.02 0.02 0.02 0.01 0.01 0.01 0.01 0.00 0.00 0.00 0.00 0.00 0.00 0.00 0.00 0.00 0.00 0.00 0.01 0.01 0.01 0.02 0.04 0.07 0.10 0.12 0.11 0.07
0.01 0.01 0.00 0.00 0.00 0.00 0.00 0.00 0.00 0.00 0.00 0.00 0.00 0.00 0.01 0.03 0.02 0.01 0.01 0.01 0.01 0.01 0.00 0.00 0.00 0.00 0.00 0.00 0.00 0.00 0.00 0.00 0.00 0.00 0.00 0.01 0.01 0.02 0.02 0.04 0.08 0.10 0.09 0.05
0.02 0.01 0.00 0.00 0.00 0.00 0.00 0.00 0.00 0.00 0.00 0.00 0.00 0.03 0.03 0.03 0.01 0.00 0.00 0.00 0.00 0.00 0.00 0.00 0.00 0.00 0.00 0.00 0.00 0.00 0.00 0.00 0.00 0.00 0.00 0.01 0.01 0.01 0.01 0.02 0.04 0.05 0.06 0.04
0.02 0.01 0.00 0.00 0.00 0.00 0.00 0.00 0.00 0.00 0.00 0.00 0.01 0.05 0.04 0.01 0.00 0.00 0.00 0.00 0.00 0.00 0.00 0.00 0.00 0.00 0.00 0.00 0.00 0.00 0.00 0.00 0.00 0.00 0.01 0.01 0.01 0.01 0.02 0.02 0.02 0.02 0.02 0.02
0.01 0.01 0.00 0.00 0.00 0.00 0.00 0.00 0.00 0.00 0.00 0.00 0.01 0.01 0.01 0.00 0.00 0.00 0.00 0.00 0.00 0.00 0.00 0.00 0.00 0.00 0.00 0.00 0.00 0.00 0.00 0.00 0.00 0.00 0.01 0.01 0.01 0.02 0.02 0.02 0.02 0.03 0.03 0.03
0.00 0.00 0.00 0.00 0.00 0.00 0.00 0.00 0.00 0.00 0.00 0.01 0.01 0.00 0.00 0.00 0.00 0.00 0.00 0.00 0.00 0.00 0.00 0.00 0.00 0.00 0.00 0.00 0.00 0.00 0.00 0.00 0.00 0.01 0.01 0.01 0.02 0.02 0.02 0.03 0.05 0.07 0.06 0.05
0.00 0.00 0.00 0.00 0.00 0.00 0.00 0.00 0.00 0.00 0.00 0.01 0.01 0.00 0.00 0.00 0.00 0.00 0.00 0.00 0.00 0.00 0.00 0.00 0.00 0.00 0.00 0.00 0.00 0.00 0.00 0.00 0.01 0.01 0.01 0.02 0.02 0.03 0.04 0.07 0.17 0.20 0.14 0.11
0.00 0.00 0.00 0.00 0.00 0.00 0.00 0.00 0.00 0.00 0.00 0.01 0.00 0.00 0.00 0.00 0.00 0.00 0.00 0.00 0.00 0.00 0.00 0.00 0.00 0.00 0.00 0.00 0.00 0.00 0.00 0.00 0.01 0.01 0.02 0.02 0.02 0.03 0.05 0.08 0.24 0.32 0.23 0.27
0.00 0.00 0.00 0.00 0.00 0.00 0.00 0.00 0.00 0.00 0.01 0.00 0.00 0.00 0.00 0.00 0.00 0.00 0.00 0.00 0.00 0.00 0.00 0.00 0.00 0.00 0.00 0.00 0.00 0.00 0.01 0.01 0.01 0.02 0.03 0.03 0.03 0.03 0.04 0.07 0.12 0.14 0.15 0.24
0.00 0.00 0.00 0.00 0.00 0.00 0.00 0.00 0.00 0.00 0.00 0.00 0.00 0.00 0.00 0.00 0.00 0.00 0.00 0.00 0.00 0.00 0.00 0.00 0.00 0.00 0.00 0.00 0.00 0.00 0.01 0.02 0.03 0.03 0.04 0.04 0.05 0.07 0.07 0.05 0.04 0.05 0.06 0.11
0.00 0.00 0.00 0.00 0.00 0.00 0.00 0.00 0.00 0.00 0.00 0.00 0.00 0.00 0.00 0.00 0.00 0.00 0.00 0.00 0.00 0.00 0.00 0.00 0.00 0.00 0.00 0.00 0.00 0.00 0.01 0.02 0.03 0.04 0.06 0.07 0.08 0.09 0.11 0.12 0.09 0.05 0.03 0.04
0.00 0.00 0.00 0.00 0.00 0.00 0.00 0.00 0.00 0.00 0.00 0.00 0.00 0.00 0.00 0.00 0.00 0.00 0.00 0.00 0.00 0.00 0.00 0.00 0.00 0.00 0.00 0.00 0.01 0.01 0.01 0.02 0.05 0.06 0.07 0.08 0.09 0.11 0.12 0.12 0.11 0.07 0.05 0.04
0.00 0.00 0.00 0.00 0.00 0.00 0.00 0.00 0.00 0.00 0.00 0.00 0.00 0.00 0.00 0.00 0.00 0.00 0.00 0.00 0.00 0.00 0.00 0.00 0.00 0.00 0.00 0.00 0.01 0.01 0.01 0.03 0.06 0.07 0.08 0.09 0.11 0.13 0.14 0.14 0.13 0.11 0.10 0.09
0.00 0.00 0.00 0.00 0.00 0.00 0.00 0.00 0.00 0.00 0.00 0.00 0.00 0.00 0.00 0.00 0.00 0.00 0.00 0.00 0.00 0.00 0.00 0.00 0.00 0.00 0.00 0.00 0.02 0.02 0.03 0.04 0.06 0.08 0.10 0.12 0.15 0.17 0.18 0.19 0.19 0.15 0.11 0.10
0.00 0.00 0.00 0.00 0.01 0.01 0.00 0.00 0.00 0.01 0.01 0.01 0.00 0.00 0.00 0.00 0.00 0.00 0.00 0.00 0.00 0.00 0.00 0.00 0.00 0.00 0.00 0.01 0.03 0.04 0.06 0.07 0.09 0.12 0.14 0.15 0.18 0.20 0.22 0.23 0.21 0.19 0.14 0.10
0.00 0.01 0.01 0.01 0.01 0.01 0.01 0.01 0.01 0.01 0.00 0.00 0.00 0.00 0.00 0.00 0.00 0.00 0.00 0.00 0.00 0.00 0.00 0.00 0.00 0.00 0.01 0.02 0.06 0.08 0.10 0.11 0.12 0.12 0.13 0.15 0.17 0.17 0.20 0.22 0.22 0.20 0.17 0.15
0.01 0.01 0.01 0.01 0.00 0.00 0.01 0.00 0.00 0.00 0.00 0.00 0.00 0.00 0.00 0.00 0.00 0.00 0.00 0.00 0.00 0.00 0.00 0.00 0.00 0.01 0.03 0.06 0.10 0.11 0.10 0.12 0.14 0.15 0.15 0.18 0.20 0.20 0.21 0.23 0.23 0.21 0.19 0.18
0.01 0.01 0.00 0.00 0.00 0.00 0.00 0.00 0.00 0.00 0.00 0.00 0.00 0.00 0.00 0.00 0.00 0.00 0.00 0.00 0.00 0.00 0.00 0.01 0.01 0.04 0.09 0.11 0.10 0.08 0.09 0.13 0.17 0.19 0.21 0.23 0.25 0.24 0.23 0.23 0.23 0.22 0.21 0.19
0.00 0.00 0.00 0.00 0.00 0.00 0.00 0.00 0.00 0.00 0.00 0.00 0.00 0.00 0.00 0.00 0.00 0.00 0.00 0.00 0.01 0.01 0.01 0.01 0.01 0.06 0.10 0.10 0.08 0.08 0.10 0.14 0.18 0.22 0.25 0.28 0.31 0.32 0.28 0.26 0.27 0.24 0.22 0.21
0.00 0.00 0.00 0.00 0.00 0.00 0.00 0.00 0.00 0.00 0.00 0.00 0.00 0.01 0.01 0.01 0.01 0.01 0.01 0.01 0.01 0.01 0.01 0.01 0.02 0.06 0.08 0.08 0.08 0.10 0.13 0.17 0.22 0.26 0.29 0.31 0.33 0.35 0.35 0.32 0.29 0.27 0.26 0.24
0.01 0.01 0.01 0.01 0.01 0.01 0.01 0.01 0.01 0.01 0.01 0.01 0.01 0.01 0.01 0.01 0.01 0.01 0.01 0.01 0.01 0.02 0.02 0.02 0.04 0.06 0.08 0.08 0.10 0.14 0.19 0.23 0.29 0.31 0.31 0.32 0.32 0.33 0.35 0.35 0.33 0.28 0.26 0.24
0.01 0.01 0.01 0.01 0.01 0.01 0.01 0.01 0.01 0.01 0.01 0.01 0.01 0.01 0.00 0.01 0.01 0.01 0.01 0.01 0.02 0.03 0.03 0.03 0.05 0.08 0.08 0.10 0.15 0.20 0.23 0.26 0.35 0.39 0.39 0.37 0.33 0.32 0.32 0.32 0.32 0.29 0.25 0.23
0.01 0.01 0.01 0.01 0.01 0.02 0.01 0.01 0.01 0.01 0.01 0.01 0.01 0.00 0.01 0.01 0.01 0.01 0.02 0.02 0.03 0.05 0.06 0.06 0.07 0.09 0.11 0.14 0.18 0.22 0.25 0.27 0.34 0.37 0.35 0.33 0.31 0.30 0.29 0.29 0.27 0.25 0.22 0.21
0.02 0.02 0.01 0.01 0.01 0.01 0.02 0.02 0.03 0.03 0.02 0.02 0.03 0.02 0.02 0.02 0.02 0.03 0.04 0.04 0.05 0.06 0.07 0.08 0.10 0.12 0.15 0.17 0.21 0.24 0.26 0.29 0.36 0.41 0.37 0.33 0.31 0.30 0.28 0.27 0.25 0.22 0.21 0.21

GEFSNGP_prec_meanprecacc_114.txt.gz
Total_Precipitation_Accumulation
0.00 0.00 0.00 0.00 0.00 0.00 0.00 0.00 0.00 0.00 0.00 0.00 0.00 0.00 0.00 0.00 0.00 0.00 0.00 0.00 0.00 0.00 0.01 0.01 0.00 0.00 0.00 0.00 0.00 0.00 0.00 0.00 0.00 0.00 0.01 0.01 0.02 0.05 0.08 0.16 0.26 0.34 0.39 0.40
0.00 0.00 0.00 0.00 0.00 0.00 0.00 0.00 0.00 0.00 0.00 0.00 0.00 0.00 0.00 0.00 0.00 0.00 0.00 0.00 0.00 0.00 0.01 0.01 0.00 0.00 0.00 0.00 0.00 0.00 0.00 0.00 0.00 0.00 0.01 0.01 0.02 0.06 0.08 0.11 0.19 0.29 0.35 0.33
0.01 0.00 0.01 0.01 0.00 0.00 0.00 0.00 0.00 0.00 0.00 0.00 0.00 0.00 0.00 0.00 0.01 0.01 0.01 0.01 0.01 0.01 0.01 0.01 0.00 0.00 0.00 0.00 0.00 0.00 0.00 0.00 0.00 0.00 0.01 0.01 0.02 0.03 0.07 0.10 0.12 0.17 0.19 0.17
0.01 0.02 0.04 0.01 0.00 0.00 0.00 0.00 0.00 0.00 0.00 0.00 0.00 0.00 0.00 0.01 0.02 0.02 0.02 0.01 0.01 0.01 0.01 0.00 0.00 0.00 0.00 0.00 0.00 0.00 0.00 0.00 0.00 0.00 0.01 0.01 0.01 0.02 0.04 0.07 0.10 0.12 0.11 0.07
0.05 0.04 0.02 0.00 0.00 0.00 0.00 0.00 0.00 0.00 0.00 0.00 0.00 0.00 0.01 0.03 0.02 0.01 0.01 0.01 0.01 0.01 0.00 0.00 0.00 0.00 0.00 0.00 0.00 0.00 0.00 0.00 0.00 0.00 0.00 0.01 0.01 0.02 0.02 0.04 0.08 0.10 0.09 0.05
0.09 0.05 0.01 0.00 0.00 0.00 0.00 0.00 0.00 0.00 0.00 0.00 0.00 0.03 0.03 0.03 0.01 0.00 0.00 0.00 0.00 0.00 0.00 0.00 0.00 0.00 0.00 0.00 0.00 0.00 0.00 0.00 0.00 0.00 0.00 0.01 0.01 0.02 0.02 0.02 0.04 0.05 0.06 0.04
0.10 0.04 0.00 0.00 0.00 0.00 0.00 0.00 0.00 0.00 0.00 0.00 0.01 0.05 0.04 0.01 0.00 0.00 0.00 0.00 0.00 0.00 0.00 0.00 0.00 0.00 0.00 0.00 0.00 0.00 0.00 0.00 0.00 0.00 0.01 0.01 0.02 0.02 0.02 0.02 0.02 0.02 0.02 0.02
0.06 0.04 0.01 0.00 0.00 0.00 0.00 0.00 0.00 0.00 0.00 0.00 0.01 0.01 0.01 0.00 0.00 0.00 0.00 0.00 0.00 0.00 0.00 0.00 0.00 0.00 0.00 0.00 0.00 0.00 0.00 0.00 0.00 0.00 0.01 0.01 0.02 0.02 0.02 0.02 0.02 0.03 0.03 0.03
0.03 0.01 0.00 0.00 0.00 0.00 0.00 0.00 0.00 0.00 0.00 0.01 0.01 0.00 0.00 0.00 0.00 0.00 0.00 0.00 0.00 0.00 0.00 0.00 0.00 0.00 0.00 0.00 0.00 0.00 0.00 0.00 0.00 0.01 0.01 0.02 0.02 0.02 0.02 0.03 0.05 0.07 0.06 0.05
0.01 0.01 0.00 0.00 0.00 0.00 0.00 0.00 0.00 0.00 0.00 0.01 0.01 0.00 0.00 0.00 0.00 0.00 0.00 0.00 0.00 0.00 0.00 0.00 0.00 0.00 0.00 0.00 0.00 0.00 0.00 0.00 0.01 0.01 0.01 0.02 0.02 0.03 0.04 0.07 0.18 0.20 0.14 0.11
0.02 0.01 0.00 0.00 0.00 0.00 0.00 0.00 0.00 0.00 0.00 0.01 0.00 0.00 0.00 0.00 0.00 0.00 0.00 0.00 0.00 0.00 0.00 0.00 0.00 0.00 0.00 0.00 0.00 0.00 0.00 0.00 0.01 0.01 0.02 0.02 0.02 0.03 0.05 0.08 0.24 0.32 0.23 0.27
0.02 0.01 0.01 0.00 0.00 0.00 0.00 0.00 0.00 0.00 0.01 0.00 0.00 0.00 0.00 0.00 0.00 0.00 0.00 0.00 0.00 0.00 0.00 0.00 0.00 0.00 0.00 0.00 0.00 0.00 0.01 0.01 0.01 0.02 0.03 0.03 0.03 0.03 0.04 0.07 0.12 0.14 0.15 0.24
0.01 0.00 0.00 0.00 0.00 0.00 0.00 0.00 0.00 0.00 0.00 0.00 0.00 0.00 0.00 0.00 0.00 0.00 0.00 0.00 0.00 0.00 0.00 0.00 0.00 0.00 0.00 0.00 0.00 0.00 0.01 0.02 0.03 0.03 0.04 0.04 0.05 0.07 0.07 0.05 0.04 0.05 0.06 0.11
0.01 0.01 0.01 0.01 0.00 0.00 0.00 0.00 0.00 0.00 0.00 0.00 0.00 0.00 0.00 0.00 0.00 0.00 0.00 0.00 0.00 0.00 0.00 0.00 0.00 0.00 0.00 0.00 0.00 0.00 0.01 0.02 0.03 0.04 0.06 0.07 0.08 0.09 0.11 0.12 0.09 0.05 0.03 0.04
0.01 0.01 0.01 0.00 0.00 0.00 0.00 0.00 0.00 0.00 0.00 0.00 0.00 0.00 0.00 0.00 0.00 0.00 0.00 0.00 0.00 0.00 0.00 0.00 0.00 0.00 0.00 0.00 0.01 0.01 0.01 0.02 0.05 0.06 0.07 0.08 0.09 0.11 0.12 0.12 0.11 0.07 0.05 0.04
0.01 0.00 0.00 0.00 0.00 0.00 0.00 0.00 0.00 0.00 0.00 0.00 0.00 0.00 0.00 0.00 0.00 0.00 0.00 0.00 0.00 0.00 0.00 0.00 0.00 0.00 0.00 0.00 0.01 0.01 0.01 0.03 0.06 0.07 0.08 0.09 0.11 0.13 0.14 0.14 0.13 0.11 0.10 0.09
0.01 0.01 0.00 0.00 0.00 0.00 0.00 0.00 0.00 0.00 0.00 0.00 0.00 0.00 0.00 0.00 0.00 0.00 0.00 0.00 0.00 0.00 0.00 0.00 0.00 0.00 0.00 0.00 0.02 0.02 0.03 0.04 0.06 0.08 0.10 0.12 0.15 0.17 0.18 0.20 0.19 0.16 0.11 0.10
0.01 0.01 0.01 0.01 0.01 0.01 0.01 0.00 0.00 0.01 0.01 0.01 0.00 0.00 0.00 0.00 0.00 0.00 0.00 0.00 0.00 0.00 0.00 0.00 0.00 0.00 0.00 0.01 0.03 0.04 0.06 0.07 0.09 0.13 0.14 0.15 0.19 0.20 0.22 0.23 0.21 0.19 0.14 0.10
0.01 0.01 0.01 0.01 0.01 0.01 0.01 0.01 0.01 0.01 0.00 0.00 0.00 0.00 0.00 0.00 0.00 0.00 0.00 0.00 0.00 0.00 0.00 0.00 0.00 0.00 0.01 0.02 0.06 0.08 0.10 0.11 0.12 0.12 0.13 0.15 0.17 0.17 0.20 0.23 0.22 0.20 0.17 0.15
0.01 0.01 0.01 0.01 0.01 0.01 0.01 0.01 0.00 0.00 0.00 0.00 0.00 0.00 0.00 0.00 0.00 0.00 0.00 0.00 0.00 0.00 0.00 0.00 0.00 0.01 0.03 0.06 0.10 0.11 0.10 0.12 0.14 0.15 0.15 0.18 0.20 0.20 0.21 0.23 0.24 0.22 0.19 0.18
0.01 0.01 0.01 0.00 0.00 0.00 0.00 0.00 0.00 0.00 0.00 0.00 0.00 0.00 0.00 0.00 0.00 0.00 0.00 0.00 0.00 0.00 0.00 0.01 0.01 0.04 0.09 0.11 0.10 0.08 0.09 0.13 0.17 0.19 0.21 0.23 0.25 0.24 0.23 0.24 0.24 0.23 0.21 0.20
0.01 0.01 0.00 0.00 0.00 0.00 0.00 0.00 0.00 0.00 0.00 0.00 0.00 0.00 0.00 0.00 0.00 0.00 0.00 0.00 0.01 0.01 0.01 0.01 0.01 0.06 0.10 0.10 0.08 0.08 0.10 0.14 0.18 0.22 0.26 0.28 0.32 0.32 0.28 0.26 0.27 0.24 0.22 0.21
0.01 0.01 0.01 0.01 0.01 0.01 0.01 0.01 0.01 0.01 0.01 0.01 0.01 0.01 0.01 0.01 0.01 0.01 0.01 0.01 0.01 0.01 0.01 0.01 0.02 0.06 0.09 0.08 0.08 0.10 0.13 0.17 0.22 0.26 0.29 0.31 0.33 0.35 0.35 0.32 0.30 0.28 0.27 0.25
0.03 0.03 0.03 0.03 0.03 0.03 0.03 0.03 0.02 0.02 0.01 0.01 0.01 0.01 0.01 0.01 0.01 0.01 0.01 0.01 0.01 0.02 0.02 0.02 0.04 0.06 0.09 0.08 0.10 0.15 0.19 0.23 0.29 0.31 0.32 0.32 0.32 0.34 0.35 0.35 0.33 0.28 0.26 0.25
0.04 0.04 0.04 0.04 0.04 0.04 0.03 0.03 0.02 0.02 0.02 0.02 0.02 0.01 0.01 0.01 0.01 0.01 0.02 0.02 0.02 0.03 0.03 0.04 0.06 0.08 0.09 0.10 0.15 0.21 0.24 0.27 0.35 0.39 0.39 0.37 0.34 0.33 0.32 0.33 0.32 0.29 0.26 0.23
0.04 0.04 0.04 0.03 0.03 0.03 0.03 0.02 0.02 0.02 0.02 0.02 0.01 0.01 0.01 0.01 0.01 0.02 0.02 0.03 0.03 0.05 0.06 0.06 0.07 0.09 0.11 0.14 0.18 0.22 0.25 0.27 0.34 0.37 0.36 0.34 0.31 0.30 0.30 0.30 0.28 0.26 0.23 0.21
0.04 0.03 0.03 0.02 0.02 0.02 0.02 0.03 0.03 0.03 0.02 0.03 0.03 0.02 0.02 0.03 0.03 0.03 0.04 0.05 0.06 0.06 0.07 0.08 0.10 0.12 0.15 0.17 0.21 0.24 0.26 0.29 0.36 0.41 0.37 0.34 0.32 0.30 0.29 0.28 0.25 0.23 0.22 0.21

GEFSNGP_prec_meanprecacc_120.txt.gz
Total_Precipitation_Accumulation
0.01 0.00 0.00 0.01 0.01 0.00 0.00 0.01 0.00 0.00 0.00 0.00 0.00 0.00 0.00 0.00 0.00 0.00 0.00 0.00 0.00 0.00 0.01 0.01 0.00 0.00 0.00 0.00 0.00 0.00 0.00 0.00 0.00 0.00 0.01 0.01 0.02 0.05 0.08 0.16 0.26 0.34 0.39 0.41
0.01 0.00 0.01 0.01 0.01 0.01 0.01 0.00 0.00 0.00 0.00 0.00 0.00 0.00 0.00 0.00 0.00 0.00 0.00 0.00 0.00 0.00 0.01 0.01 0.00 0.00 0.00 0.00 0.00 0.00 0.00 0.00 0.00 0.00 0.01 0.01 0.02 0.06 0.08 0.11 0.19 0.29 0.35 0.33
0.03 0.01 0.03 0.03 0.01 0.00 0.00 0.00 0.00 0.00 0.00 0.00 0.00 0.00 0.00 0.00 0.01 0.01 0.01 0.01 0.01 0.01 0.01 0.01 0.00 0.00 0.00 0.00 0.00 0.00 0.00 0.00 0.00 0.00 0.01 0.01 0.02 0.03 0.07 0.10 0.12 0.17 0.19 0.17
0.06 0.05 0.12 0.04 0.00 0.00 0.00 0.00 0.00 0.00 0.00 0.00 0.00 0.00 0.00 0.01 0.02 0.02 0.02 0.01 0.01 0.01 0.01 0.00 0.00 0.00 0.00 0.00 0.00 0.00 0.00 0.00 0.00 0.00 0.01 0.01 0.01 0.02 0.04 0.07 0.10 0.12 0.11 0.07
0.14 0.10 0.06 0.01 0.00 0.00 0.00 0.00 0.00 0.00 0.00 0.00 0.00 0.00 0.01 0.03 0.02 0.01 0.01 0.01 0.01 0.01 0.00 0.00 0.00 0.00 0.00 0.00 0.00 0.00 0.00 0.00 0.00 0.00 0.00 0.01 0.01 0.02 0.02 0.04 0.08 0.10 0.09 0.05
0.20 0.13 0.04 0.00 0.00 0.00 0.00 0.00 0.00 0.00 0.00 0.00 0.00 0.03 0.03 0.03 0.01 0.00 0.00 0.00 0.00 0.00 0.00 0.00 0.00 0.00 0.00 0.00 0.00 0.00 0.00 0.00 0.00 0.00 0.00 0.01 0.01 0.02 0.02 0.02 0.04 0.06 0.06 0.04
0.19 0.10 0.02 0.00 0.00 0.00 0.01 0.00 0.00 0.00 0.00 0.00 0.01 0.05 0.04 0.01 0.00 0.00 0.00 0.00 0.00 0.00 0.00 0.00 0.00 0.00 0.00 0.00 0.00 0.00 0.00 0.00 0.00 0.00 0.01 0.01 0.02 0.02 0.02 0.02 0.02 0.02 0.02 0.02
0.14 0.09 0.02 0.01 0.01 0.01 0.01 0.00 0.00 0.00 0.00 0.00 0.01 0.01 0.01 0.00 0.00 0.00 0.00 0.00 0.00 0.00 0.00 0.00 0.00 0.00 0.00 0.00 0.00 0.00 0.00 0.00 0.00 0.00 0.01 0.01 0.02 0.02 0.02 0.02 0.03 0.03 0.03 0.03
0.09 0.04 0.01 0.01 0.01 0.02 0.01 0.01 0.00 0.00 0.00 0.01 0.01 0.00 0.00 0.00 0.00 0.00 0.00 0.00 0.00 0.00 0.00 0.00 0.00 0.00 0.00 0.00 0.00 0.00 0.00 0.00 0.00 0.01 0.01 0.02 0.02 0.02 0.02 0.03 0.05 0.07 0.06 0.05
0.06 0.02 0.01 0.01 0.01 0.01 0.01 0.00 0.00 0.00 0.00 0.01 0.01 0.00 0.00 0.00 0.00 0.00 0.00 0.00 0.00 0.00 0.00 0.00 0.00 0.00 0.00 0.00 0.00 0.00 0.00 0.00 0.01 0.01 0.01 0.02 0.02 0.03 0.04 0.07 0.18 0.20 0.14 0.11
0.05 0.02 0.01 0.01 0.01 0.01 0.01 0.00 0.00 0.00 0.00 0.01 0.00 0.00 0.00 0.00 0.00 0.00 0.00 0.00 0.00 0.00 0.00 0.00 0.00 0.00 0.00 0.00 0.00 0.00 0.00 0.00 0.01 0.01 0.02 0.02 0.02 0.03 0.05 0.08 0.24 0.32 0.23 0.27
0.04 0.02 0.03 0.02 0.01 0.01 0.01 0.01 0.00 0.00 0.01 0.00 0.00 0.00 0.00 0.00 0.00 0.00 0.00 0.00 0.00 0.00 0.00 0.00 0.00 0.00 0.00 0.00 0.00 0.00 0.01 0.01 0.01 0.02 0.03 0.03 0.03 0.03 0.04 0.07 0.12 0.14 0.15 0.24
0.02 0.01 0.01 0.01 0.01 0.01 0.01 0.01 0.00 0.00 0.00 0.00 0.00 0.00 0.00 0.00 0.00 0.00 0.00 0.00 0.00 0.00 0.00 0.00 0.00 0.00 0.00 0.00 0.00 0.00 0.01 0.02 0.03 0.03 0.04 0.04 0.05 0.07 0.07 0.05 0.04 0.05 0.06 0.11
0.01 0.01 0.01 0.01 0.01 0.01 0.01 0.01 0.00 0.00 0.00 0.00 0.00 0.00 0.00 0.00 0.00 0.00 0.00 0.00 0.00 0.00 0.00 0.00 0.00 0.00 0.00 0.00 0.00 0.00 0.01 0.02 0.03 0.04 0.06 0.07 0.08 0.09 0.11 0.12 0.09 0.05 0.03 0.04
0.01 0.01 0.01 0.01 0.00 0.01 0.01 0.00 0.01 0.00 0.00 0.00 0.00 0.00 0.00 0.00 0.00 0.00 0.00 0.00 0.00 0.00 0.00 0.00 0.00 0.00 0.00 0.00 0.01 0.01 0.01 0.02 0.05 0.06 0.07 0.08 0.09 0.11 0.12 0.12 0.11 0.07 0.05 0.04
0.01 0.00 0.00 0.00 0.00 0.01 0.01 0.01 0.00 0.00 0.00 0.00 0.00 0.00 0.00 0.00 0.00 0.00 0.00 0.00 0.00 0.00 0.00 0.00 0.00 0.00 0.00 0.00 0.01 0.01 0.01 0.03 0.06 0.07 0.08 0.09 0.11 0.13 0.14 0.14 0.13 0.11 0.10 0.09
0.01 0.01 0.00 0.00 0.00 0.01 0.01 0.01 0.01 0.01 0.01 0.01 0.01 0.01 0.00 0.00 0.00 0.00 0.00 0.00 0.00 0.00 0.00 0.00 0.00 0.00 0.00 0.00 0.02 0.02 0.03 0.04 0.06 0.08 0.10 0.12 0.15 0.17 0.18 0.20 0.19 0.16 0.11 0.11
0.01 0.01 0.01 0.01 0.01 0.01 0.01 0.01 0.01 0.01 0.01 0.01 0.01 0.00 0.00 0.00 0.00 0.00 0.00 0.00 0.00 0.00 0.00 0.00 0.00 0.00 0.00 0.01 0.03 0.04 0.06 0.07 0.09 0.13 0.14 0.15 0.19 0.20 0.22 0.23 0.21 0.19 0.14 0.10
0.01 0.01 0.02 0.02 0.01 0.01 0.02 0.02 0.01 0.01 0.00 0.00 0.00 0.00 0.00 0.00 0.00 0.00 0.00 0.00 0.00 0.00 0.00 0.00 0.00 0.00 0.01 0.02 0.06 0.08 0.10 0.11 0.12 0.12 0.13 0.15 0.17 0.17 0.20 0.23 0.22 0.20 0.17 0.16
0.02 0.02 0.02 0.02 0.01 0.01 0.01 0.02 0.01 0.00 0.00 0.00 0.00 0.01 0.00 0.00 0.00 0.00 0.00 0.00 0.00 0.00 0.00 0.00 0.00 0.01 0.03 0.06 0.10 0.11 0.10 0.12 0.14 0.15 0.16 0.18 0.20 0.20 0.21 0.23 0.24 0.22 0.20 0.18
0.02 0.02 0.02 0.01 0.01 0.01 0.01 0.01 0.02 0.02 0.01 0.01 0.01 0.01 0.01 0.01 0.01 0.01 0.01 0.01 0.01 0.00 0.01 0.01 0.01 0.04 0.09 0.11 0.10 0.08 0.09 0.13 0.17 0.19 0.21 0.23 0.25 0.24 0.23 0.24 0.24 0.23 0.21 0.20
0.02 0.01 0.01 0.01 0.01 0.01 0.01 0.01 0.02 0.03 0.02 0.02 0.01 0.01 0.02 0.02 0.02 0.01 0.01 0.01 0.01 0.01 0.01 0.01 0.02 0.06 0.10 0.10 0.08 0.08 0.10 0.14 0.18 0.22 0.26 0.28 0.32 0.32 0.28 0.27 0.27 0.25 0.23 0.21
0.03 0.03 0.03 0.03 0.03 0.04 0.04 0.04 0.04 0.03 0.03 0.03 0.03 0.03 0.03 0.02 0.02 0.02 0.02 0.01 0.01 0.01 0.01 0.01 0.02 0.06 0.09 0.08 0.08 0.10 0.13 0.17 0.22 0.26 0.29 0.31 0.33 0.35 0.35 0.33 0.30 0.28 0.27 0.25
0.07 0.07 0.08 0.08 0.08 0.07 0.08 0.08 0.07 0.06 0.06 0.05 0.05 0.04 0.04 0.03 0.03 0.02 0.02 0.01 0.02 0.02 0.02 0.02 0.04 0.06 0.09 0.08 0.10 0.15 0.19 0.23 0.29 0.31 0.32 0.32 0.33 0.34 0.36 0.36 0.34 0.28 0.26 0.25
0.11 0.12 0.12 0.11 0.10 0.11 0.11 0.09 0.08 0.07 0.06 0.06 0.05 0.04 0.03 0.03 0.03 0.02 0.02 0.02 0.02 0.03 0.03 0.04 0.06 0.08 0.09 0.10 0.15 0.21 0.24 0.27 0.35 0.39 0.39 0.37 0.34 0.33 0.32 0.33 0.32 0.30 0.26 0.23
0.14 0.14 0.14 0.12 0.11 0.10 0.09 0.07 0.06 0.06 0.06 0.05 0.05 0.04 0.03 0.03 0.02 0.03 0.03 0.03 0.04 0.05 0.06 0.06 0.07 0.09 0.11 0.14 0.18 0.22 0.25 0.27 0.34 0.37 0.36 0.34 0.31 0.30 0.30 0.30 0.28 0.26 0.23 0.22
0.14 0.13 0.11 0.10 0.09 0.08 0.07 0.07 0.07 0.07 0.06 0.05 0.05 0.04 0.04 0.04 0.04 0.04 0.05 0.05 0.06 0.07 0.07 0.08 0.10 0.12 0.15 0.17 0.21 0.24 0.26 0.29 0.36 0.41 0.37 0.34 0.32 0.31 0.29 0.28 0.26 0.23 0.22 0.22

GEFSNGP_prec_meanprecacc_126.txt.gz
Total_Precipitation_Accumulation
0.07 0.02 0.02 0.03 0.03 0.03 0.04 0.04 0.03 0.01 0.00 0.00 0.00 0.00 0.00 0.00 0.00 0.00 0.00 0.00 0.00 0.00 0.01 0.01 0.00 0.00 0.00 0.00 0.00 0.00 0.00 0.00 0.00 0.00 0.01 0.02 0.02 0.05 0.09 0.17 0.27 0.35 0.39 0.41
0.06 0.03 0.03 0.03 0.02 0.02 0.03 0.03 0.02 0.00 0.00 0.00 0.00 0.00 0.00 0.00 0.00 0.00 0.00 0.00 0.00 0.00 0.01 0.01 0.00 0.00 0.00 0.00 0.00 0.00 0.00 0.00 0.00 0.00 0.01 0.01 0.02 0.06 0.08 0.12 0.19 0.29 0.36 0.33
0.08 0.03 0.07 0.09 0.02 0.01 0.02 0.02 0.01 0.00 0.00 0.00 0.00 0.00 0.00 0.00 0.01 0.01 0.01 0.01 0.01 0.01 0.01 0.01 0.00 0.00 0.00 0.00 0.00 0.00 0.00 0.00 0.00 0.00 0.01 0.01 0.02 0.04 0.07 0.10 0.12 0.17 0.19 0.17
0.11 0.10 0.22 0.09 0.01 0.01 0.01 0.01 0.00 0.00 0.00 0.00 0.00 0.00 0.00 0.01 0.02 0.02 0.02 0.01 0.01 0.01 0.01 0.00 0.00 0.00 0.00 0.00 0.00 0.00 0.00 0.00 0.00 0.00 0.01 0.01 0.01 0.02 0.04 0.07 0.10 0.12 0.11 0.07
0.22 0.17 0.11 0.02 0.00 0.00 0.01 0.01 0.00 0.00 0.00 0.00 0.00 0.00 0.01 0.03 0.02 0.01 0.01 0.01 0.01 0.01 0.00 0.00 0.00 0.00 0.00 0.00 0.00 0.00 0.00 0.00 0.00 0.00 0.00 0.01 0.01 0.02 0.02 0.04 0.08 0.10 0.09 0.05
0.32 0.21 0.08 0.01 0.00 0.00 0.01 0.01 0.00 0.00 0.00 0.00 0.00 0.03 0.03 0.03 0.01 0.00 0.00 0.00 0.00 0.00 0.00 0.00 0.00 0.00 0.00 0.00 0.00 0.00 0.00 0.00 0.00 0.00 0.00 0.01 0.01 0.02 0.02 0.02 0.04 0.06 0.06 0.04
0.31 0.18 0.05 0.01 0.01 0.01 0.03 0.03 0.01 0.00 0.00 0.00 0.01 0.05 0.04 0.01 0.00 0.00 0.00 0.00 0.00 0.00 0.00 0.00 0.00 0.00 0.00 0.00 0.00 0.00 0.00 0.00 0.00 0.00 0.01 0.01 0.02 0.02 0.02 0.02 0.02 0.02 0.02 0.02
0.25 0.19 0.05 0.01 0.02 0.04 0.06 0.03 0.01 0.01 0.00 0.01 0.01 0.02 0.01 0.00 0.00 0.00 0.00 0.00 0.00 0.00 0.00 0.00 0.00 0.00 0.00 0.00 0.00 0.00 0.00 0.00 0.00 0.00 0.01 0.01 0.02 0.02 0.02 0.02 0.03 0.03 0.03 0.03
0.20 0.11 0.03 0.02 0.03 0.04 0.04 0.03 0.01 0.01 0.00 0.01 0.01 0.00 0.00 0.00 0.00 0.00 0.00 0.00 0.00 0.00 0.00 0.00 0.00 0.00 0.00 0.00 0.00 0.00 0.00 0.00 0.00 0.01 0.01 0.02 0.02 0.02 0.02 0.03 0.05 0.07 0.06 0.05
0.11 0.04 0.02 0.03 0.03 0.02 0.02 0.01 0.01 0.01 0.01 0.01 0.01 0.00 0.00 0.00 0.00 0.00 0.00 0.00 0.00 0.00 0.00 0.00 0.00 0.00 0.00 0.00 0.00 0.00 0.00 0.00 0.01 0.01 0.01 0.02 0.02 0.03 0.04 0.07 0.18 0.20 0.14 0.11
0.09 0.04 0.03 0.02 0.02 0.02 0.02 0.01 0.01 0.01 0.01 0.01 0.01 0.00 0.00 0.00 0.00 0.00 0.00 0.00 0.00 0.00 0.00 0.00 0.00 0.00 0.00 0.00 0.00 0.00 0.00 0.00 0.01 0.01 0.02 0.02 0.02 0.03 0.05 0.08 0.24 0.32 0.23 0.27
0.06 0.04 0.04 0.03 0.02 0.02 0.02 0.02 0.01 0.01 0.01 0.01 0.00 0.00 0.00 0.00 0.00 0.00 0.00 0.00 0.00 0.00 0.00 0.00 0.00 0.00 0.00 0.00 0.00 0.00 0.01 0.01 0.01 0.02 0.03 0.03 0.03 0.03 0.04 0.07 0.12 0.14 0.15 0.24
0.04 0.02 0.02 0.02 0.02 0.02 0.02 0.02 0.01 0.01 0.01 0.01 0.01 0.00 0.00 0.00 0.00 0.00 0.00 0.00 0.00 0.00 0.00 0.00 0.00 0.00 0.00 0.00 0.00 0.00 0.01 0.02 0.03 0.03 0.04 0.04 0.05 0.07 0.07 0.05 0.04 0.05 0.06 0.11
0.02 0.02 0.02 0.02 0.02 0.02 0.02 0.01 0.01 0.01 0.01 0.01 0.01 0.00 0.00 0.00 0.00 0.00 0.00 0.00 0.00 0.00 0.00 0.00 0.00 0.00 0.00 0.00 0.00 0.00 0.01 0.02 0.03 0.04 0.06 0.07 0.08 0.09 0.11 0.12 0.09 0.05 0.03 0.04
0.02 0.02 0.02 0.01 0.01 0.02 0.01 0.01 0.01 0.01 0.01 0.01 0.01 0.01 0.01 0.00 0.00 0.00 0.00 0.00 0.00 0.00 0.00 0.00 0.00 0.00 0.00 0.00 0.01 0.01 0.01 0.02 0.05 0.06 0.07 0.08 0.09 0.11 0.12 0.12 0.11 0.07 0.05 0.04
0.02 0.02 0.01 0.01 0.01 0.01 0.01 0.01 0.01 0.01 0.02 0.01 0.01 0.01 0.01 0.01 0.00 0.00 0.00 0.00 0.00 0.00 0.00 0.00 0.00 0.00 0.00 0.00 0.01 0.01 0.01 0.03 0.06 0.07 0.08 0.09 0.11 0.13 0.14 0.14 0.13 0.11 0.10 0.09
0.03 0.02 0.02 0.01 0.01 0.01 0.02 0.02 0.02 0.02 0.02 0.02 0.02 0.02 0.01 0.00 0.00 0.00 0.00 0.00 0.00 0.00 0.00 0.00 0.00 0.00 0.00 0.00 0.02 0.02 0.03 0.04 0.06 0.08 0.10 0.12 0.15 0.17 0.19 0.20 0.19 0.16 0.11 0.11
0.03 0.02 0.02 0.02 0.02 0.02 0.02 0.02 0.02 0.02 0.02 0.03 0.02 0.02 0.02 0.01 0.01 0.00 0.00 0.00 0.00 0.00 0.00 0.00 0.00 0.00 0.00 0.01 0.03 0.04 0.06 0.07 0.09 0.13 0.14 0.15 0.19 0.20 0.22 0.23 0.21 0.19 0.14 0.10
0.03 0.03 0.03 0.02 0.02 0.02 0.03 0.03 0.03 0.02 0.02 0.02 0.02 0.02 0.02 0.02 0.02 0.01 0.01 0.01 0.00 0.00 0.00 0.00 0.00 0.00 0.01 0.02 0.06 0.08 0.10 0.11 0.12 0.12 0.13 0.15 0.17 0.17 0.20 0.23 0.22 0.20 0.17 0.16
0.04 0.04 0.03 0.03 0.02 0.02 0.03 0.04 0.03 0.02 0.02 0.02 0.02 0.02 0.02 0.02 0.02 0.02 0.02 0.01 0.01 0.01 0.01 0.01 0.01 0.01 0.03 0.06 0.10 0.11 0.11 0.12 0.14 0.15 0.16 0.18 0.20 0.20 0.21 0.23 0.24 0.22 0.20 0.18
0.05 0.05 0.04 0.03 0.02 0.02 0.02 0.03 0.04 0.03 0.03 0.02 0.02 0.02 0.02 0.03 0.03 0.02 0.02 0.02 0.02 0.01 0.01 0.01 0.01 0.04 0.10 0.12 0.11 0.09 0.10 0.13 0.17 0.19 0.22 0.24 0.25 0.25 0.24 0.24 0.24 0.23 0.22 0.20
0.05 0.05 0.04 0.04 0.04 0.03 0.04 0.04 0.04 0.05 0.04 0.04 0.03 0.03 0.03 0.04 0.04 0.04 0.04 0.04 0.03 0.03 0.02 0.02 0.03 0.07 0.11 0.11 0.08 0.08 0.10 0.14 0.18 0.22 0.26 0.28 0.32 0.32 0.28 0.27 0.27 0.25 0.23 0.21
0.07 0.07 0.07 0.07 0.07 0.07 0.07 0.08 0.07 0.07 0.07 0.07 0.07 0.06 0.06 0.07 0.07 0.06 0.06 0.05 0.04 0.04 0.03 0.03 0.04 0.07 0.09 0.09 0.08 0.10 0.13 0.17 0.22 0.26 0.29 0.31 0.33 0.35 0.35 0.33 0.30 0.28 0.27 0.25
0.13 0.12 0.13 0.13 0.12 0.12 0.13 0.14 0.13 0.12 0.12 0.12 0.11 0.10 0.09 0.09 0.09 0.08 0.07 0.06 0.05 0.05 0.04 0.04 0.05 0.07 0.09 0.09 0.10 0.15 0.19 0.24 0.30 0.32 0.32 0.32 0.33 0.34 0.36 0.36 0.34 0.28 0.26 0.25
0.17 0.17 0.17 0.16 0.17 0.19 0.19 0.17 0.15 0.14 0.14 0.13 0.12 0.11 0.10 0.09 0.09 0.08 0.07 0.06 0.06 0.06 0.05 0.06 0.07 0.09 0.09 0.11 0.16 0.22 0.24 0.27 0.36 0.40 0.39 0.37 0.34 0.33 0.32 0.33 0.32 0.30 0.26 0.24
0.20 0.20 0.20 0.19 0.18 0.18 0.17 0.15 0.14 0.14 0.13 0.12 0.12 0.11 0.10 0.09 0.08 0.07 0.07 0.08 0.08 0.09 0.09 0.09 0.10 0.12 0.14 0.16 0.20 0.23 0.26 0.28 0.35 0.38 0.36 0.34 0.32 0.30 0.30 0.30 0.28 0.26 0.24 0.22
0.21 0.19 0.18 0.17 0.16 0.15 0.14 0.13 0.14 0.14 0.12 0.11 0.11 0.10 0.09 0.08 0.08 0.08 0.09 0.10 0.10 0.11 0.11 0.12 0.13 0.15 0.17 0.19 0.22 0.25 0.27 0.29 0.37 0.41 0.37 0.34 0.32 0.31 0.29 0.28 0.26 0.23 0.22 0.22

GEFSNGP_prec_meanprecacc_132.txt.gz
Total_Precipitation_Accumulation
0.12 0.08 0.09 0.08 0.06 0.07 0.09 0.09 0.06 0.02 0.00 0.00 0.00 0.00 0.00 0.00 0.00 0.00 0.00 0.00 0.00 0.00 0.01 0.01 0.00 0.00 0.00 0.00 0.00 0.00 0.00 0.00 0.00 0.00 0.01 0.02 0.03 0.05 0.09 0.17 0.27 0.35 0.40 0.42
0.08 0.05 0.07 0.07 0.04 0.04 0.05 0.05 0.03 0.01 0.00 0.00 0.00 0.00 0.00 0.00 0.00 0.00 0.00 0.00 0.00 0.00 0.01 0.01 0.00 0.00 0.00 0.00 0.00 0.00 0.00 0.00 0.00 0.00 0.01 0.01 0.03 0.06 0.09 0.12 0.20 0.30 0.36 0.34
0.12 0.06 0.12 0.15 0.05 0.03 0.03 0.03 0.03 0.02 0.00 0.00 0.00 0.00 0.00 0.00 0.01 0.01 0.01 0.01 0.01 0.01 0.01 0.01 0.00 0.00 0.00 0.00 0.00 0.00 0.00 0.00 0.00 0.01 0.01 0.01 0.02 0.04 0.07 0.10 0.13 0.17 0.20 0.18
0.17 0.15 0.32 0.13 0.02 0.02 0.02 0.03 0.03 0.02 0.01 0.00 0.00 0.00 0.00 0.01 0.02 0.02 0.02 0.01 0.01 0.01 0.01 0.00 0.00 0.00 0.00 0.00 0.00 0.00 0.00 0.00 0.00 0.00 0.01 0.01 0.02 0.03 0.05 0.08 0.11 0.13 0.11 0.08
0.28 0.23 0.16 0.03 0.01 0.02 0.03 0.04 0.04 0.02 0.01 0.00 0.00 0.00 0.01 0.03 0.02 0.01 0.01 0.01 0.01 0.01 0.00 0.00 0.00 0.00 0.00 0.00 0.00 0.00 0.00 0.00 0.00 0.00 0.01 0.01 0.02 0.02 0.02 0.05 0.09 0.11 0.09 0.05
0.39 0.27 0.11 0.03 0.02 0.01 0.03 0.05 0.03 0.02 0.01 0.00 0.01 0.03 0.03 0.04 0.01 0.00 0.00 0.00 0.00 0.00 0.00 0.00 0.00 0.00 0.00 0.00 0.00 0.00 0.00 0.00 0.00 0.00 0.00 0.01 0.01 0.02 0.02 0.02 0.04 0.06 0.06 0.04
0.39 0.23 0.06 0.02 0.02 0.02 0.07 0.08 0.03 0.02 0.01 0.01 0.02 0.05 0.05 0.02 0.00 0.00 0.00 0.00 0.00 0.00 0.00 0.00 0.00 0.00 0.00 0.00 0.00 0.00 0.00 0.00 0.00 0.00 0.01 0.01 0.02 0.02 0.02 0.02 0.02 0.02 0.03 0.03
0.33 0.24 0.07 0.03 0.04 0.09 0.11 0.05 0.02 0.02 0.01 0.01 0.02 0.02 0.01 0.00 0.00 0.00 0.00 0.00 0.00 0.00 0.00 0.00 0.00 0.00 0.00 0.00 0.00 0.00 0.00 0.00 0.00 0.00 0.01 0.01 0.02 0.02 0.02 0.02 0.03 0.03 0.03 0.03
0.27 0.15 0.04 0.04 0.07 0.07 0.06 0.04 0.02 0.01 0.01 0.01 0.02 0.01 0.00 0.00 0.00 0.00 0.00 0.00 0.00 0.00 0.00 0.00 0.00 0.00 0.00 0.00 0.00 0.00 0.00 0.00 0.00 0.01 0.01 0.02 0.02 0.03 0.03 0.03 0.06 0.07 0.07 0.05
0.14 0.06 0.03 0.03 0.05 0.04 0.02 0.02 0.02 0.01 0.01 0.02 0.01 0.01 0.01 0.00 0.00 0.00 0.00 0.00 0.00 0.00 0.00 0.00 0.00 0.00 0.00 0.00 0.00 0.00 0.00 0.00 0.01 0.01 0.01 0.02 0.02 0.03 0.04 0.07 0.18 0.20 0.14 0.11
0.11 0.06 0.04 0.03 0.03 0.03 0.02 0.02 0.01 0.01 0.01 0.02 0.01 0.01 0.00 0.00 0.00 0.00 0.00 0.00 0.00 0.00 0.00 0.00 0.00 0.00 0.00 0.00 0.00 0.00 0.00 0.00 0.01 0.01 0.02 0.02 0.03 0.03 0.05 0.08 0.24 0.33 0.23 0.27
0.08 0.05 0.05 0.04 0.03 0.03 0.02 0.02 0.01 0.01 0.01 0.01 0.01 0.01 0.01 0.01 0.00 0.00 0.00 0.00 0.00 0.00 0.00 0.00 0.00 0.00 0.00 0.00 0.00 0.00 0.01 0.01 0.01 0.02 0.03 0.03 0.03 0.03 0.04 0.07 0.12 0.14 0.15 0.24
0.04 0.02 0.02 0.02 0.02 0.02 0.02 0.02 0.02 0.01 0.01 0.01 0.01 0.01 0.01 0.01 0.00 0.00 0.00 0.00 0.00 0.00 0.00 0.00 0.00 0.00 0.00 0.00 0.00 0.00 0.01 0.02 0.03 0.03 0.04 0.04 0.05 0.07 0.07 0.05 0.04 0.05 0.06 0.11
0.02 0.02 0.02 0.02 0.02 0.02 0.02 0.02 0.01 0.01 0.01 0.01 0.01 0.01 0.00 0.01 0.01 0.01 0.00 0.00 0.00 0.00 0.00 0.00 0.00 0.00 0.00 0.00 0.00 0.00 0.01 0.02 0.03 0.04 0.06 0.07 0.08 0.09 0.11 0.12 0.09 0.05 0.03 0.04
0.02 0.02 0.02 0.01 0.01 0.02 0.01 0.01 0.02 0.02 0.01 0.01 0.01 0.01 0.01 0.01 0.01 0.01 0.00 0.00 0.00 0.00 0.00 0.00 0.00 0.00 0.00 0.00 0.01 0.01 0.01 0.03 0.05 0.06 0.07 0.08 0.09 0.11 0.12 0.12 0.11 0.08 0.05 0.04
0.03 0.02 0.01 0.01 0.01 0.01 0.02 0.01 0.02 0.02 0.02 0.02 0.02 0.01 0.01 0.01 0.00 0.00 0.00 0.00 0.00 0.00 0.00 0.00 0.00 0.00 0.01 0.01 0.01 0.01 0.02 0.04 0.06 0.07 0.08 0.09 0.11 0.13 0.14 0.14 0.13 0.12 0.10 0.09
0.04 0.03 0.02 0.01 0.01 0.02 0.02 0.02 0.02 0.03 0.03 0.03 0.03 0.02 0.02 0.01 0.01 0.00 0.00 0.00 0.00 0.00 0.00 0.00 0.00 0.00 0.00 0.01 0.02 0.03 0.04 0.04 0.06 0.08 0.10 0.12 0.15 0.17 0.19 0.20 0.19 0.16 0.11 0.11
0.04 0.03 0.03 0.02 0.03 0.02 0.03 0.03 0.03 0.03 0.04 0.04 0.03 0.03 0.02 0.02 0.01 0.01 0.01 0.01 0.00 0.00 0.00 0.00 0.00 0.00 0.00 0.01 0.03 0.05 0.06 0.08 0.10 0.13 0.14 0.15 0.19 0.20 0.22 0.23 0.21 0.19 0.14 0.10
0.04 0.04 0.04 0.03 0.03 0.03 0.04 0.04 0.03 0.03 0.03 0.03 0.03 0.04 0.04 0.03 0.03 0.03 0.02 0.02 0.01 0.01 0.01 0.00 0.01 0.01 0.01 0.02 0.06 0.08 0.10 0.12 0.13 0.12 0.13 0.16 0.18 0.17 0.20 0.23 0.23 0.20 0.17 0.16
0.06 0.06 0.05 0.04 0.04 0.04 0.04 0.05 0.04 0.04 0.04 0.04 0.04 0.04 0.04 0.04 0.04 0.04 0.04 0.03 0.03 0.02 0.01 0.01 0.01 0.02 0.04 0.07 0.11 0.12 0.11 0.12 0.15 0.15 0.16 0.18 0.20 0.20 0.21 0.23 0.24 0.22 0.20 0.18
0.09 0.08 0.07 0.06 0.04 0.04 0.04 0.05 0.06 0.05 0.05 0.04 0.04 0.04 0.05 0.05 0.05 0.05 0.05 0.06 0.05 0.04 0.03 0.03 0.03 0.05 0.10 0.12 0.11 0.09 0.10 0.14 0.17 0.20 0.22 0.24 0.25 0.25 0.24 0.24 0.24 0.23 0.22 0.20
0.11 0.10 0.09 0.08 0.07 0.06 0.06 0.06 0.07 0.08 0.07 0.06 0.06 0.05 0.06 0.07 0.07 0.07 0.07 0.08 0.08 0.06 0.05 0.04 0.04 0.08 0.11 0.11 0.09 0.09 0.11 0.15 0.19 0.23 0.26 0.29 0.33 0.33 0.29 0.27 0.28 0.25 0.23 0.22
0.14 0.13 0.13 0.13 0.12 0.11 0.11 0.11 0.11 0.11 0.11 0.11 0.10 0.10 0.09 0.10 0.09 0.09 0.10 0.10 0.09 0.08 0.07 0.06 0.06 0.08 0.11 0.10 0.09 0.11 0.14 0.18 0.23 0.27 0.30 0.32 0.34 0.36 0.37 0.34 0.31 0.29 0.28 0.26
0.20 0.19 0.20 0.20 0.18 0.16 0.18 0.19 0.18 0.17 0.17 0.17 0.17 0.15 0.13 0.13 0.13 0.13 0.13 0.12 0.10 0.09 0.07 0.07 0.08 0.09 0.11 0.11 0.12 0.17 0.21 0.25 0.31 0.33 0.33 0.33 0.34 0.35 0.37 0.37 0.35 0.29 0.27 0.26
0.25 0.25 0.24 0.24 0.25 0.26 0.26 0.23 0.21 0.21 0.20 0.19 0.19 0.17 0.15 0.14 0.14 0.14 0.13 0.12 0.11 0.09 0.09 0.09 0.10 0.12 0.12 0.14 0.18 0.23 0.26 0.29 0.37 0.41 0.41 0.39 0.35 0.34 0.34 0.34 0.33 0.30 0.27 0.24
0.28 0.27 0.28 0.27 0.27 0.27 0.25 0.22 0.21 0.21 0.19 0.18 0.18 0.17 0.16 0.15 0.14 0.13 0.13 0.13 0.13 0.13 0.13 0.13 0.14 0.15 0.17 0.19 0.22 0.26 0.28 0.30 0.37 0.39 0.38 0.35 0.33 0.31 0.31 0.30 0.28 0.26 0.24 0.22
0.30 0.28 0.26 0.25 0.25 0.24 0.22 0.21 0.21 0.21 0.18 0.15 0.15 0.15 0.14 0.14 0.13 0.14 0.14 0.15 0.15 0.16 0.16 0.17 0.17 0.19 0.20 0.23 0.26 0.28 0.29 0.32 0.39 0.43 0.39 0.35 0.33 0.32 0.30 0.29 0.26 0.23 0.22 0.22

GEFSNGP_prec_meanprecacc_138.txt.gz
Total_Precipitation_Accumulation
0.15 0.12 0.16 0.17 0.15 0.14 0.17 0.15 0.09 0.03 0.01 0.00 0.00 0.00 0.00 0.00 0.00 0.00 0.00 0.00 0.00 0.00 0.01 0.01 0.00 0.00 0.00 0.00 0.00 0.00 0.00 0.00 0.00 0.01 0.01 0.02 0.03 0.06 0.09 0.17 0.28 0.36 0.40 0.42
0.10 0.07 0.09 0.10 0.08 0.08 0.08 0.07 0.04 0.02 0.01 0.00 0.00 0.00 0.00 0.00 0.00 0.00 0.00 0.00 0.00 0.00 0.01 0.01 0.00 0.00 0.00 0.00 0.00 0.00 0.00 0.00 0.00 0.01 0.01 0.02 0.03 0.07 0.09 0.13 0.20 0.31 0.37 0.34
0.15 0.07 0.15 0.19 0.09 0.07 0.05 0.05 0.04 0.03 0.02 0.01 0.00 0.00 0.00 0.00 0.01 0.01 0.01 0.01 0.01 0.01 0.01 0.01 0.00 0.00 0.00 0.00 0.00 0.00 0.00 0.00 0.00 0.01 0.01 0.02 0.02 0.04 0.08 0.11 0.14 0.18 0.20 0.18
0.21 0.19 0.37 0.17 0.04 0.05 0.06 0.06 0.05 0.03 0.02 0.01 0.00 0.00 0.00 0.01 0.02 0.02 0.02 0.01 0.01 0.01 0.01 0.00 0.00 0.00 0.00 0.00 0.00 0.00 0.00 0.00 0.00 0.00 0.01 0.01 0.02 0.03 0.05 0.08 0.12 0.13 0.12 0.08
0.34 0.28 0.19 0.05 0.03 0.04 0.08 0.10 0.08 0.04 0.01 0.01 0.00 0.00 0.02 0.03 0.02 0.01 0.01 0.01 0.01 0.01 0.00 0.00 0.00 0.00 0.00 0.00 0.00 0.00 0.00 0.00 0.00 0.00 0.01 0.01 0.02 0.02 0.03 0.05 0.09 0.12 0.10 0.06
0.46 0.31 0.14 0.06 0.03 0.03 0.07 0.12 0.07 0.03 0.02 0.01 0.01 0.04 0.04 0.04 0.01 0.00 0.00 0.00 0.00 0.00 0.00 0.00 0.00 0.00 0.00 0.00 0.00 0.00 0.00 0.00 0.00 0.00 0.01 0.01 0.02 0.02 0.02 0.03 0.05 0.07 0.07 0.05
0.45 0.28 0.08 0.04 0.04 0.05 0.14 0.16 0.07 0.03 0.02 0.01 0.03 0.06 0.05 0.02 0.00 0.00 0.00 0.00 0.00 0.00 0.00 0.00 0.00 0.00 0.00 0.00 0.00 0.00 0.00 0.00 0.00 0.00 0.01 0.01 0.02 0.02 0.02 0.03 0.03 0.03 0.03 0.03
0.38 0.29 0.11 0.05 0.06 0.14 0.17 0.08 0.04 0.03 0.02 0.01 0.02 0.02 0.01 0.01 0.00 0.00 0.00 0.00 0.00 0.00 0.00 0.00 0.00 0.00 0.00 0.00 0.00 0.00 0.00 0.00 0.00 0.01 0.01 0.01 0.02 0.02 0.03 0.03 0.03 0.04 0.04 0.04
0.31 0.19 0.08 0.07 0.09 0.10 0.08 0.05 0.03 0.02 0.01 0.02 0.02 0.01 0.00 0.00 0.00 0.00 0.00 0.00 0.00 0.00 0.00 0.00 0.00 0.00 0.00 0.00 0.00 0.00 0.00 0.00 0.00 0.01 0.01 0.02 0.02 0.03 0.03 0.04 0.06 0.08 0.07 0.06
0.17 0.09 0.07 0.06 0.07 0.05 0.03 0.02 0.02 0.02 0.02 0.02 0.02 0.01 0.01 0.00 0.00 0.00 0.00 0.00 0.00 0.00 0.00 0.00 0.00 0.00 0.00 0.00 0.00 0.00 0.00 0.00 0.01 0.01 0.02 0.02 0.02 0.03 0.04 0.08 0.18 0.20 0.14 0.12
0.14 0.09 0.07 0.05 0.04 0.03 0.02 0.02 0.01 0.01 0.02 0.02 0.01 0.01 0.01 0.00 0.00 0.00 0.00 0.00 0.00 0.00 0.00 0.00 0.00 0.00 0.00 0.00 0.00 0.00 0.00 0.00 0.01 0.01 0.02 0.02 0.03 0.03 0.06 0.09 0.24 0.33 0.23 0.27
0.10 0.07 0.08 0.05 0.03 0.03 0.03 0.02 0.02 0.02 0.02 0.01 0.01 0.01 0.01 0.01 0.00 0.00 0.00 0.00 0.00 0.00 0.00 0.00 0.00 0.00 0.00 0.00 0.00 0.00 0.01 0.01 0.01 0.02 0.03 0.03 0.04 0.03 0.04 0.07 0.12 0.14 0.15 0.25
0.05 0.03 0.04 0.04 0.03 0.03 0.02 0.02 0.02 0.02 0.02 0.01 0.01 0.01 0.01 0.01 0.01 0.00 0.00 0.00 0.00 0.00 0.00 0.00 0.00 0.00 0.00 0.00 0.00 0.00 0.01 0.02 0.03 0.03 0.04 0.04 0.05 0.07 0.07 0.05 0.05 0.05 0.06 0.11
0.03 0.03 0.04 0.04 0.04 0.03 0.02 0.02 0.02 0.02 0.01 0.01 0.01 0.01 0.01 0.01 0.01 0.01 0.01 0.00 0.00 0.00 0.00 0.00 0.00 0.00 0.00 0.00 0.00 0.01 0.01 0.02 0.03 0.04 0.06 0.07 0.08 0.10 0.11 0.12 0.09 0.05 0.03 0.05
0.03 0.03 0.03 0.02 0.03 0.03 0.02 0.02 0.02 0.02 0.02 0.01 0.01 0.01 0.01 0.01 0.01 0.01 0.01 0.00 0.00 0.00 0.00 0.00 0.00 0.00 0.00 0.00 0.01 0.01 0.01 0.03 0.05 0.07 0.07 0.08 0.10 0.12 0.12 0.12 0.11 0.08 0.05 0.04
0.03 0.02 0.02 0.02 0.02 0.04 0.03 0.02 0.02 0.03 0.03 0.02 0.02 0.02 0.02 0.01 0.01 0.01 0.01 0.01 0.01 0.00 0.00 0.00 0.00 0.00 0.01 0.01 0.01 0.02 0.02 0.04 0.07 0.07 0.08 0.10 0.11 0.13 0.15 0.14 0.13 0.12 0.10 0.09
0.05 0.04 0.02 0.02 0.02 0.03 0.04 0.04 0.03 0.03 0.04 0.04 0.03 0.03 0.02 0.02 0.01 0.01 0.01 0.01 0.01 0.01 0.00 0.00 0.00 0.00 0.00 0.01 0.02 0.03 0.04 0.05 0.07 0.09 0.10 0.13 0.16 0.18 0.19 0.20 0.19 0.16 0.12 0.11
0.06 0.05 0.04 0.04 0.03 0.04 0.05 0.05 0.04 0.04 0.05 0.05 0.04 0.04 0.03 0.03 0.02 0.02 0.01 0.01 0.01 0.01 0.01 0.01 0.01 0.01 0.00 0.01 0.03 0.05 0.07 0.08 0.11 0.14 0.15 0.16 0.19 0.21 0.23 0.24 0.22 0.19 0.14 0.10
0.06 0.05 0.05 0.05 0.04 0.05 0.06 0.07 0.06 0.05 0.05 0.05 0.05 0.05 0.05 0.04 0.04 0.04 0.03 0.02 0.02 0.02 0.02 0.02 0.01 0.01 0.01 0.02 0.06 0.08 0.11 0.12 0.14 0.14 0.15 0.17 0.18 0.18 0.21 0.23 0.23 0.20 0.18 0.16
0.08 0.07 0.07 0.06 0.05 0.05 0.06 0.07 0.07 0.06 0.06 0.06 0.06 0.06 0.05 0.05 0.05 0.05 0.05 0.05 0.04 0.03 0.03 0.03 0.03 0.03 0.04 0.07 0.11 0.12 0.11 0.13 0.16 0.16 0.17 0.19 0.21 0.21 0.22 0.24 0.25 0.23 0.21 0.19
0.12 0.10 0.09 0.08 0.07 0.06 0.06 0.08 0.09 0.08 0.07 0.07 0.08 0.07 0.07 0.07 0.06 0.06 0.06 0.08 0.08 0.06 0.05 0.05 0.05 0.07 0.12 0.14 0.13 0.10 0.11 0.15 0.18 0.21 0.23 0.25 0.26 0.26 0.25 0.25 0.25 0.25 0.23 0.21
0.14 0.13 0.12 0.10 0.10 0.10 0.09 0.10 0.11 0.11 0.10 0.10 0.10 0.09 0.09 0.09 0.09 0.08 0.09 0.10 0.11 0.10 0.08 0.07 0.08 0.12 0.15 0.14 0.11 0.11 0.13 0.17 0.21 0.24 0.28 0.31 0.34 0.34 0.30 0.29 0.29 0.27 0.25 0.24
0.18 0.17 0.16 0.16 0.16 0.15 0.15 0.16 0.16 0.15 0.15 0.14 0.14 0.13 0.12 0.13 0.12 0.11 0.13 0.14 0.13 0.13 0.12 0.10 0.11 0.13 0.15 0.13 0.12 0.13 0.16 0.20 0.25 0.29 0.32 0.34 0.36 0.37 0.38 0.35 0.33 0.31 0.30 0.28
0.25 0.24 0.24 0.24 0.22 0.21 0.22 0.25 0.23 0.22 0.22 0.21 0.21 0.19 0.17 0.16 0.17 0.17 0.17 0.17 0.15 0.13 0.13 0.12 0.13 0.14 0.16 0.14 0.16 0.20 0.23 0.27 0.33 0.34 0.35 0.35 0.35 0.36 0.38 0.38 0.37 0.31 0.29 0.28
0.31 0.30 0.30 0.30 0.31 0.32 0.32 0.30 0.28 0.27 0.25 0.24 0.23 0.22 0.21 0.19 0.19 0.19 0.18 0.17 0.15 0.13 0.13 0.14 0.15 0.17 0.16 0.17 0.22 0.27 0.29 0.31 0.39 0.43 0.43 0.40 0.37 0.35 0.35 0.36 0.35 0.33 0.29 0.26
0.34 0.34 0.34 0.35 0.36 0.36 0.34 0.30 0.28 0.27 0.24 0.23 0.23 0.22 0.22 0.21 0.19 0.18 0.17 0.17 0.17 0.17 0.17 0.18 0.19 0.21 0.22 0.24 0.27 0.30 0.32 0.33 0.39 0.41 0.39 0.37 0.34 0.33 0.32 0.32 0.30 0.28 0.25 0.24
0.37 0.36 0.33 0.33 0.35 0.35 0.33 0.30 0.29 0.29 0.25 0.21 0.22 0.21 0.20 0.19 0.18 0.18 0.17 0.18 0.19 0.19 0.20 0.21 0.22 0.25 0.26 0.28 0.30 0.32 0.33 0.35 0.41 0.45 0.40 0.37 0.35 0.33 0.31 0.30 0.27 0.25 0.23 0.23

GEFSNGP_prec_meanprecacc_144.txt.gz
Total_Precipitation_Accumulation
0.17 0.14 0.20 0.23 0.22 0.22 0.26 0.24 0.16 0.08 0.05 0.05 0.04 0.03 0.02 0.02 0.01 0.00 0.00 0.00 0.00 0.00 0.01 0.01 0.00 0.00 0.00 0.00 0.00 0.00 0.00 0.00 0.00 0.01 0.01 0.02 0.03 0.06 0.09 0.18 0.28 0.36 0.40 0.42
0.11 0.08 0.11 0.13 0.11 0.13 0.14 0.13 0.09 0.05 0.06 0.05 0.04 0.03 0.02 0.02 0.01 0.01 0.01 0.00 0.00 0.00 0.01 0.01 0.00 0.00 0.00 0.00 0.00 0.00 0.00 0.00 0.00 0.01 0.01 0.02 0.03 0.07 0.10 0.13 0.20 0.31 0.37 0.34
0.16 0.08 0.17 0.22 0.12 0.11 0.10 0.10 0.10 0.09 0.08 0.06 0.05 0.04 0.03 0.02 0.01 0.02 0.01 0.01 0.01 0.01 0.01 0.01 0.00 0.00 0.00 0.00 0.00 0.00 0.00 0.00 0.00 0.01 0.01 0.02 0.02 0.05 0.08 0.11 0.14 0.18 0.21 0.19
0.24 0.22 0.43 0.23 0.07 0.09 0.10 0.12 0.12 0.11 0.08 0.06 0.05 0.05 0.03 0.02 0.03 0.03 0.02 0.02 0.01 0.01 0.01 0.00 0.00 0.00 0.00 0.00 0.00 0.00 0.00 0.00 0.00 0.01 0.01 0.02 0.02 0.03 0.05 0.09 0.12 0.14 0.12 0.09
0.39 0.33 0.24 0.10 0.05 0.08 0.14 0.17 0.12 0.09 0.06 0.06 0.05 0.04 0.05 0.05 0.03 0.02 0.02 0.01 0.01 0.01 0.01 0.00 0.00 0.00 0.00 0.00 0.00 0.00 0.00 0.00 0.00 0.00 0.01 0.01 0.02 0.02 0.03 0.05 0.10 0.12 0.10 0.06
0.51 0.37 0.20 0.12 0.05 0.05 0.13 0.22 0.11 0.07 0.05 0.05 0.06 0.10 0.09 0.06 0.02 0.01 0.01 0.00 0.00 0.00 0.00 0.00 0.00 0.00 0.00 0.00 0.00 0.00 0.00 0.00 0.00 0.00 0.01 0.01 0.02 0.02 0.02 0.03 0.05 0.07 0.07 0.05
0.50 0.33 0.13 0.08 0.06 0.08 0.22 0.25 0.11 0.06 0.04 0.04 0.07 0.10 0.07 0.03 0.02 0.01 0.00 0.00 0.00 0.00 0.00 0.00 0.00 0.00 0.00 0.00 0.00 0.00 0.00 0.00 0.00 0.00 0.01 0.01 0.02 0.02 0.03 0.03 0.03 0.04 0.04 0.04
0.43 0.35 0.17 0.08 0.09 0.20 0.25 0.11 0.06 0.04 0.03 0.02 0.03 0.03 0.02 0.01 0.01 0.01 0.01 0.00 0.00 0.00 0.00 0.00 0.00 0.00 0.00 0.00 0.00 0.00 0.00 0.00 0.00 0.01 0.01 0.01 0.02 0.03 0.03 0.03 0.04 0.04 0.05 0.05
0.35 0.24 0.13 0.10 0.13 0.13 0.10 0.07 0.04 0.03 0.02 0.02 0.02 0.01 0.01 0.01 0.01 0.01 0.00 0.00 0.00 0.00 0.00 0.00 0.00 0.00 0.00 0.00 0.00 0.00 0.00 0.00 0.00 0.01 0.01 0.02 0.02 0.03 0.03 0.04 0.07 0.08 0.08 0.06
0.19 0.11 0.09 0.09 0.09 0.07 0.04 0.03 0.03 0.02 0.02 0.03 0.02 0.01 0.01 0.00 0.01 0.01 0.01 0.00 0.00 0.00 0.00 0.00 0.00 0.00 0.00 0.00 0.00 0.00 0.00 0.00 0.01 0.01 0.02 0.02 0.03 0.03 0.04 0.08 0.18 0.21 0.15 0.12
0.16 0.10 0.08 0.06 0.06 0.05 0.03 0.02 0.02 0.02 0.02 0.02 0.02 0.01 0.01 0.00 0.00 0.00 0.01 0.00 0.00 0.00 0.00 0.00 0.00 0.00 0.00 0.00 0.00 0.00 0.00 0.00 0.01 0.01 0.02 0.03 0.03 0.03 0.06 0.09 0.24 0.33 0.23 0.27
0.12 0.08 0.09 0.06 0.04 0.04 0.04 0.02 0.02 0.02 0.02 0.01 0.01 0.01 0.01 0.01 0.01 0.00 0.00 0.00 0.00 0.00 0.00 0.00 0.00 0.00 0.00 0.00 0.00 0.01 0.01 0.01 0.02 0.02 0.03 0.03 0.04 0.04 0.05 0.07 0.13 0.14 0.15 0.25
0.05 0.03 0.04 0.05 0.04 0.03 0.03 0.02 0.02 0.02 0.02 0.01 0.01 0.01 0.01 0.01 0.01 0.00 0.00 0.00 0.00 0.00 0.00 0.00 0.00 0.00 0.00 0.00 0.00 0.01 0.01 0.02 0.03 0.03 0.04 0.04 0.05 0.07 0.08 0.06 0.05 0.06 0.07 0.12
0.03 0.03 0.05 0.05 0.05 0.04 0.02 0.02 0.02 0.02 0.01 0.01 0.01 0.01 0.01 0.01 0.01 0.01 0.01 0.01 0.00 0.00 0.00 0.00 0.00 0.00 0.00 0.00 0.00 0.01 0.01 0.02 0.04 0.05 0.06 0.07 0.08 0.10 0.11 0.12 0.09 0.05 0.04 0.05
0.03 0.03 0.04 0.03 0.04 0.04 0.03 0.02 0.02 0.02 0.02 0.01 0.01 0.01 0.01 0.01 0.01 0.01 0.01 0.01 0.00 0.00 0.00 0.00 0.00 0.00 0.00 0.00 0.01 0.01 0.02 0.03 0.06 0.07 0.07 0.08 0.10 0.12 0.12 0.13 0.11 0.08 0.05 0.05
0.03 0.03 0.03 0.03 0.04 0.04 0.04 0.03 0.03 0.03 0.03 0.02 0.02 0.02 0.02 0.01 0.01 0.01 0.01 0.01 0.01 0.00 0.00 0.00 0.00 0.00 0.01 0.01 0.01 0.02 0.02 0.04 0.07 0.08 0.09 0.10 0.11 0.13 0.15 0.15 0.14 0.12 0.10 0.09
0.06 0.05 0.04 0.04 0.04 0.05 0.05 0.04 0.04 0.04 0.04 0.04 0.03 0.03 0.02 0.02 0.01 0.01 0.01 0.01 0.01 0.01 0.01 0.00 0.00 0.00 0.01 0.01 0.02 0.03 0.04 0.05 0.08 0.09 0.11 0.13 0.16 0.18 0.19 0.20 0.20 0.16 0.12 0.11
0.07 0.06 0.06 0.06 0.06 0.05 0.06 0.05 0.04 0.05 0.05 0.05 0.04 0.04 0.03 0.03 0.03 0.03 0.02 0.02 0.02 0.02 0.01 0.01 0.01 0.01 0.01 0.01 0.03 0.05 0.07 0.09 0.11 0.14 0.15 0.16 0.20 0.21 0.23 0.24 0.22 0.20 0.14 0.11
0.07 0.07 0.06 0.06 0.06 0.06 0.07 0.08 0.07 0.06 0.06 0.06 0.05 0.05 0.05 0.05 0.05 0.05 0.05 0.04 0.03 0.03 0.03 0.02 0.02 0.01 0.01 0.03 0.07 0.09 0.11 0.13 0.14 0.14 0.15 0.17 0.19 0.18 0.21 0.24 0.24 0.21 0.18 0.16
0.09 0.09 0.08 0.07 0.06 0.06 0.08 0.10 0.09 0.08 0.07 0.07 0.07 0.07 0.06 0.06 0.06 0.07 0.08 0.07 0.06 0.05 0.05 0.05 0.03 0.03 0.05 0.08 0.12 0.13 0.12 0.13 0.16 0.17 0.18 0.20 0.22 0.22 0.23 0.25 0.25 0.23 0.21 0.19
0.13 0.11 0.10 0.09 0.08 0.08 0.08 0.10 0.12 0.11 0.10 0.09 0.10 0.09 0.09 0.08 0.08 0.08 0.09 0.11 0.10 0.09 0.08 0.07 0.06 0.08 0.13 0.15 0.13 0.11 0.12 0.16 0.19 0.21 0.24 0.26 0.27 0.27 0.26 0.26 0.26 0.25 0.24 0.22
0.17 0.15 0.14 0.12 0.12 0.12 0.12 0.12 0.14 0.14 0.14 0.13 0.13 0.12 0.11 0.11 0.11 0.11 0.12 0.14 0.15 0.14 0.11 0.09 0.10 0.13 0.16 0.15 0.12 0.12 0.15 0.19 0.22 0.25 0.29 0.31 0.35 0.35 0.31 0.29 0.30 0.27 0.25 0.24
0.22 0.20 0.19 0.19 0.19 0.18 0.17 0.18 0.19 0.18 0.19 0.19 0.19 0.18 0.16 0.16 0.15 0.15 0.17 0.18 0.17 0.16 0.15 0.13 0.13 0.15 0.17 0.15 0.13 0.15 0.19 0.23 0.28 0.32 0.34 0.35 0.37 0.38 0.39 0.36 0.34 0.32 0.31 0.29
0.30 0.27 0.27 0.28 0.26 0.24 0.26 0.27 0.26 0.26 0.27 0.27 0.27 0.25 0.24 0.22 0.22 0.22 0.23 0.22 0.20 0.17 0.17 0.16 0.16 0.17 0.18 0.17 0.18 0.22 0.26 0.30 0.36 0.37 0.37 0.37 0.37 0.38 0.40 0.40 0.38 0.33 0.31 0.30
0.35 0.34 0.33 0.33 0.35 0.37 0.36 0.33 0.31 0.31 0.30 0.31 0.31 0.30 0.29 0.27 0.26 0.27 0.25 0.22 0.20 0.18 0.17 0.18 0.19 0.20 0.20 0.21 0.25 0.30 0.32 0.34 0.42 0.46 0.46 0.44 0.40 0.38 0.37 0.37 0.37 0.34 0.31 0.28
0.39 0.38 0.39 0.40 0.41 0.42 0.39 0.35 0.34 0.34 0.31 0.30 0.31 0.31 0.30 0.29 0.28 0.26 0.23 0.22 0.21 0.21 0.22 0.23 0.24 0.25 0.26 0.28 0.31 0.34 0.36 0.37 0.43 0.44 0.42 0.40 0.37 0.35 0.34 0.34 0.32 0.29 0.27 0.25
0.42 0.40 0.38 0.38 0.40 0.40 0.39 0.37 0.37 0.36 0.33 0.29 0.29 0.30 0.29 0.27 0.26 0.25 0.23 0.22 0.23 0.24 0.25 0.26 0.27 0.29 0.31 0.32 0.35 0.36 0.36 0.38 0.44 0.48 0.43 0.39 0.37 0.36 0.34 0.32 0.29 0.26 0.25 0.25

GEFSNGP_prec_meanprecacc_150.txt.gz
Total_Precipitation_Accumulation
0.18 0.15 0.22 0.27 0.26 0.27 0.31 0.30 0.21 0.12 0.09 0.11 0.09 0.07 0.07 0.06 0.04 0.02 0.01 0.01 0.01 0.01 0.01 0.01 0.01 0.00 0.01 0.01 0.01 0.01 0.01 0.02 0.02 0.02 0.03 0.03 0.04 0.07 0.10 0.18 0.28 0.36 0.40 0.42
0.11 0.08 0.12 0.15 0.14 0.16 0.17 0.17 0.14 0.10 0.12 0.11 0.11 0.08 0.07 0.07 0.07 0.05 0.03 0.01 0.01 0.01 0.01 0.01 0.01 0.01 0.01 0.01 0.00 0.01 0.01 0.01 0.02 0.02 0.03 0.03 0.05 0.09 0.11 0.14 0.21 0.32 0.38 0.35
0.17 0.09 0.19 0.27 0.18 0.16 0.15 0.15 0.15 0.15 0.15 0.11 0.11 0.10 0.09 0.08 0.08 0.08 0.06 0.04 0.02 0.02 0.02 0.01 0.01 0.00 0.00 0.00 0.00 0.01 0.01 0.01 0.01 0.02 0.02 0.03 0.04 0.06 0.09 0.12 0.15 0.20 0.22 0.19
0.25 0.24 0.48 0.32 0.14 0.14 0.17 0.18 0.17 0.16 0.13 0.11 0.11 0.11 0.10 0.08 0.09 0.09 0.08 0.06 0.04 0.02 0.01 0.01 0.00 0.00 0.00 0.00 0.00 0.00 0.00 0.00 0.01 0.01 0.02 0.02 0.03 0.04 0.06 0.09 0.13 0.15 0.14 0.10
0.42 0.35 0.27 0.15 0.09 0.14 0.22 0.25 0.17 0.13 0.10 0.11 0.10 0.10 0.11 0.10 0.07 0.07 0.08 0.07 0.05 0.03 0.02 0.01 0.00 0.00 0.00 0.00 0.00 0.00 0.00 0.00 0.00 0.00 0.01 0.02 0.02 0.03 0.03 0.06 0.10 0.12 0.12 0.08
0.55 0.41 0.26 0.18 0.08 0.09 0.19 0.30 0.15 0.10 0.08 0.09 0.12 0.15 0.14 0.10 0.06 0.04 0.04 0.05 0.04 0.02 0.02 0.01 0.01 0.00 0.00 0.00 0.00 0.00 0.00 0.00 0.00 0.00 0.01 0.01 0.02 0.02 0.03 0.03 0.05 0.07 0.08 0.06
0.54 0.38 0.18 0.12 0.08 0.11 0.29 0.33 0.14 0.09 0.07 0.08 0.13 0.16 0.11 0.06 0.05 0.03 0.03 0.03 0.03 0.02 0.01 0.01 0.01 0.01 0.00 0.00 0.00 0.00 0.00 0.00 0.00 0.01 0.01 0.01 0.02 0.02 0.03 0.03 0.04 0.04 0.05 0.05
0.46 0.39 0.20 0.11 0.12 0.27 0.31 0.14 0.08 0.06 0.05 0.05 0.07 0.07 0.05 0.04 0.04 0.03 0.03 0.02 0.02 0.02 0.02 0.01 0.01 0.01 0.00 0.00 0.00 0.00 0.00 0.00 0.00 0.01 0.01 0.02 0.02 0.03 0.03 0.04 0.04 0.05 0.06 0.05
0.38 0.28 0.16 0.13 0.17 0.18 0.13 0.09 0.06 0.04 0.03 0.03 0.04 0.05 0.05 0.05 0.04 0.03 0.02 0.02 0.02 0.02 0.02 0.01 0.00 0.01 0.01 0.00 0.00 0.00 0.00 0.00 0.01 0.01 0.02 0.02 0.03 0.03 0.04 0.05 0.07 0.09 0.09 0.07
0.21 0.13 0.12 0.11 0.12 0.10 0.06 0.04 0.04 0.04 0.03 0.04 0.03 0.03 0.04 0.04 0.04 0.03 0.03 0.02 0.01 0.02 0.02 0.01 0.00 0.00 0.00 0.00 0.00 0.00 0.00 0.01 0.01 0.02 0.02 0.03 0.03 0.03 0.05 0.08 0.19 0.21 0.15 0.13
0.17 0.11 0.09 0.07 0.07 0.08 0.06 0.04 0.03 0.02 0.03 0.03 0.02 0.03 0.03 0.03 0.03 0.03 0.03 0.02 0.01 0.01 0.03 0.02 0.01 0.00 0.00 0.00 0.00 0.01 0.01 0.01 0.01 0.02 0.03 0.03 0.03 0.04 0.06 0.09 0.25 0.33 0.24 0.28
0.12 0.08 0.10 0.07 0.05 0.06 0.06 0.05 0.03 0.02 0.02 0.02 0.02 0.02 0.02 0.02 0.02 0.02 0.03 0.03 0.01 0.01 0.01 0.02 0.02 0.01 0.00 0.00 0.01 0.01 0.01 0.02 0.02 0.03 0.03 0.04 0.04 0.04 0.05 0.08 0.13 0.14 0.16 0.25
0.06 0.03 0.05 0.06 0.05 0.04 0.05 0.05 0.04 0.03 0.02 0.02 0.01 0.01 0.01 0.02 0.02 0.02 0.02 0.02 0.02 0.01 0.01 0.01 0.01 0.02 0.01 0.00 0.01 0.01 0.02 0.03 0.04 0.04 0.05 0.05 0.05 0.07 0.08 0.06 0.06 0.06 0.08 0.13
0.03 0.04 0.05 0.05 0.05 0.04 0.03 0.03 0.04 0.03 0.02 0.01 0.01 0.01 0.01 0.01 0.02 0.02 0.02 0.02 0.01 0.01 0.01 0.01 0.01 0.01 0.01 0.01 0.01 0.02 0.03 0.04 0.05 0.06 0.07 0.08 0.08 0.10 0.12 0.12 0.10 0.06 0.05 0.06
0.03 0.04 0.05 0.04 0.04 0.04 0.03 0.02 0.03 0.03 0.02 0.02 0.01 0.01 0.01 0.01 0.01 0.02 0.01 0.01 0.01 0.01 0.01 0.00 0.00 0.01 0.01 0.01 0.01 0.02 0.03 0.05 0.07 0.09 0.08 0.09 0.10 0.12 0.13 0.13 0.12 0.08 0.06 0.06
0.04 0.03 0.03 0.04 0.04 0.05 0.04 0.04 0.03 0.04 0.04 0.03 0.02 0.02 0.02 0.02 0.01 0.01 0.02 0.02 0.02 0.01 0.01 0.00 0.00 0.00 0.01 0.01 0.02 0.02 0.03 0.07 0.10 0.10 0.10 0.10 0.12 0.14 0.15 0.15 0.14 0.12 0.11 0.10
0.08 0.06 0.04 0.04 0.05 0.06 0.06 0.05 0.05 0.05 0.06 0.05 0.04 0.04 0.03 0.02 0.02 0.02 0.02 0.02 0.02 0.02 0.01 0.01 0.01 0.01 0.01 0.01 0.03 0.04 0.05 0.07 0.10 0.12 0.13 0.14 0.16 0.18 0.19 0.21 0.20 0.17 0.12 0.11
0.08 0.08 0.07 0.07 0.08 0.07 0.07 0.06 0.06 0.06 0.07 0.07 0.06 0.05 0.05 0.04 0.04 0.04 0.04 0.03 0.03 0.03 0.02 0.01 0.01 0.01 0.01 0.02 0.04 0.06 0.08 0.10 0.13 0.16 0.18 0.18 0.20 0.21 0.23 0.24 0.22 0.20 0.15 0.11
0.08 0.09 0.09 0.09 0.08 0.08 0.09 0.10 0.10 0.08 0.07 0.07 0.06 0.06 0.06 0.06 0.06 0.06 0.05 0.05 0.04 0.04 0.03 0.03 0.02 0.02 0.02 0.03 0.08 0.10 0.12 0.15 0.16 0.17 0.17 0.19 0.20 0.19 0.22 0.25 0.24 0.22 0.19 0.17
0.12 0.12 0.11 0.10 0.09 0.09 0.10 0.11 0.11 0.09 0.08 0.08 0.08 0.07 0.07 0.07 0.07 0.07 0.08 0.08 0.07 0.06 0.06 0.06 0.05 0.05 0.06 0.09 0.14 0.14 0.14 0.16 0.19 0.20 0.21 0.22 0.23 0.24 0.24 0.26 0.26 0.24 0.22 0.20
0.15 0.13 0.12 0.11 0.09 0.08 0.09 0.11 0.13 0.12 0.10 0.10 0.11 0.10 0.09 0.09 0.08 0.09 0.10 0.12 0.12 0.11 0.09 0.10 0.08 0.10 0.14 0.16 0.15 0.13 0.14 0.18 0.21 0.23 0.26 0.27 0.28 0.27 0.26 0.26 0.26 0.26 0.24 0.22
0.19 0.17 0.15 0.14 0.13 0.13 0.13 0.13 0.15 0.15 0.14 0.14 0.14 0.13 0.12 0.12 0.12 0.12 0.14 0.17 0.18 0.16 0.13 0.11 0.11 0.15 0.18 0.17 0.14 0.14 0.16 0.20 0.24 0.27 0.30 0.32 0.35 0.35 0.32 0.30 0.31 0.28 0.26 0.25
0.24 0.22 0.21 0.21 0.20 0.20 0.19 0.19 0.20 0.20 0.20 0.21 0.20 0.19 0.19 0.18 0.17 0.17 0.20 0.21 0.20 0.19 0.18 0.16 0.16 0.18 0.19 0.16 0.15 0.17 0.21 0.25 0.30 0.34 0.35 0.37 0.38 0.39 0.39 0.37 0.34 0.33 0.32 0.30
0.32 0.29 0.29 0.29 0.28 0.26 0.28 0.29 0.28 0.28 0.29 0.29 0.29 0.27 0.26 0.25 0.25 0.26 0.27 0.26 0.24 0.22 0.21 0.20 0.20 0.20 0.21 0.19 0.20 0.24 0.27 0.32 0.38 0.40 0.40 0.40 0.39 0.40 0.41 0.42 0.40 0.35 0.34 0.33
0.37 0.36 0.35 0.35 0.37 0.39 0.38 0.35 0.34 0.34 0.33 0.33 0.33 0.32 0.31 0.30 0.31 0.33 0.31 0.29 0.26 0.24 0.22 0.23 0.23 0.23 0.22 0.23 0.27 0.32 0.34 0.37 0.45 0.49 0.49 0.47 0.43 0.41 0.40 0.41 0.40 0.38 0.35 0.32
0.41 0.40 0.41 0.43 0.45 0.46 0.43 0.39 0.37 0.37 0.34 0.33 0.34 0.34 0.33 0.33 0.33 0.33 0.31 0.31 0.29 0.28 0.28 0.28 0.28 0.29 0.29 0.31 0.34 0.37 0.39 0.40 0.47 0.49 0.46 0.44 0.40 0.39 0.38 0.38 0.36 0.34 0.31 0.29
0.44 0.42 0.40 0.40 0.43 0.44 0.43 0.42 0.41 0.41 0.36 0.32 0.33 0.34 0.33 0.32 0.32 0.32 0.31 0.31 0.32 0.31 0.31 0.32 0.32 0.33 0.35 0.36 0.38 0.40 0.40 0.41 0.48 0.52 0.48 0.44 0.41 0.40 0.38 0.37 0.33 0.30 0.28 0.27

GEFSNGP_prec_meanprecacc_156.txt.gz
Total_Precipitation_Accumulation
0.18 0.16 0.23 0.27 0.27 0.28 0.34 0.33 0.25 0.15 0.12 0.15 0.13 0.12 0.11 0.09 0.06 0.04 0.03 0.02 0.02 0.02 0.03 0.03 0.02 0.01 0.01 0.01 0.02 0.03 0.05 0.06 0.07 0.08 0.08 0.08 0.08 0.10 0.13 0.22 0.32 0.40 0.43 0.44
0.12 0.09 0.13 0.16 0.15 0.18 0.19 0.19 0.16 0.12 0.14 0.13 0.13 0.11 0.10 0.10 0.09 0.07 0.05 0.04 0.03 0.03 0.03 0.03 0.03 0.02 0.01 0.01 0.01 0.02 0.04 0.05 0.06 0.08 0.11 0.11 0.12 0.14 0.16 0.18 0.25 0.36 0.42 0.38
0.18 0.09 0.21 0.30 0.21 0.20 0.18 0.18 0.18 0.18 0.18 0.13 0.13 0.12 0.12 0.11 0.10 0.11 0.09 0.06 0.05 0.04 0.04 0.04 0.03 0.02 0.02 0.01 0.01 0.01 0.02 0.04 0.05 0.06 0.08 0.10 0.11 0.13 0.16 0.18 0.20 0.24 0.26 0.24
0.27 0.25 0.50 0.35 0.16 0.17 0.21 0.22 0.20 0.20 0.17 0.14 0.13 0.14 0.12 0.11 0.11 0.12 0.10 0.08 0.06 0.05 0.04 0.03 0.03 0.02 0.02 0.01 0.01 0.01 0.01 0.02 0.03 0.04 0.05 0.07 0.08 0.10 0.11 0.15 0.18 0.20 0.18 0.14
0.44 0.37 0.29 0.17 0.10 0.17 0.26 0.29 0.20 0.16 0.12 0.12 0.12 0.12 0.13 0.11 0.09 0.09 0.10 0.08 0.06 0.05 0.04 0.03 0.03 0.02 0.02 0.01 0.01 0.01 0.01 0.01 0.01 0.02 0.04 0.05 0.06 0.07 0.07 0.10 0.14 0.17 0.16 0.12
0.57 0.44 0.28 0.19 0.08 0.10 0.22 0.34 0.18 0.12 0.10 0.11 0.14 0.17 0.15 0.12 0.07 0.05 0.06 0.06 0.06 0.04 0.03 0.03 0.03 0.02 0.01 0.01 0.01 0.01 0.01 0.01 0.01 0.01 0.02 0.03 0.04 0.05 0.05 0.06 0.08 0.10 0.11 0.09
0.56 0.40 0.19 0.13 0.08 0.12 0.32 0.36 0.16 0.10 0.09 0.10 0.16 0.18 0.13 0.08 0.06 0.04 0.03 0.04 0.04 0.04 0.03 0.03 0.03 0.03 0.02 0.01 0.01 0.01 0.01 0.01 0.01 0.01 0.01 0.02 0.03 0.04 0.05 0.06 0.06 0.07 0.07 0.07
0.47 0.41 0.21 0.11 0.13 0.28 0.33 0.15 0.09 0.07 0.06 0.06 0.08 0.08 0.07 0.06 0.06 0.05 0.04 0.03 0.03 0.03 0.03 0.02 0.03 0.03 0.03 0.02 0.01 0.01 0.01 0.01 0.01 0.01 0.01 0.02 0.03 0.04 0.04 0.05 0.06 0.07 0.08 0.07
0.39 0.28 0.16 0.13 0.18 0.19 0.14 0.10 0.06 0.05 0.04 0.04 0.05 0.06 0.06 0.06 0.05 0.05 0.04 0.03 0.03 0.03 0.03 0.02 0.02 0.02 0.02 0.02 0.01 0.01 0.01 0.01 0.02 0.02 0.02 0.03 0.03 0.04 0.04 0.05 0.08 0.10 0.10 0.08
0.21 0.14 0.12 0.12 0.12 0.10 0.07 0.05 0.04 0.04 0.04 0.04 0.04 0.04 0.05 0.05 0.05 0.05 0.04 0.03 0.02 0.03 0.04 0.03 0.02 0.01 0.02 0.02 0.01 0.01 0.01 0.01 0.02 0.02 0.03 0.03 0.03 0.04 0.05 0.08 0.19 0.22 0.16 0.13
0.17 0.12 0.09 0.07 0.08 0.08 0.07 0.04 0.03 0.03 0.03 0.03 0.03 0.03 0.03 0.04 0.04 0.04 0.04 0.03 0.03 0.02 0.04 0.04 0.03 0.02 0.01 0.01 0.01 0.01 0.01 0.02 0.02 0.03 0.03 0.04 0.04 0.04 0.07 0.09 0.25 0.33 0.24 0.28
0.13 0.09 0.10 0.07 0.05 0.07 0.07 0.06 0.05 0.04 0.03 0.02 0.02 0.02 0.02 0.03 0.03 0.03 0.04 0.04 0.03 0.02 0.02 0.04 0.04 0.03 0.02 0.01 0.01 0.02 0.02 0.03 0.04 0.04 0.04 0.05 0.05 0.05 0.07 0.09 0.14 0.15 0.16 0.26
0.06 0.03 0.05 0.06 0.05 0.05 0.06 0.06 0.06 0.04 0.03 0.02 0.02 0.01 0.02 0.02 0.02 0.03 0.03 0.04 0.03 0.02 0.02 0.03 0.04 0.04 0.03 0.02 0.02 0.02 0.04 0.04 0.05 0.05 0.06 0.06 0.07 0.08 0.09 0.07 0.08 0.08 0.09 0.14
0.03 0.04 0.06 0.05 0.06 0.05 0.04 0.04 0.05 0.04 0.02 0.02 0.02 0.01 0.01 0.02 0.02 0.02 0.03 0.03 0.03 0.02 0.02 0.03 0.03 0.04 0.04 0.03 0.02 0.03 0.04 0.06 0.08 0.08 0.09 0.09 0.10 0.11 0.12 0.13 0.11 0.07 0.06 0.08
0.03 0.04 0.05 0.04 0.04 0.05 0.03 0.03 0.04 0.04 0.03 0.02 0.02 0.02 0.02 0.02 0.02 0.02 0.03 0.03 0.03 0.02 0.03 0.03 0.03 0.04 0.04 0.03 0.03 0.03 0.04 0.07 0.10 0.12 0.11 0.11 0.12 0.13 0.13 0.13 0.12 0.09 0.07 0.08
0.04 0.03 0.03 0.04 0.05 0.05 0.05 0.04 0.04 0.05 0.05 0.04 0.03 0.02 0.02 0.02 0.02 0.02 0.03 0.03 0.03 0.03 0.04 0.04 0.03 0.04 0.04 0.04 0.03 0.04 0.05 0.09 0.13 0.14 0.14 0.13 0.14 0.15 0.16 0.16 0.15 0.13 0.11 0.11
0.08 0.06 0.05 0.05 0.05 0.06 0.07 0.06 0.05 0.06 0.06 0.06 0.05 0.04 0.03 0.03 0.02 0.02 0.03 0.03 0.04 0.04 0.05 0.04 0.04 0.04 0.04 0.04 0.04 0.05 0.07 0.09 0.14 0.17 0.17 0.17 0.19 0.20 0.20 0.21 0.21 0.17 0.13 0.12
0.09 0.09 0.08 0.08 0.08 0.08 0.07 0.07 0.07 0.07 0.08 0.08 0.07 0.06 0.05 0.05 0.05 0.05 0.05 0.04 0.05 0.05 0.05 0.05 0.05 0.05 0.05 0.04 0.06 0.07 0.09 0.12 0.16 0.20 0.22 0.22 0.24 0.23 0.25 0.25 0.23 0.21 0.16 0.13
0.09 0.10 0.10 0.09 0.09 0.09 0.10 0.11 0.10 0.09 0.08 0.08 0.07 0.07 0.07 0.06 0.06 0.06 0.06 0.06 0.06 0.07 0.06 0.06 0.07 0.06 0.06 0.06 0.10 0.12 0.14 0.17 0.19 0.20 0.22 0.24 0.24 0.22 0.24 0.26 0.25 0.22 0.20 0.18
0.12 0.12 0.12 0.11 0.09 0.10 0.11 0.12 0.12 0.10 0.09 0.09 0.09 0.08 0.08 0.08 0.08 0.08 0.09 0.09 0.09 0.09 0.09 0.10 0.10 0.09 0.11 0.12 0.17 0.17 0.17 0.19 0.22 0.23 0.25 0.26 0.27 0.27 0.28 0.29 0.29 0.27 0.24 0.22
0.16 0.14 0.13 0.12 0.10 0.09 0.10 0.12 0.14 0.13 0.11 0.11 0.12 0.11 0.11 0.10 0.10 0.10 0.11 0.13 0.14 0.13 0.12 0.14 0.13 0.15 0.20 0.21 0.19 0.16 0.17 0.21 0.24 0.26 0.29 0.31 0.32 0.31 0.30 0.30 0.30 0.28 0.27 0.24
0.20 0.18 0.16 0.15 0.14 0.14 0.13 0.14 0.16 0.16 0.15 0.15 0.15 0.14 0.14 0.14 0.13 0.14 0.16 0.18 0.20 0.19 0.17 0.16 0.16 0.20 0.23 0.23 0.18 0.17 0.20 0.24 0.27 0.29 0.32 0.35 0.38 0.39 0.34 0.32 0.32 0.30 0.28 0.26
0.25 0.23 0.22 0.22 0.22 0.21 0.20 0.20 0.21 0.20 0.21 0.21 0.21 0.20 0.20 0.20 0.19 0.19 0.22 0.23 0.22 0.23 0.22 0.21 0.21 0.22 0.24 0.21 0.20 0.21 0.24 0.28 0.33 0.36 0.37 0.39 0.41 0.42 0.42 0.39 0.36 0.34 0.33 0.32
0.33 0.31 0.31 0.31 0.29 0.28 0.29 0.30 0.29 0.29 0.29 0.31 0.30 0.29 0.27 0.26 0.27 0.28 0.29 0.29 0.28 0.27 0.25 0.25 0.24 0.24 0.25 0.23 0.24 0.27 0.31 0.35 0.41 0.42 0.42 0.42 0.42 0.43 0.44 0.44 0.42 0.37 0.36 0.35
0.39 0.37 0.37 0.37 0.39 0.41 0.40 0.37 0.35 0.35 0.34 0.35 0.34 0.33 0.32 0.31 0.33 0.36 0.34 0.32 0.30 0.28 0.27 0.27 0.28 0.27 0.26 0.27 0.31 0.35 0.37 0.40 0.48 0.52 0.51 0.49 0.46 0.44 0.44 0.43 0.42 0.40 0.37 0.34
0.42 0.42 0.43 0.45 0.48 0.48 0.45 0.41 0.39 0.39 0.36 0.34 0.35 0.35 0.34 0.35 0.35 0.36 0.35 0.35 0.33 0.32 0.32 0.32 0.32 0.33 0.33 0.35 0.37 0.40 0.41 0.43 0.50 0.52 0.49 0.46 0.43 0.41 0.41 0.41 0.39 0.36 0.33 0.31
0.45 0.44 0.42 0.42 0.45 0.46 0.45 0.44 0.44 0.43 0.38 0.34 0.34 0.36 0.35 0.35 0.35 0.35 0.35 0.36 0.36 0.35 0.35 0.36 0.36 0.38 0.39 0.40 0.41 0.43 0.43 0.44 0.51 0.55 0.50 0.46 0.44 0.42 0.40 0.39 0.36 0.32 0.30 0.29

GEFSNGP_prec_meanprecacc_162.txt.gz
Total_Precipitation_Accumulation
0.18 0.16 0.23 0.28 0.27 0.28 0.36 0.36 0.28 0.17 0.14 0.17 0.16 0.17 0.16 0.14 0.11 0.08 0.06 0.04 0.03 0.04 0.05 0.05 0.04 0.03 0.02 0.02 0.04 0.07 0.11 0.16 0.15 0.14 0.14 0.13 0.13 0.15 0.18 0.26 0.36 0.45 0.49 0.49
0.12 0.09 0.13 0.16 0.16 0.19 0.20 0.21 0.18 0.14 0.16 0.15 0.15 0.14 0.14 0.14 0.12 0.11 0.08 0.06 0.04 0.04 0.05 0.05 0.04 0.04 0.03 0.02 0.02 0.04 0.07 0.12 0.12 0.13 0.18 0.18 0.18 0.20 0.21 0.22 0.29 0.39 0.46 0.42
0.19 0.09 0.21 0.31 0.22 0.20 0.19 0.19 0.20 0.21 0.20 0.15 0.14 0.14 0.14 0.13 0.13 0.13 0.11 0.08 0.06 0.05 0.05 0.05 0.04 0.04 0.04 0.03 0.02 0.03 0.04 0.08 0.09 0.10 0.13 0.15 0.18 0.21 0.23 0.24 0.25 0.27 0.28 0.27
0.29 0.26 0.51 0.35 0.16 0.18 0.21 0.22 0.22 0.21 0.18 0.15 0.14 0.15 0.14 0.12 0.13 0.13 0.12 0.10 0.08 0.06 0.04 0.04 0.04 0.03 0.03 0.03 0.03 0.03 0.03 0.05 0.07 0.08 0.09 0.11 0.13 0.15 0.18 0.23 0.26 0.26 0.22 0.17
0.47 0.39 0.29 0.18 0.10 0.17 0.27 0.29 0.21 0.17 0.13 0.13 0.13 0.13 0.14 0.12 0.09 0.10 0.11 0.10 0.08 0.07 0.05 0.04 0.04 0.03 0.03 0.03 0.03 0.03 0.03 0.03 0.05 0.06 0.07 0.08 0.09 0.10 0.12 0.15 0.20 0.23 0.22 0.17
0.60 0.45 0.28 0.19 0.08 0.11 0.23 0.35 0.18 0.12 0.10 0.12 0.14 0.18 0.16 0.12 0.07 0.05 0.06 0.07 0.06 0.05 0.04 0.04 0.04 0.04 0.03 0.03 0.03 0.03 0.03 0.02 0.03 0.05 0.06 0.06 0.06 0.08 0.09 0.10 0.12 0.15 0.16 0.15
0.58 0.41 0.19 0.13 0.08 0.12 0.32 0.37 0.16 0.11 0.09 0.10 0.17 0.20 0.14 0.08 0.07 0.04 0.03 0.04 0.05 0.05 0.04 0.04 0.04 0.05 0.04 0.03 0.03 0.03 0.03 0.02 0.02 0.03 0.04 0.05 0.05 0.07 0.08 0.09 0.10 0.10 0.11 0.11
0.48 0.42 0.22 0.11 0.13 0.28 0.34 0.15 0.09 0.07 0.06 0.07 0.09 0.09 0.08 0.07 0.06 0.05 0.04 0.03 0.04 0.04 0.04 0.03 0.03 0.04 0.05 0.04 0.03 0.03 0.02 0.02 0.02 0.03 0.04 0.05 0.05 0.06 0.07 0.09 0.10 0.10 0.11 0.11
0.39 0.29 0.17 0.13 0.18 0.19 0.15 0.11 0.06 0.05 0.04 0.05 0.06 0.06 0.07 0.07 0.06 0.06 0.04 0.03 0.03 0.04 0.04 0.04 0.03 0.03 0.04 0.05 0.04 0.03 0.03 0.03 0.03 0.04 0.04 0.05 0.06 0.06 0.07 0.08 0.11 0.13 0.12 0.11
0.22 0.14 0.12 0.12 0.12 0.10 0.07 0.06 0.05 0.05 0.05 0.05 0.04 0.05 0.06 0.06 0.05 0.05 0.05 0.03 0.03 0.04 0.05 0.04 0.03 0.02 0.03 0.04 0.04 0.05 0.04 0.03 0.04 0.04 0.05 0.06 0.06 0.06 0.07 0.10 0.21 0.23 0.17 0.15
0.17 0.12 0.09 0.07 0.08 0.09 0.07 0.05 0.04 0.04 0.05 0.05 0.04 0.05 0.05 0.05 0.05 0.05 0.04 0.04 0.03 0.04 0.05 0.05 0.04 0.03 0.02 0.03 0.04 0.06 0.05 0.05 0.05 0.06 0.06 0.07 0.07 0.07 0.09 0.11 0.26 0.35 0.25 0.29
0.13 0.09 0.10 0.07 0.05 0.07 0.08 0.07 0.06 0.06 0.05 0.04 0.04 0.04 0.04 0.04 0.04 0.04 0.04 0.04 0.04 0.03 0.04 0.05 0.05 0.05 0.03 0.03 0.05 0.06 0.07 0.07 0.07 0.07 0.08 0.08 0.08 0.08 0.10 0.12 0.17 0.17 0.18 0.27
0.06 0.04 0.05 0.06 0.05 0.05 0.07 0.07 0.07 0.06 0.05 0.04 0.04 0.03 0.03 0.04 0.04 0.04 0.04 0.04 0.04 0.04 0.04 0.05 0.05 0.06 0.05 0.04 0.05 0.07 0.08 0.09 0.09 0.09 0.09 0.10 0.10 0.11 0.11 0.10 0.11 0.10 0.11 0.16
0.04 0.04 0.06 0.05 0.06 0.05 0.04 0.05 0.06 0.06 0.05 0.04 0.04 0.04 0.03 0.04 0.04 0.04 0.03 0.04 0.03 0.04 0.05 0.06 0.05 0.05 0.06 0.05 0.05 0.07 0.09 0.10 0.11 0.12 0.12 0.13 0.14 0.14 0.15 0.15 0.13 0.09 0.08 0.10
0.03 0.05 0.05 0.04 0.04 0.05 0.04 0.04 0.05 0.06 0.05 0.04 0.04 0.04 0.03 0.03 0.04 0.04 0.03 0.03 0.03 0.04 0.05 0.06 0.06 0.06 0.06 0.06 0.05 0.06 0.10 0.12 0.13 0.15 0.15 0.14 0.15 0.16 0.16 0.16 0.14 0.11 0.08 0.10
0.04 0.03 0.03 0.04 0.05 0.05 0.05 0.04 0.05 0.06 0.06 0.05 0.05 0.04 0.04 0.03 0.03 0.03 0.03 0.04 0.04 0.05 0.06 0.07 0.07 0.07 0.08 0.07 0.06 0.07 0.09 0.16 0.18 0.17 0.17 0.16 0.18 0.18 0.19 0.18 0.17 0.15 0.14 0.13
0.09 0.06 0.05 0.05 0.05 0.06 0.07 0.06 0.06 0.07 0.08 0.07 0.07 0.06 0.05 0.04 0.03 0.03 0.03 0.04 0.05 0.06 0.07 0.08 0.08 0.08 0.09 0.08 0.08 0.09 0.11 0.15 0.19 0.21 0.21 0.21 0.22 0.23 0.23 0.24 0.23 0.20 0.15 0.15
0.10 0.09 0.08 0.09 0.09 0.08 0.08 0.07 0.07 0.08 0.09 0.09 0.08 0.08 0.07 0.06 0.05 0.05 0.05 0.06 0.06 0.07 0.08 0.09 0.10 0.10 0.10 0.10 0.12 0.12 0.14 0.16 0.20 0.26 0.27 0.27 0.29 0.27 0.27 0.28 0.25 0.23 0.18 0.16
0.10 0.10 0.10 0.10 0.10 0.10 0.11 0.12 0.11 0.10 0.09 0.08 0.08 0.08 0.08 0.07 0.07 0.07 0.07 0.07 0.07 0.08 0.09 0.10 0.13 0.12 0.12 0.14 0.19 0.19 0.19 0.22 0.24 0.26 0.27 0.30 0.31 0.28 0.28 0.29 0.28 0.25 0.23 0.21
0.12 0.13 0.13 0.12 0.10 0.11 0.12 0.13 0.13 0.11 0.09 0.09 0.10 0.09 0.09 0.09 0.09 0.09 0.10 0.10 0.10 0.11 0.12 0.14 0.15 0.16 0.18 0.21 0.27 0.25 0.23 0.24 0.28 0.29 0.30 0.32 0.34 0.35 0.34 0.34 0.33 0.31 0.27 0.25
0.16 0.15 0.14 0.12 0.11 0.10 0.11 0.13 0.15 0.13 0.11 0.12 0.13 0.12 0.12 0.11 0.11 0.12 0.13 0.15 0.15 0.15 0.16 0.18 0.19 0.22 0.28 0.31 0.30 0.26 0.25 0.28 0.30 0.32 0.34 0.37 0.39 0.39 0.38 0.36 0.35 0.33 0.31 0.29
0.20 0.19 0.17 0.15 0.14 0.15 0.14 0.15 0.17 0.17 0.15 0.15 0.16 0.15 0.15 0.15 0.15 0.16 0.18 0.21 0.21 0.22 0.21 0.21 0.22 0.28 0.33 0.34 0.29 0.28 0.30 0.33 0.33 0.34 0.37 0.40 0.45 0.46 0.42 0.38 0.37 0.34 0.33 0.31
0.26 0.24 0.23 0.22 0.22 0.22 0.21 0.21 0.22 0.21 0.22 0.22 0.22 0.21 0.21 0.22 0.21 0.21 0.24 0.25 0.24 0.25 0.25 0.25 0.27 0.31 0.34 0.33 0.31 0.31 0.34 0.38 0.40 0.41 0.42 0.44 0.46 0.47 0.47 0.44 0.40 0.38 0.38 0.37
0.34 0.31 0.31 0.32 0.30 0.29 0.30 0.30 0.30 0.30 0.30 0.31 0.31 0.30 0.28 0.28 0.28 0.29 0.31 0.31 0.31 0.30 0.29 0.30 0.30 0.32 0.34 0.32 0.33 0.37 0.40 0.44 0.49 0.49 0.48 0.48 0.48 0.48 0.48 0.47 0.46 0.41 0.39 0.39
0.40 0.38 0.37 0.38 0.40 0.42 0.41 0.38 0.36 0.36 0.35 0.35 0.35 0.34 0.33 0.32 0.34 0.37 0.36 0.34 0.34 0.32 0.31 0.32 0.32 0.33 0.32 0.34 0.39 0.44 0.47 0.50 0.57 0.59 0.57 0.55 0.51 0.48 0.47 0.47 0.46 0.43 0.40 0.38
0.43 0.43 0.44 0.46 0.49 0.49 0.47 0.42 0.41 0.40 0.37 0.35 0.36 0.36 0.35 0.36 0.37 0.38 0.38 0.37 0.36 0.36 0.36 0.35 0.36 0.37 0.39 0.42 0.45 0.49 0.51 0.55 0.61 0.60 0.56 0.53 0.48 0.46 0.45 0.45 0.42 0.39 0.35 0.34
0.47 0.45 0.43 0.43 0.46 0.48 0.47 0.46 0.45 0.44 0.39 0.35 0.36 0.37 0.37 0.36 0.37 0.38 0.38 0.38 0.39 0.39 0.39 0.40 0.40 0.42 0.44 0.46 0.49 0.51 0.52 0.54 0.61 0.64 0.58 0.53 0.50 0.47 0.45 0.43 0.40 0.35 0.33 0.32

GEFSNGP_prec_meanprecacc_168.txt.gz
Total_Precipitation_Accumulation
0.18 0.16 0.23 0.28 0.27 0.29 0.36 0.37 0.29 0.18 0.15 0.18 0.17 0.18 0.17 0.15 0.13 0.09 0.08 0.05 0.04 0.05 0.08 0.09 0.08 0.06 0.07 0.08 0.12 0.21 0.28 0.34 0.34 0.32 0.33 0.30 0.28 0.28 0.30 0.38 0.48 0.58 0.62 0.63
0.13 0.09 0.13 0.17 0.16 0.19 0.20 0.21 0.19 0.14 0.16 0.15 0.16 0.15 0.15 0.15 0.14 0.12 0.10 0.08 0.05 0.05 0.06 0.08 0.08 0.08 0.07 0.07 0.09 0.14 0.20 0.26 0.29 0.30 0.36 0.36 0.33 0.32 0.31 0.34 0.42 0.51 0.58 0.54
0.20 0.09 0.22 0.32 0.22 0.20 0.19 0.19 0.20 0.21 0.21 0.15 0.15 0.15 0.15 0.14 0.14 0.15 0.13 0.10 0.08 0.06 0.06 0.07 0.07 0.08 0.08 0.07 0.07 0.09 0.12 0.18 0.24 0.25 0.28 0.32 0.32 0.32 0.31 0.33 0.36 0.39 0.39 0.36
0.32 0.28 0.52 0.36 0.16 0.18 0.22 0.23 0.22 0.22 0.18 0.15 0.15 0.16 0.14 0.13 0.14 0.15 0.14 0.11 0.09 0.08 0.06 0.05 0.05 0.06 0.07 0.08 0.07 0.08 0.09 0.11 0.18 0.21 0.22 0.26 0.26 0.25 0.26 0.31 0.36 0.35 0.32 0.26
0.52 0.41 0.30 0.18 0.10 0.17 0.27 0.29 0.21 0.17 0.13 0.13 0.13 0.13 0.14 0.13 0.10 0.10 0.12 0.11 0.09 0.08 0.07 0.05 0.05 0.05 0.06 0.07 0.07 0.06 0.08 0.08 0.12 0.17 0.19 0.21 0.22 0.19 0.19 0.23 0.29 0.32 0.29 0.24
0.65 0.49 0.29 0.19 0.08 0.11 0.23 0.35 0.18 0.12 0.11 0.12 0.15 0.19 0.16 0.12 0.08 0.06 0.07 0.08 0.07 0.06 0.05 0.05 0.05 0.05 0.05 0.06 0.06 0.05 0.07 0.07 0.08 0.13 0.15 0.15 0.16 0.16 0.16 0.16 0.19 0.23 0.24 0.22
0.61 0.45 0.20 0.13 0.08 0.13 0.33 0.37 0.16 0.11 0.09 0.11 0.17 0.21 0.14 0.09 0.08 0.05 0.05 0.05 0.06 0.05 0.05 0.05 0.05 0.06 0.05 0.06 0.06 0.05 0.05 0.06 0.06 0.08 0.12 0.13 0.14 0.14 0.15 0.15 0.15 0.16 0.16 0.17
0.51 0.46 0.23 0.11 0.13 0.28 0.34 0.15 0.09 0.07 0.07 0.07 0.09 0.10 0.08 0.07 0.07 0.06 0.04 0.04 0.05 0.05 0.05 0.04 0.04 0.05 0.06 0.06 0.06 0.05 0.04 0.06 0.06 0.06 0.10 0.12 0.13 0.14 0.14 0.16 0.16 0.15 0.16 0.16
0.40 0.30 0.17 0.13 0.19 0.19 0.15 0.11 0.07 0.06 0.05 0.06 0.06 0.07 0.08 0.08 0.06 0.06 0.05 0.04 0.04 0.05 0.05 0.04 0.03 0.04 0.05 0.06 0.06 0.05 0.05 0.06 0.07 0.07 0.10 0.12 0.13 0.14 0.15 0.16 0.19 0.19 0.17 0.15
0.22 0.14 0.12 0.12 0.12 0.11 0.07 0.07 0.06 0.06 0.06 0.06 0.05 0.05 0.07 0.07 0.08 0.08 0.07 0.05 0.04 0.04 0.05 0.05 0.04 0.03 0.04 0.05 0.06 0.07 0.06 0.07 0.08 0.08 0.09 0.11 0.13 0.14 0.14 0.17 0.27 0.29 0.21 0.18
0.18 0.12 0.09 0.07 0.08 0.09 0.07 0.06 0.05 0.05 0.06 0.06 0.05 0.05 0.05 0.06 0.07 0.07 0.06 0.05 0.04 0.04 0.05 0.05 0.05 0.04 0.03 0.04 0.06 0.08 0.08 0.09 0.09 0.10 0.10 0.11 0.13 0.14 0.16 0.17 0.33 0.41 0.29 0.32
0.13 0.09 0.10 0.07 0.05 0.07 0.08 0.07 0.07 0.07 0.06 0.05 0.05 0.04 0.05 0.06 0.06 0.05 0.06 0.05 0.05 0.04 0.05 0.06 0.06 0.05 0.04 0.04 0.06 0.09 0.10 0.12 0.12 0.11 0.12 0.12 0.13 0.14 0.18 0.19 0.24 0.24 0.24 0.33
0.07 0.04 0.05 0.06 0.05 0.05 0.07 0.08 0.08 0.08 0.07 0.06 0.05 0.04 0.05 0.06 0.05 0.05 0.05 0.05 0.05 0.05 0.06 0.06 0.06 0.07 0.06 0.05 0.06 0.09 0.12 0.14 0.14 0.13 0.14 0.15 0.15 0.16 0.16 0.16 0.18 0.18 0.18 0.22
0.04 0.04 0.06 0.05 0.06 0.05 0.05 0.06 0.07 0.07 0.06 0.06 0.05 0.05 0.04 0.05 0.05 0.05 0.04 0.04 0.04 0.05 0.06 0.08 0.07 0.07 0.07 0.07 0.07 0.10 0.14 0.17 0.17 0.17 0.17 0.18 0.19 0.19 0.19 0.19 0.17 0.16 0.16 0.19
0.03 0.05 0.06 0.04 0.04 0.05 0.04 0.04 0.06 0.07 0.06 0.06 0.05 0.05 0.05 0.05 0.06 0.05 0.04 0.04 0.04 0.04 0.06 0.07 0.08 0.08 0.08 0.08 0.08 0.10 0.16 0.19 0.20 0.21 0.21 0.21 0.21 0.22 0.22 0.21 0.19 0.16 0.15 0.20
0.04 0.03 0.03 0.04 0.05 0.06 0.05 0.05 0.06 0.07 0.07 0.07 0.07 0.06 0.06 0.06 0.05 0.04 0.04 0.04 0.05 0.06 0.07 0.08 0.08 0.09 0.10 0.10 0.09 0.11 0.16 0.24 0.25 0.24 0.24 0.23 0.24 0.25 0.25 0.25 0.24 0.22 0.21 0.20
0.09 0.06 0.05 0.05 0.05 0.07 0.07 0.07 0.07 0.08 0.09 0.09 0.09 0.08 0.08 0.07 0.05 0.05 0.05 0.05 0.06 0.06 0.08 0.09 0.09 0.09 0.11 0.11 0.11 0.13 0.17 0.22 0.28 0.28 0.28 0.28 0.30 0.30 0.31 0.33 0.31 0.28 0.24 0.24
0.10 0.09 0.08 0.09 0.10 0.09 0.09 0.08 0.08 0.09 0.10 0.10 0.10 0.10 0.09 0.08 0.08 0.07 0.07 0.06 0.07 0.07 0.08 0.10 0.11 0.11 0.12 0.13 0.15 0.17 0.21 0.24 0.28 0.33 0.35 0.35 0.36 0.34 0.35 0.36 0.34 0.31 0.26 0.25
0.10 0.10 0.10 0.10 0.10 0.10 0.12 0.13 0.12 0.10 0.10 0.09 0.09 0.09 0.09 0.09 0.09 0.09 0.08 0.08 0.08 0.09 0.10 0.11 0.14 0.14 0.15 0.18 0.24 0.26 0.28 0.30 0.33 0.34 0.36 0.40 0.41 0.37 0.37 0.37 0.36 0.33 0.31 0.29
0.12 0.13 0.13 0.12 0.10 0.11 0.12 0.14 0.14 0.12 0.10 0.10 0.11 0.10 0.10 0.10 0.11 0.11 0.11 0.11 0.11 0.12 0.14 0.16 0.16 0.18 0.21 0.26 0.33 0.35 0.33 0.35 0.38 0.39 0.40 0.42 0.44 0.46 0.45 0.43 0.41 0.38 0.35 0.33
0.16 0.15 0.14 0.13 0.11 0.10 0.11 0.13 0.15 0.14 0.12 0.12 0.14 0.14 0.13 0.13 0.13 0.13 0.14 0.16 0.16 0.17 0.18 0.21 0.21 0.25 0.33 0.37 0.38 0.36 0.37 0.40 0.42 0.42 0.44 0.46 0.48 0.49 0.48 0.45 0.43 0.41 0.39 0.36
0.20 0.19 0.17 0.15 0.15 0.15 0.15 0.15 0.17 0.18 0.16 0.16 0.17 0.17 0.17 0.17 0.16 0.17 0.19 0.22 0.24 0.24 0.24 0.23 0.25 0.32 0.39 0.42 0.39 0.40 0.43 0.46 0.46 0.45 0.45 0.47 0.53 0.56 0.51 0.47 0.46 0.42 0.40 0.39
0.26 0.24 0.23 0.23 0.23 0.23 0.22 0.22 0.23 0.23 0.23 0.24 0.23 0.22 0.22 0.23 0.22 0.22 0.26 0.27 0.27 0.28 0.28 0.28 0.31 0.35 0.40 0.41 0.42 0.44 0.48 0.53 0.53 0.50 0.49 0.51 0.54 0.57 0.56 0.52 0.48 0.46 0.46 0.44
0.34 0.32 0.31 0.32 0.31 0.30 0.31 0.32 0.32 0.32 0.32 0.33 0.33 0.31 0.29 0.29 0.29 0.30 0.32 0.33 0.33 0.32 0.32 0.33 0.34 0.36 0.40 0.40 0.44 0.50 0.54 0.58 0.60 0.57 0.55 0.55 0.55 0.56 0.57 0.55 0.52 0.47 0.46 0.46
0.40 0.38 0.38 0.38 0.41 0.43 0.42 0.39 0.37 0.37 0.36 0.37 0.37 0.36 0.35 0.34 0.36 0.39 0.38 0.36 0.36 0.34 0.33 0.34 0.36 0.37 0.38 0.42 0.49 0.55 0.59 0.62 0.67 0.67 0.65 0.63 0.59 0.57 0.56 0.55 0.53 0.49 0.46 0.43
0.44 0.44 0.45 0.47 0.50 0.50 0.47 0.43 0.42 0.41 0.38 0.37 0.37 0.37 0.37 0.38 0.39 0.40 0.40 0.39 0.38 0.39 0.38 0.38 0.39 0.41 0.44 0.49 0.54 0.59 0.62 0.66 0.71 0.70 0.64 0.61 0.57 0.55 0.54 0.53 0.49 0.45 0.40 0.38
0.47 0.46 0.44 0.44 0.47 0.48 0.48 0.47 0.47 0.46 0.41 0.37 0.37 0.38 0.39 0.39 0.40 0.41 0.41 0.40 0.41 0.41 0.42 0.43 0.44 0.46 0.49 0.53 0.57 0.60 0.62 0.65 0.71 0.73 0.67 0.62 0.59 0.57 0.54 0.51 0.45 0.40 0.38 0.37

GEFSNGP_prec_meanprecacc_174.txt.gz
Total_Precipitation_Accumulation
0.19 0.16 0.23 0.28 0.27 0.29 0.37 0.38 0.30 0.18 0.15 0.18 0.17 0.18 0.18 0.15 0.13 0.10 0.08 0.06 0.05 0.07 0.10 0.11 0.10 0.08 0.09 0.13 0.19 0.33 0.47 0.60 0.57 0.51 0.53 0.54 0.54 0.54 0.59 0.65 0.71 0.79 0.83 0.85
0.14 0.09 0.13 0.17 0.16 0.19 0.20 0.21 0.19 0.14 0.16 0.15 0.16 0.15 0.15 0.15 0.14 0.13 0.10 0.08 0.06 0.07 0.08 0.09 0.10 0.09 0.09 0.11 0.15 0.23 0.36 0.50 0.52 0.50 0.55 0.58 0.56 0.58 0.59 0.61 0.66 0.74 0.76 0.72
0.23 0.10 0.23 0.33 0.22 0.20 0.19 0.19 0.20 0.21 0.21 0.15 0.15 0.15 0.15 0.15 0.14 0.15 0.14 0.11 0.09 0.08 0.08 0.08 0.08 0.09 0.10 0.11 0.13 0.17 0.26 0.39 0.45 0.45 0.47 0.52 0.53 0.56 0.58 0.59 0.59 0.62 0.61 0.56
0.38 0.30 0.55 0.37 0.16 0.18 0.22 0.23 0.22 0.22 0.18 0.15 0.15 0.16 0.14 0.13 0.14 0.15 0.14 0.12 0.10 0.09 0.07 0.06 0.06 0.07 0.09 0.11 0.12 0.14 0.21 0.31 0.39 0.40 0.41 0.43 0.46 0.46 0.49 0.55 0.59 0.55 0.51 0.43
0.59 0.46 0.32 0.18 0.10 0.17 0.27 0.29 0.21 0.17 0.13 0.13 0.13 0.14 0.14 0.13 0.10 0.11 0.13 0.12 0.10 0.09 0.08 0.06 0.06 0.06 0.07 0.10 0.11 0.12 0.19 0.27 0.31 0.36 0.36 0.37 0.39 0.39 0.39 0.43 0.52 0.51 0.47 0.41
0.73 0.54 0.31 0.20 0.08 0.11 0.23 0.35 0.18 0.12 0.11 0.12 0.15 0.20 0.17 0.12 0.08 0.06 0.08 0.09 0.08 0.06 0.06 0.06 0.06 0.06 0.07 0.10 0.11 0.11 0.16 0.23 0.25 0.29 0.30 0.30 0.31 0.34 0.35 0.34 0.38 0.43 0.42 0.39
0.66 0.50 0.22 0.13 0.08 0.13 0.33 0.37 0.16 0.11 0.10 0.11 0.18 0.21 0.15 0.09 0.08 0.06 0.06 0.06 0.06 0.06 0.06 0.05 0.06 0.06 0.07 0.09 0.12 0.10 0.12 0.18 0.21 0.23 0.25 0.25 0.27 0.27 0.32 0.34 0.33 0.34 0.33 0.33
0.53 0.52 0.25 0.11 0.13 0.29 0.34 0.15 0.09 0.08 0.07 0.08 0.10 0.10 0.08 0.08 0.08 0.07 0.05 0.05 0.05 0.05 0.05 0.05 0.05 0.06 0.07 0.08 0.11 0.10 0.10 0.13 0.18 0.21 0.23 0.22 0.25 0.26 0.28 0.32 0.34 0.32 0.31 0.31
0.41 0.31 0.17 0.14 0.19 0.19 0.15 0.11 0.07 0.06 0.05 0.06 0.07 0.07 0.08 0.08 0.08 0.08 0.06 0.04 0.04 0.05 0.05 0.04 0.04 0.04 0.06 0.08 0.10 0.11 0.11 0.12 0.16 0.20 0.23 0.22 0.23 0.26 0.28 0.30 0.35 0.35 0.33 0.30
0.23 0.14 0.12 0.12 0.12 0.11 0.08 0.07 0.06 0.07 0.07 0.07 0.06 0.06 0.08 0.08 0.09 0.10 0.08 0.05 0.04 0.05 0.06 0.05 0.04 0.03 0.04 0.07 0.10 0.12 0.11 0.13 0.15 0.18 0.21 0.22 0.22 0.24 0.28 0.32 0.42 0.45 0.35 0.31
0.19 0.12 0.09 0.07 0.08 0.09 0.07 0.06 0.05 0.05 0.06 0.07 0.07 0.06 0.07 0.08 0.09 0.09 0.09 0.06 0.05 0.05 0.06 0.06 0.05 0.04 0.04 0.06 0.10 0.11 0.13 0.13 0.15 0.16 0.19 0.19 0.21 0.23 0.28 0.30 0.46 0.56 0.43 0.43
0.14 0.09 0.11 0.08 0.05 0.07 0.09 0.08 0.07 0.07 0.06 0.05 0.06 0.06 0.07 0.08 0.08 0.08 0.08 0.06 0.06 0.05 0.06 0.07 0.06 0.06 0.05 0.07 0.10 0.12 0.14 0.16 0.16 0.17 0.20 0.20 0.20 0.23 0.28 0.30 0.35 0.36 0.38 0.45
0.07 0.04 0.05 0.06 0.05 0.05 0.07 0.08 0.09 0.09 0.08 0.07 0.06 0.06 0.07 0.07 0.07 0.08 0.06 0.05 0.05 0.06 0.07 0.08 0.07 0.07 0.07 0.08 0.09 0.11 0.15 0.18 0.18 0.18 0.21 0.23 0.21 0.24 0.24 0.25 0.29 0.30 0.31 0.35
0.04 0.05 0.06 0.05 0.06 0.05 0.05 0.06 0.08 0.08 0.07 0.07 0.07 0.07 0.07 0.07 0.07 0.06 0.05 0.05 0.05 0.05 0.07 0.09 0.08 0.08 0.10 0.10 0.09 0.11 0.16 0.20 0.22 0.22 0.24 0.25 0.25 0.26 0.26 0.26 0.26 0.27 0.31 0.33
0.03 0.05 0.06 0.04 0.04 0.05 0.04 0.05 0.06 0.07 0.07 0.07 0.07 0.06 0.07 0.08 0.07 0.05 0.05 0.05 0.05 0.05 0.06 0.08 0.09 0.10 0.11 0.11 0.10 0.13 0.19 0.23 0.25 0.26 0.28 0.28 0.29 0.31 0.29 0.27 0.26 0.26 0.30 0.38
0.04 0.03 0.03 0.04 0.05 0.06 0.05 0.05 0.07 0.08 0.08 0.08 0.08 0.09 0.10 0.08 0.06 0.05 0.04 0.05 0.05 0.06 0.07 0.08 0.09 0.11 0.13 0.12 0.12 0.14 0.19 0.28 0.31 0.31 0.31 0.32 0.32 0.33 0.33 0.31 0.30 0.31 0.32 0.35
0.09 0.06 0.05 0.05 0.06 0.07 0.07 0.07 0.08 0.09 0.10 0.10 0.10 0.11 0.10 0.08 0.06 0.05 0.05 0.05 0.06 0.07 0.08 0.09 0.10 0.12 0.14 0.13 0.14 0.17 0.21 0.26 0.33 0.35 0.35 0.37 0.38 0.38 0.38 0.39 0.38 0.36 0.34 0.37
0.10 0.09 0.09 0.10 0.10 0.09 0.09 0.09 0.09 0.10 0.11 0.11 0.11 0.11 0.11 0.10 0.09 0.08 0.07 0.07 0.07 0.07 0.09 0.11 0.13 0.14 0.14 0.15 0.19 0.21 0.24 0.28 0.34 0.41 0.44 0.45 0.45 0.43 0.44 0.45 0.41 0.39 0.35 0.36
0.10 0.10 0.10 0.10 0.11 0.11 0.12 0.13 0.13 0.11 0.10 0.10 0.10 0.11 0.12 0.11 0.11 0.10 0.09 0.08 0.09 0.10 0.12 0.14 0.17 0.17 0.17 0.21 0.28 0.30 0.31 0.34 0.39 0.43 0.46 0.51 0.51 0.47 0.47 0.47 0.45 0.42 0.39 0.37
0.12 0.13 0.13 0.12 0.11 0.12 0.13 0.14 0.14 0.12 0.11 0.11 0.11 0.11 0.12 0.12 0.13 0.13 0.12 0.12 0.13 0.16 0.17 0.20 0.20 0.21 0.25 0.31 0.39 0.39 0.37 0.40 0.45 0.49 0.51 0.53 0.54 0.57 0.56 0.54 0.51 0.48 0.44 0.41
0.16 0.15 0.14 0.13 0.12 0.11 0.12 0.14 0.16 0.15 0.12 0.13 0.15 0.15 0.15 0.15 0.14 0.15 0.16 0.18 0.19 0.20 0.22 0.24 0.25 0.29 0.38 0.43 0.43 0.40 0.41 0.45 0.49 0.52 0.56 0.58 0.59 0.61 0.61 0.58 0.54 0.51 0.48 0.45
0.20 0.19 0.17 0.16 0.16 0.16 0.16 0.16 0.18 0.18 0.17 0.17 0.18 0.18 0.18 0.18 0.17 0.18 0.21 0.25 0.27 0.27 0.26 0.26 0.28 0.36 0.43 0.46 0.43 0.44 0.47 0.51 0.54 0.54 0.57 0.59 0.64 0.68 0.64 0.60 0.57 0.52 0.51 0.48
0.26 0.24 0.23 0.23 0.24 0.24 0.23 0.23 0.24 0.24 0.24 0.25 0.25 0.24 0.24 0.24 0.23 0.24 0.28 0.30 0.30 0.31 0.31 0.31 0.34 0.39 0.44 0.45 0.46 0.48 0.53 0.60 0.62 0.60 0.60 0.62 0.66 0.69 0.70 0.65 0.58 0.56 0.57 0.55
0.34 0.32 0.32 0.33 0.32 0.30 0.32 0.33 0.32 0.33 0.33 0.34 0.34 0.32 0.31 0.30 0.30 0.32 0.35 0.36 0.35 0.34 0.35 0.36 0.38 0.40 0.44 0.45 0.49 0.56 0.61 0.66 0.69 0.66 0.65 0.65 0.67 0.70 0.71 0.68 0.63 0.57 0.57 0.57
0.40 0.39 0.38 0.39 0.41 0.44 0.42 0.40 0.38 0.38 0.36 0.37 0.38 0.37 0.36 0.35 0.38 0.41 0.40 0.38 0.37 0.36 0.36 0.37 0.38 0.40 0.42 0.47 0.55 0.63 0.67 0.70 0.76 0.76 0.74 0.73 0.71 0.70 0.69 0.66 0.63 0.59 0.56 0.53
0.44 0.45 0.46 0.48 0.51 0.51 0.48 0.44 0.42 0.42 0.39 0.37 0.38 0.38 0.38 0.39 0.40 0.42 0.41 0.41 0.39 0.40 0.40 0.40 0.41 0.44 0.48 0.54 0.60 0.66 0.70 0.74 0.80 0.79 0.73 0.70 0.67 0.67 0.67 0.65 0.60 0.54 0.49 0.47
0.47 0.46 0.44 0.45 0.48 0.49 0.49 0.48 0.47 0.46 0.42 0.38 0.38 0.39 0.40 0.40 0.41 0.42 0.42 0.41 0.42 0.43 0.44 0.45 0.46 0.49 0.53 0.58 0.62 0.66 0.69 0.73 0.80 0.82 0.76 0.71 0.69 0.67 0.65 0.62 0.55 0.49 0.45 0.44

GEFSNGP_prec_meanprecacc_180.txt.gz
Total_Precipitation_Accumulation
0.19 0.16 0.24 0.29 0.28 0.29 0.38 0.39 0.31 0.18 0.15 0.18 0.17 0.18 0.18 0.15 0.13 0.10 0.09 0.07 0.07 0.09 0.11 0.12 0.12 0.11 0.12 0.18 0.25 0.40 0.57 0.72 0.72 0.65 0.66 0.69 0.70 0.75 0.81 0.86 0.92 1.04 1.16 1.26
0.15 0.09 0.13 0.18 0.16 0.19 0.20 0.21 0.19 0.15 0.16 0.15 0.16 0.15 0.15 0.15 0.14 0.13 0.11 0.09 0.07 0.08 0.10 0.11 0.11 0.11 0.12 0.14 0.21 0.31 0.44 0.60 0.69 0.67 0.67 0.71 0.70 0.76 0.82 0.86 0.90 1.00 1.05 1.06
0.26 0.10 0.24 0.35 0.23 0.20 0.19 0.19 0.20 0.21 0.21 0.15 0.15 0.15 0.15 0.15 0.14 0.15 0.14 0.12 0.10 0.09 0.09 0.09 0.10 0.11 0.12 0.14 0.16 0.22 0.33 0.48 0.61 0.63 0.61 0.64 0.66 0.73 0.80 0.86 0.85 0.89 0.90 0.85
0.43 0.33 0.58 0.37 0.16 0.18 0.22 0.23 0.22 0.22 0.18 0.15 0.15 0.16 0.14 0.13 0.14 0.16 0.15 0.13 0.12 0.10 0.08 0.07 0.07 0.08 0.11 0.13 0.15 0.18 0.26 0.39 0.53 0.60 0.58 0.57 0.59 0.62 0.69 0.79 0.85 0.81 0.76 0.70
0.65 0.49 0.33 0.18 0.10 0.17 0.27 0.29 0.21 0.17 0.13 0.13 0.13 0.14 0.14 0.13 0.10 0.11 0.13 0.13 0.11 0.11 0.09 0.07 0.06 0.07 0.09 0.13 0.14 0.16 0.25 0.35 0.44 0.55 0.55 0.52 0.55 0.55 0.59 0.65 0.75 0.75 0.69 0.65
0.78 0.58 0.32 0.20 0.08 0.11 0.23 0.35 0.18 0.12 0.11 0.12 0.15 0.20 0.17 0.12 0.08 0.06 0.08 0.09 0.09 0.08 0.08 0.07 0.07 0.07 0.09 0.13 0.14 0.15 0.24 0.34 0.37 0.44 0.48 0.46 0.49 0.52 0.55 0.56 0.59 0.63 0.59 0.57
0.71 0.54 0.23 0.13 0.08 0.13 0.33 0.38 0.16 0.11 0.10 0.11 0.18 0.22 0.15 0.09 0.08 0.06 0.06 0.07 0.07 0.08 0.07 0.07 0.08 0.09 0.10 0.14 0.16 0.16 0.21 0.29 0.33 0.36 0.39 0.40 0.44 0.44 0.49 0.52 0.52 0.51 0.48 0.48
0.56 0.56 0.27 0.11 0.13 0.29 0.34 0.15 0.09 0.08 0.07 0.08 0.10 0.10 0.08 0.08 0.08 0.07 0.06 0.06 0.06 0.07 0.07 0.07 0.07 0.09 0.11 0.14 0.17 0.17 0.19 0.23 0.30 0.33 0.34 0.35 0.40 0.40 0.41 0.47 0.49 0.48 0.46 0.45
0.42 0.31 0.17 0.14 0.19 0.20 0.16 0.11 0.07 0.07 0.06 0.07 0.08 0.08 0.08 0.09 0.08 0.08 0.07 0.05 0.05 0.06 0.07 0.06 0.06 0.07 0.09 0.12 0.15 0.18 0.18 0.22 0.28 0.34 0.36 0.35 0.37 0.40 0.41 0.42 0.47 0.49 0.47 0.43
0.24 0.15 0.13 0.13 0.13 0.11 0.08 0.08 0.07 0.07 0.07 0.08 0.07 0.07 0.08 0.09 0.10 0.10 0.10 0.07 0.05 0.06 0.07 0.07 0.06 0.06 0.07 0.09 0.14 0.18 0.19 0.21 0.27 0.31 0.36 0.36 0.36 0.38 0.40 0.42 0.52 0.56 0.48 0.43
0.19 0.12 0.09 0.08 0.08 0.09 0.07 0.06 0.05 0.05 0.06 0.07 0.07 0.08 0.07 0.09 0.10 0.11 0.10 0.07 0.06 0.05 0.07 0.08 0.07 0.06 0.06 0.09 0.14 0.17 0.19 0.21 0.25 0.27 0.34 0.35 0.35 0.36 0.38 0.37 0.53 0.65 0.55 0.54
0.15 0.10 0.11 0.08 0.06 0.07 0.09 0.08 0.07 0.08 0.07 0.06 0.07 0.07 0.08 0.10 0.11 0.10 0.09 0.07 0.06 0.05 0.06 0.08 0.08 0.08 0.07 0.09 0.13 0.17 0.21 0.23 0.25 0.28 0.34 0.37 0.35 0.36 0.39 0.39 0.43 0.45 0.48 0.57
0.08 0.05 0.06 0.07 0.05 0.05 0.07 0.08 0.09 0.09 0.09 0.08 0.07 0.07 0.08 0.10 0.09 0.09 0.07 0.06 0.06 0.07 0.08 0.09 0.09 0.09 0.10 0.11 0.13 0.17 0.22 0.25 0.27 0.28 0.34 0.37 0.33 0.36 0.35 0.35 0.38 0.39 0.41 0.47
0.05 0.05 0.07 0.06 0.06 0.05 0.05 0.06 0.08 0.08 0.08 0.08 0.08 0.08 0.08 0.08 0.08 0.07 0.06 0.06 0.05 0.06 0.08 0.10 0.09 0.10 0.12 0.13 0.12 0.16 0.23 0.28 0.29 0.30 0.34 0.36 0.35 0.35 0.33 0.35 0.35 0.37 0.43 0.48
0.04 0.05 0.06 0.05 0.05 0.05 0.04 0.05 0.07 0.08 0.07 0.07 0.07 0.07 0.08 0.08 0.08 0.06 0.05 0.06 0.06 0.06 0.07 0.09 0.10 0.11 0.14 0.14 0.13 0.17 0.25 0.30 0.32 0.34 0.36 0.36 0.36 0.37 0.35 0.34 0.34 0.35 0.42 0.54
0.04 0.04 0.03 0.04 0.05 0.06 0.05 0.06 0.07 0.08 0.09 0.08 0.09 0.10 0.10 0.08 0.06 0.05 0.05 0.06 0.06 0.07 0.08 0.09 0.11 0.13 0.16 0.15 0.15 0.18 0.24 0.36 0.39 0.38 0.39 0.39 0.39 0.39 0.39 0.38 0.38 0.40 0.43 0.49
0.09 0.06 0.05 0.05 0.06 0.07 0.08 0.08 0.08 0.10 0.10 0.11 0.11 0.12 0.11 0.08 0.06 0.05 0.05 0.06 0.07 0.09 0.10 0.11 0.12 0.15 0.17 0.16 0.18 0.21 0.26 0.34 0.42 0.43 0.43 0.45 0.45 0.44 0.44 0.46 0.45 0.45 0.45 0.50
0.10 0.09 0.09 0.10 0.10 0.09 0.09 0.09 0.09 0.10 0.11 0.12 0.12 0.12 0.12 0.10 0.09 0.08 0.08 0.07 0.08 0.08 0.10 0.13 0.17 0.17 0.17 0.18 0.22 0.25 0.30 0.36 0.42 0.48 0.52 0.53 0.54 0.49 0.50 0.51 0.48 0.48 0.45 0.48
0.10 0.10 0.10 0.11 0.11 0.11 0.13 0.14 0.14 0.12 0.11 0.11 0.11 0.12 0.12 0.12 0.11 0.11 0.10 0.09 0.10 0.13 0.15 0.17 0.21 0.19 0.20 0.25 0.32 0.34 0.37 0.42 0.47 0.51 0.54 0.60 0.59 0.54 0.53 0.53 0.51 0.50 0.49 0.49
0.13 0.13 0.13 0.13 0.11 0.12 0.14 0.15 0.15 0.13 0.12 0.12 0.12 0.12 0.12 0.13 0.13 0.14 0.14 0.14 0.15 0.19 0.21 0.24 0.23 0.24 0.29 0.35 0.43 0.43 0.42 0.48 0.53 0.57 0.60 0.62 0.64 0.65 0.62 0.60 0.58 0.56 0.53 0.52
0.16 0.15 0.14 0.13 0.12 0.12 0.13 0.15 0.17 0.15 0.13 0.14 0.16 0.16 0.15 0.15 0.15 0.16 0.17 0.20 0.21 0.23 0.25 0.27 0.28 0.33 0.42 0.47 0.47 0.44 0.46 0.52 0.56 0.60 0.64 0.67 0.69 0.69 0.67 0.65 0.62 0.59 0.57 0.54
0.20 0.19 0.17 0.16 0.16 0.17 0.17 0.17 0.19 0.19 0.18 0.18 0.19 0.19 0.19 0.19 0.18 0.19 0.22 0.27 0.30 0.30 0.29 0.29 0.32 0.40 0.48 0.51 0.47 0.48 0.51 0.58 0.62 0.62 0.66 0.68 0.73 0.75 0.71 0.68 0.65 0.61 0.59 0.57
0.26 0.25 0.24 0.24 0.25 0.25 0.23 0.23 0.25 0.25 0.25 0.25 0.26 0.25 0.26 0.26 0.24 0.25 0.30 0.32 0.32 0.33 0.34 0.35 0.39 0.44 0.49 0.50 0.51 0.52 0.58 0.67 0.71 0.69 0.69 0.71 0.76 0.79 0.78 0.74 0.67 0.65 0.66 0.64
0.34 0.32 0.32 0.33 0.32 0.31 0.32 0.34 0.34 0.34 0.34 0.36 0.36 0.35 0.34 0.32 0.32 0.34 0.38 0.39 0.37 0.37 0.38 0.41 0.42 0.44 0.48 0.49 0.53 0.60 0.67 0.73 0.77 0.77 0.76 0.76 0.79 0.81 0.81 0.78 0.73 0.67 0.66 0.66
0.41 0.40 0.39 0.40 0.42 0.44 0.43 0.41 0.39 0.39 0.38 0.39 0.40 0.40 0.39 0.38 0.41 0.44 0.43 0.41 0.40 0.39 0.39 0.41 0.42 0.43 0.45 0.50 0.58 0.68 0.73 0.77 0.85 0.87 0.86 0.85 0.83 0.82 0.81 0.78 0.73 0.68 0.65 0.62
0.45 0.45 0.46 0.49 0.52 0.52 0.49 0.45 0.43 0.43 0.40 0.38 0.39 0.40 0.40 0.41 0.43 0.45 0.44 0.43 0.42 0.43 0.43 0.43 0.44 0.46 0.51 0.57 0.63 0.70 0.75 0.80 0.88 0.90 0.85 0.82 0.81 0.81 0.80 0.76 0.69 0.63 0.58 0.55
0.48 0.47 0.45 0.45 0.48 0.50 0.49 0.48 0.48 0.47 0.42 0.39 0.39 0.40 0.41 0.41 0.42 0.44 0.43 0.42 0.43 0.44 0.45 0.47 0.49 0.52 0.55 0.61 0.66 0.71 0.75 0.80 0.89 0.94 0.88 0.84 0.82 0.81 0.78 0.73 0.64 0.56 0.53 0.52

GEFSNGP_prec_meanprecacc_186.txt.gz
Total_Precipitation_Accumulation
0.20 0.17 0.25 0.30 0.29 0.30 0.39 0.40 0.32 0.19 0.15 0.18 0.17 0.18 0.18 0.16 0.13 0.10 0.09 0.08 0.08 0.10 0.12 0.13 0.13 0.13 0.15 0.19 0.28 0.45 0.64 0.80 0.80 0.75 0.77 0.78 0.78 0.84 0.92 0.98 1.05 1.17 1.27 1.37
0.17 0.10 0.15 0.19 0.17 0.19 0.21 0.22 0.20 0.15 0.16 0.15 0.16 0.15 0.15 0.15 0.14 0.13 0.11 0.10 0.08 0.09 0.11 0.12 0.13 0.13 0.15 0.17 0.23 0.36 0.52 0.70 0.79 0.76 0.76 0.80 0.77 0.82 0.90 0.96 1.02 1.14 1.18 1.18
0.28 0.10 0.25 0.36 0.23 0.21 0.19 0.19 0.20 0.21 0.21 0.15 0.15 0.15 0.15 0.15 0.14 0.16 0.15 0.13 0.11 0.10 0.11 0.11 0.11 0.13 0.16 0.16 0.18 0.27 0.41 0.58 0.71 0.71 0.69 0.73 0.74 0.79 0.87 0.95 0.95 1.00 1.02 1.00
0.47 0.34 0.59 0.38 0.16 0.18 0.22 0.23 0.22 0.22 0.18 0.15 0.15 0.16 0.15 0.13 0.14 0.16 0.16 0.14 0.13 0.12 0.11 0.10 0.10 0.11 0.13 0.15 0.17 0.22 0.32 0.47 0.63 0.68 0.66 0.66 0.68 0.69 0.76 0.87 0.94 0.90 0.87 0.83
0.70 0.51 0.34 0.18 0.10 0.17 0.27 0.30 0.21 0.17 0.13 0.13 0.13 0.14 0.14 0.13 0.10 0.11 0.14 0.14 0.13 0.14 0.13 0.12 0.11 0.11 0.13 0.16 0.17 0.21 0.32 0.42 0.53 0.63 0.64 0.60 0.64 0.64 0.67 0.72 0.83 0.83 0.78 0.76
0.84 0.61 0.33 0.20 0.08 0.11 0.23 0.36 0.18 0.12 0.11 0.12 0.15 0.20 0.17 0.12 0.08 0.06 0.08 0.10 0.11 0.11 0.11 0.12 0.12 0.12 0.14 0.17 0.19 0.22 0.34 0.43 0.48 0.55 0.58 0.56 0.59 0.62 0.64 0.64 0.68 0.72 0.68 0.67
0.75 0.58 0.24 0.13 0.08 0.13 0.34 0.38 0.16 0.11 0.10 0.11 0.18 0.22 0.15 0.09 0.08 0.06 0.06 0.08 0.09 0.09 0.10 0.10 0.11 0.13 0.14 0.17 0.22 0.24 0.32 0.39 0.44 0.49 0.52 0.51 0.56 0.56 0.60 0.63 0.63 0.62 0.59 0.60
0.58 0.61 0.28 0.11 0.13 0.29 0.35 0.15 0.09 0.08 0.07 0.08 0.10 0.10 0.08 0.08 0.08 0.08 0.06 0.06 0.07 0.08 0.09 0.08 0.09 0.11 0.13 0.18 0.24 0.26 0.28 0.32 0.40 0.46 0.48 0.47 0.55 0.53 0.52 0.59 0.61 0.60 0.59 0.60
0.43 0.32 0.17 0.14 0.19 0.20 0.16 0.12 0.07 0.07 0.06 0.07 0.08 0.08 0.08 0.09 0.08 0.09 0.07 0.05 0.06 0.07 0.08 0.07 0.07 0.10 0.11 0.16 0.22 0.28 0.28 0.31 0.38 0.45 0.49 0.48 0.52 0.53 0.53 0.53 0.56 0.59 0.59 0.56
0.24 0.15 0.13 0.13 0.13 0.11 0.08 0.08 0.07 0.07 0.08 0.08 0.08 0.07 0.09 0.09 0.10 0.10 0.10 0.07 0.06 0.07 0.08 0.08 0.08 0.09 0.11 0.14 0.19 0.26 0.28 0.30 0.36 0.41 0.48 0.47 0.48 0.49 0.50 0.51 0.60 0.65 0.60 0.55
0.20 0.12 0.10 0.08 0.08 0.09 0.08 0.06 0.05 0.05 0.06 0.07 0.08 0.08 0.08 0.09 0.10 0.11 0.11 0.08 0.07 0.06 0.08 0.09 0.09 0.09 0.09 0.13 0.19 0.24 0.27 0.29 0.33 0.37 0.46 0.47 0.47 0.48 0.47 0.45 0.61 0.74 0.66 0.66
0.16 0.10 0.12 0.08 0.06 0.07 0.09 0.08 0.07 0.08 0.07 0.06 0.07 0.08 0.08 0.11 0.11 0.10 0.10 0.08 0.07 0.07 0.07 0.09 0.10 0.10 0.10 0.13 0.18 0.23 0.28 0.31 0.33 0.36 0.45 0.47 0.47 0.50 0.51 0.49 0.51 0.53 0.58 0.67
0.09 0.05 0.06 0.07 0.06 0.06 0.08 0.09 0.09 0.10 0.10 0.09 0.07 0.07 0.09 0.10 0.09 0.09 0.08 0.07 0.07 0.08 0.09 0.10 0.10 0.11 0.12 0.14 0.16 0.21 0.28 0.32 0.35 0.37 0.43 0.46 0.43 0.46 0.47 0.47 0.48 0.49 0.50 0.56
0.05 0.06 0.08 0.07 0.07 0.06 0.06 0.07 0.09 0.09 0.09 0.09 0.09 0.09 0.09 0.09 0.09 0.08 0.07 0.07 0.07 0.07 0.09 0.11 0.11 0.12 0.15 0.16 0.15 0.19 0.29 0.35 0.36 0.38 0.42 0.44 0.43 0.43 0.42 0.45 0.47 0.48 0.52 0.57
0.04 0.06 0.07 0.05 0.05 0.05 0.05 0.05 0.07 0.08 0.08 0.07 0.07 0.08 0.09 0.09 0.09 0.07 0.07 0.07 0.07 0.06 0.08 0.10 0.11 0.13 0.16 0.16 0.16 0.21 0.31 0.38 0.39 0.41 0.44 0.44 0.44 0.44 0.41 0.41 0.42 0.44 0.50 0.63
0.05 0.04 0.04 0.04 0.05 0.06 0.06 0.06 0.07 0.09 0.09 0.09 0.09 0.10 0.11 0.09 0.07 0.07 0.06 0.06 0.07 0.07 0.08 0.10 0.12 0.14 0.18 0.17 0.18 0.22 0.30 0.45 0.48 0.47 0.48 0.48 0.46 0.45 0.44 0.44 0.44 0.47 0.52 0.59
0.10 0.07 0.05 0.05 0.06 0.07 0.08 0.08 0.09 0.10 0.11 0.11 0.12 0.12 0.11 0.09 0.07 0.06 0.07 0.07 0.08 0.09 0.10 0.12 0.13 0.16 0.18 0.18 0.21 0.25 0.32 0.43 0.51 0.52 0.51 0.53 0.52 0.49 0.48 0.51 0.52 0.52 0.53 0.61
0.10 0.10 0.09 0.10 0.11 0.10 0.09 0.09 0.10 0.11 0.12 0.12 0.12 0.13 0.12 0.11 0.10 0.09 0.09 0.08 0.08 0.09 0.11 0.15 0.18 0.20 0.19 0.21 0.25 0.30 0.37 0.45 0.51 0.57 0.60 0.61 0.60 0.54 0.54 0.56 0.54 0.55 0.54 0.59
0.10 0.10 0.11 0.11 0.11 0.12 0.13 0.15 0.14 0.12 0.12 0.11 0.11 0.12 0.13 0.13 0.12 0.11 0.10 0.10 0.11 0.14 0.16 0.19 0.23 0.21 0.22 0.27 0.35 0.38 0.43 0.51 0.56 0.60 0.62 0.68 0.66 0.59 0.57 0.57 0.57 0.58 0.58 0.61
0.13 0.13 0.13 0.13 0.12 0.13 0.14 0.16 0.15 0.13 0.12 0.12 0.12 0.12 0.13 0.13 0.14 0.14 0.14 0.14 0.16 0.20 0.23 0.25 0.25 0.26 0.31 0.38 0.46 0.46 0.48 0.55 0.62 0.66 0.68 0.68 0.69 0.69 0.66 0.64 0.64 0.63 0.62 0.63
0.17 0.15 0.15 0.14 0.12 0.12 0.13 0.15 0.17 0.16 0.13 0.14 0.16 0.16 0.16 0.16 0.16 0.16 0.18 0.21 0.22 0.24 0.26 0.29 0.30 0.36 0.45 0.51 0.50 0.48 0.51 0.59 0.65 0.68 0.71 0.73 0.74 0.73 0.71 0.69 0.67 0.66 0.65 0.63
0.21 0.20 0.18 0.17 0.17 0.18 0.17 0.17 0.20 0.20 0.18 0.18 0.19 0.20 0.20 0.20 0.18 0.19 0.23 0.29 0.32 0.32 0.31 0.32 0.35 0.43 0.52 0.55 0.51 0.52 0.57 0.64 0.69 0.69 0.73 0.74 0.79 0.80 0.75 0.73 0.71 0.67 0.68 0.65
0.27 0.26 0.24 0.24 0.25 0.26 0.24 0.24 0.25 0.25 0.26 0.26 0.26 0.26 0.26 0.26 0.24 0.25 0.31 0.34 0.34 0.35 0.36 0.39 0.43 0.48 0.53 0.54 0.55 0.57 0.64 0.73 0.77 0.76 0.76 0.77 0.81 0.84 0.83 0.79 0.73 0.71 0.74 0.73
0.35 0.33 0.33 0.34 0.33 0.32 0.33 0.34 0.34 0.34 0.35 0.37 0.37 0.36 0.35 0.33 0.32 0.34 0.39 0.40 0.39 0.38 0.41 0.44 0.46 0.48 0.52 0.53 0.57 0.64 0.72 0.79 0.83 0.83 0.82 0.82 0.84 0.87 0.87 0.85 0.80 0.74 0.73 0.74
0.42 0.40 0.40 0.41 0.43 0.45 0.45 0.42 0.40 0.40 0.39 0.40 0.41 0.41 0.41 0.40 0.42 0.45 0.45 0.43 0.42 0.41 0.42 0.44 0.46 0.48 0.50 0.55 0.63 0.73 0.79 0.84 0.92 0.94 0.93 0.91 0.89 0.90 0.90 0.86 0.80 0.75 0.71 0.70
0.46 0.46 0.47 0.49 0.52 0.53 0.50 0.46 0.44 0.44 0.41 0.40 0.41 0.42 0.43 0.44 0.46 0.47 0.47 0.46 0.44 0.46 0.47 0.47 0.48 0.51 0.55 0.61 0.67 0.75 0.80 0.86 0.95 0.96 0.91 0.88 0.88 0.89 0.89 0.86 0.77 0.69 0.64 0.63
0.49 0.48 0.46 0.46 0.49 0.50 0.50 0.49 0.49 0.48 0.44 0.41 0.41 0.42 0.43 0.44 0.45 0.46 0.46 0.45 0.46 0.47 0.48 0.50 0.52 0.55 0.59 0.64 0.70 0.75 0.80 0.86 0.95 1.01 0.95 0.91 0.90 0.90 0.88 0.82 0.72 0.63 0.59 0.59